<?xml version="1.0" encoding="UTF-8" standalone="no" ?>
<gpx xmlns="http://www.topografix.com/GPX/1/1" xmlns:xsi="http://www.w3.org/2001/XMLSchema-instance" xsi:schemaLocation="http://www.topografix.com/GPX/1/1 http://www.topografix.com/GPX/1/1/gpx.xsd" version="1.1" creator="VisuGPX - https://www.visugpx.com">
  <metadata>
    <name>06-Yse-Tour-lac-paladru</name>
    <desc><![CDATA[Itineraire 06 petit tour du lac de paladru]]></desc>
  </metadata>
  <trk>
    <name><![CDATA[06-Yse-Tour-lac-paladru]]></name>
    <trkseg>
      <trkpt lat="45.42885" lon="5.51632">
        <ele>458.69</ele>
        <time>2021-07-18T08:58:00Z</time>
      </trkpt>
      <trkpt lat="45.42885" lon="5.51632">
        <ele>462.53</ele>
        <time>2021-07-18T08:58:02Z</time>
      </trkpt>
      <trkpt lat="45.42885" lon="5.51632">
        <ele>463.97</ele>
        <time>2021-07-18T08:58:04Z</time>
      </trkpt>
      <trkpt lat="45.42885" lon="5.51631">
        <ele>467.34</ele>
        <time>2021-07-18T08:58:07Z</time>
      </trkpt>
      <trkpt lat="45.42885" lon="5.5163">
        <ele>470.22</ele>
        <time>2021-07-18T08:58:10Z</time>
      </trkpt>
      <trkpt lat="45.42884" lon="5.51628">
        <ele>474.07</ele>
        <time>2021-07-18T08:58:14Z</time>
      </trkpt>
      <trkpt lat="45.42884" lon="5.51629">
        <ele>476.95</ele>
        <time>2021-07-18T08:58:18Z</time>
      </trkpt>
      <trkpt lat="45.42884" lon="5.51628">
        <ele>480.32</ele>
        <time>2021-07-18T08:58:23Z</time>
      </trkpt>
      <trkpt lat="45.42884" lon="5.51627">
        <ele>484.16</ele>
        <time>2021-07-18T08:58:28Z</time>
      </trkpt>
      <trkpt lat="45.42884" lon="5.51627">
        <ele>484.16</ele>
        <time>2021-07-18T08:58:29Z</time>
      </trkpt>
      <trkpt lat="45.42884" lon="5.51626">
        <ele>487.53</ele>
        <time>2021-07-18T08:58:36Z</time>
      </trkpt>
      <trkpt lat="45.42883" lon="5.51626">
        <ele>490.41</ele>
        <time>2021-07-18T08:58:45Z</time>
      </trkpt>
      <trkpt lat="45.42882" lon="5.51628">
        <ele>493.29</ele>
        <time>2021-07-18T08:59:01Z</time>
      </trkpt>
      <trkpt lat="45.42882" lon="5.51627">
        <ele>494.74</ele>
        <time>2021-07-18T08:59:17Z</time>
      </trkpt>
      <trkpt lat="45.42882" lon="5.51626">
        <ele>453.88</ele>
        <time>2021-07-18T08:59:18Z</time>
      </trkpt>
      <trkpt lat="45.42882" lon="5.51626">
        <ele>494.26</ele>
        <time>2021-07-18T08:59:19Z</time>
      </trkpt>
      <trkpt lat="45.4288" lon="5.51625">
        <ele>494.26</ele>
        <time>2021-07-18T08:59:34Z</time>
      </trkpt>
      <trkpt lat="45.42878" lon="5.5163">
        <ele>494.26</ele>
        <time>2021-07-18T08:59:50Z</time>
      </trkpt>
      <trkpt lat="45.4288" lon="5.51633">
        <ele>494.26</ele>
        <time>2021-07-18T08:59:54Z</time>
      </trkpt>
      <trkpt lat="45.42887" lon="5.51642">
        <ele>494.26</ele>
        <time>2021-07-18T09:00:01Z</time>
      </trkpt>
      <trkpt lat="45.42893" lon="5.51652">
        <ele>494.26</ele>
        <time>2021-07-18T09:00:06Z</time>
      </trkpt>
      <trkpt lat="45.42877" lon="5.51673">
        <ele>494.74</ele>
        <time>2021-07-18T09:00:18Z</time>
      </trkpt>
      <trkpt lat="45.4285" lon="5.51715">
        <ele>493.29</ele>
        <time>2021-07-18T09:00:34Z</time>
      </trkpt>
      <trkpt lat="45.42828" lon="5.51769">
        <ele>492.81</ele>
        <time>2021-07-18T09:00:48Z</time>
      </trkpt>
      <trkpt lat="45.42814" lon="5.51824">
        <ele>492.81</ele>
        <time>2021-07-18T09:01:04Z</time>
      </trkpt>
      <trkpt lat="45.428" lon="5.51868">
        <ele>492.81</ele>
        <time>2021-07-18T09:01:19Z</time>
      </trkpt>
      <trkpt lat="45.42791" lon="5.51885">
        <ele>492.81</ele>
        <time>2021-07-18T09:01:37Z</time>
      </trkpt>
      <trkpt lat="45.42745" lon="5.51941">
        <ele>492.81</ele>
        <time>2021-07-18T09:01:57Z</time>
      </trkpt>
      <trkpt lat="45.42687" lon="5.51952">
        <ele>492.81</ele>
        <time>2021-07-18T09:02:14Z</time>
      </trkpt>
      <trkpt lat="45.42639" lon="5.51932">
        <ele>492.81</ele>
        <time>2021-07-18T09:02:30Z</time>
      </trkpt>
      <trkpt lat="45.42637" lon="5.51932">
        <ele>492.81</ele>
        <time>2021-07-18T09:02:31Z</time>
      </trkpt>
      <trkpt lat="45.42635" lon="5.51933">
        <ele>492.81</ele>
        <time>2021-07-18T09:02:32Z</time>
      </trkpt>
      <trkpt lat="45.42634" lon="5.51935">
        <ele>492.81</ele>
        <time>2021-07-18T09:02:33Z</time>
      </trkpt>
      <trkpt lat="45.42633" lon="5.51937">
        <ele>492.81</ele>
        <time>2021-07-18T09:02:34Z</time>
      </trkpt>
      <trkpt lat="45.42633" lon="5.5194">
        <ele>493.77</ele>
        <time>2021-07-18T09:02:35Z</time>
      </trkpt>
      <trkpt lat="45.42632" lon="5.51943">
        <ele>493.77</ele>
        <time>2021-07-18T09:02:36Z</time>
      </trkpt>
      <trkpt lat="45.42627" lon="5.5199">
        <ele>495.22</ele>
        <time>2021-07-18T09:02:50Z</time>
      </trkpt>
      <trkpt lat="45.42619" lon="5.52013">
        <ele>496.18</ele>
        <time>2021-07-18T09:02:59Z</time>
      </trkpt>
      <trkpt lat="45.42618" lon="5.52015">
        <ele>496.66</ele>
        <time>2021-07-18T09:03:00Z</time>
      </trkpt>
      <trkpt lat="45.42618" lon="5.52017">
        <ele>496.66</ele>
        <time>2021-07-18T09:03:01Z</time>
      </trkpt>
      <trkpt lat="45.42616" lon="5.52019">
        <ele>496.66</ele>
        <time>2021-07-18T09:03:02Z</time>
      </trkpt>
      <trkpt lat="45.42615" lon="5.5202">
        <ele>496.66</ele>
        <time>2021-07-18T09:03:03Z</time>
      </trkpt>
      <trkpt lat="45.42614" lon="5.52022">
        <ele>497.14</ele>
        <time>2021-07-18T09:03:04Z</time>
      </trkpt>
      <trkpt lat="45.42596" lon="5.5205">
        <ele>499.54</ele>
        <time>2021-07-18T09:03:21Z</time>
      </trkpt>
      <trkpt lat="45.42594" lon="5.52054">
        <ele>499.54</ele>
        <time>2021-07-18T09:03:23Z</time>
      </trkpt>
      <trkpt lat="45.42593" lon="5.52056">
        <ele>500.02</ele>
        <time>2021-07-18T09:03:24Z</time>
      </trkpt>
      <trkpt lat="45.42592" lon="5.52057">
        <ele>500.02</ele>
        <time>2021-07-18T09:03:25Z</time>
      </trkpt>
      <trkpt lat="45.42591" lon="5.52059">
        <ele>500.5</ele>
        <time>2021-07-18T09:03:26Z</time>
      </trkpt>
      <trkpt lat="45.4259" lon="5.52061">
        <ele>500.5</ele>
        <time>2021-07-18T09:03:27Z</time>
      </trkpt>
      <trkpt lat="45.42576" lon="5.52081">
        <ele>502.43</ele>
        <time>2021-07-18T09:03:40Z</time>
      </trkpt>
      <trkpt lat="45.42558" lon="5.52109">
        <ele>504.83</ele>
        <time>2021-07-18T09:03:58Z</time>
      </trkpt>
      <trkpt lat="45.42539" lon="5.52126">
        <ele>507.23</ele>
        <time>2021-07-18T09:04:15Z</time>
      </trkpt>
      <trkpt lat="45.42515" lon="5.52132">
        <ele>509.64</ele>
        <time>2021-07-18T09:04:31Z</time>
      </trkpt>
      <trkpt lat="45.42495" lon="5.52139">
        <ele>513</ele>
        <time>2021-07-18T09:04:47Z</time>
      </trkpt>
      <trkpt lat="45.4247" lon="5.52156">
        <ele>514.92</ele>
        <time>2021-07-18T09:05:03Z</time>
      </trkpt>
      <trkpt lat="45.42444" lon="5.52184">
        <ele>517.81</ele>
        <time>2021-07-18T09:05:21Z</time>
      </trkpt>
      <trkpt lat="45.42416" lon="5.52219">
        <ele>518.77</ele>
        <time>2021-07-18T09:05:38Z</time>
      </trkpt>
      <trkpt lat="45.42379" lon="5.52274">
        <ele>519.25</ele>
        <time>2021-07-18T09:05:57Z</time>
      </trkpt>
      <trkpt lat="45.42348" lon="5.52305">
        <ele>520.69</ele>
        <time>2021-07-18T09:06:12Z</time>
      </trkpt>
      <trkpt lat="45.42338" lon="5.52302">
        <ele>519.25</ele>
        <time>2021-07-18T09:06:14Z</time>
      </trkpt>
      <trkpt lat="45.42316" lon="5.52295">
        <ele>517.33</ele>
        <time>2021-07-18T09:06:18Z</time>
      </trkpt>
      <trkpt lat="45.42312" lon="5.52295">
        <ele>517.33</ele>
        <time>2021-07-18T09:06:19Z</time>
      </trkpt>
      <trkpt lat="45.42307" lon="5.52296">
        <ele>517.33</ele>
        <time>2021-07-18T09:06:20Z</time>
      </trkpt>
      <trkpt lat="45.42302" lon="5.52299">
        <ele>517.33</ele>
        <time>2021-07-18T09:06:21Z</time>
      </trkpt>
      <trkpt lat="45.42298" lon="5.52301">
        <ele>517.33</ele>
        <time>2021-07-18T09:06:22Z</time>
      </trkpt>
      <trkpt lat="45.42231" lon="5.52358">
        <ele>514.92</ele>
        <time>2021-07-18T09:06:37Z</time>
      </trkpt>
      <trkpt lat="45.42162" lon="5.52432">
        <ele>513.96</ele>
        <time>2021-07-18T09:06:54Z</time>
      </trkpt>
      <trkpt lat="45.42136" lon="5.52458">
        <ele>513.96</ele>
        <time>2021-07-18T09:07:01Z</time>
      </trkpt>
      <trkpt lat="45.42129" lon="5.52466">
        <ele>513.48</ele>
        <time>2021-07-18T09:07:03Z</time>
      </trkpt>
      <trkpt lat="45.42053" lon="5.52542">
        <ele>512.04</ele>
        <time>2021-07-18T09:07:21Z</time>
      </trkpt>
      <trkpt lat="45.41972" lon="5.5262">
        <ele>509.64</ele>
        <time>2021-07-18T09:07:40Z</time>
      </trkpt>
      <trkpt lat="45.41882" lon="5.52685">
        <ele>507.71</ele>
        <time>2021-07-18T09:07:59Z</time>
      </trkpt>
      <trkpt lat="45.41867" lon="5.52697">
        <ele>507.71</ele>
        <time>2021-07-18T09:08:03Z</time>
      </trkpt>
      <trkpt lat="45.41863" lon="5.527">
        <ele>507.71</ele>
        <time>2021-07-18T09:08:04Z</time>
      </trkpt>
      <trkpt lat="45.41834" lon="5.52732">
        <ele>507.23</ele>
        <time>2021-07-18T09:08:12Z</time>
      </trkpt>
      <trkpt lat="45.4183" lon="5.52735">
        <ele>507.23</ele>
        <time>2021-07-18T09:08:13Z</time>
      </trkpt>
      <trkpt lat="45.41827" lon="5.52738">
        <ele>507.23</ele>
        <time>2021-07-18T09:08:14Z</time>
      </trkpt>
      <trkpt lat="45.41824" lon="5.52742">
        <ele>507.23</ele>
        <time>2021-07-18T09:08:15Z</time>
      </trkpt>
      <trkpt lat="45.41821" lon="5.52747">
        <ele>507.23</ele>
        <time>2021-07-18T09:08:16Z</time>
      </trkpt>
      <trkpt lat="45.41778" lon="5.52812">
        <ele>506.75</ele>
        <time>2021-07-18T09:08:32Z</time>
      </trkpt>
      <trkpt lat="45.41744" lon="5.52857">
        <ele>506.27</ele>
        <time>2021-07-18T09:08:43Z</time>
      </trkpt>
      <trkpt lat="45.41737" lon="5.52865">
        <ele>506.27</ele>
        <time>2021-07-18T09:08:45Z</time>
      </trkpt>
      <trkpt lat="45.41723" lon="5.52885">
        <ele>505.79</ele>
        <time>2021-07-18T09:08:49Z</time>
      </trkpt>
      <trkpt lat="45.41691" lon="5.52935">
        <ele>505.31</ele>
        <time>2021-07-18T09:09:02Z</time>
      </trkpt>
      <trkpt lat="45.4169" lon="5.52936">
        <ele>505.31</ele>
        <time>2021-07-18T09:09:03Z</time>
      </trkpt>
      <trkpt lat="45.41689" lon="5.52938">
        <ele>505.31</ele>
        <time>2021-07-18T09:09:04Z</time>
      </trkpt>
      <trkpt lat="45.41689" lon="5.5294">
        <ele>505.31</ele>
        <time>2021-07-18T09:09:05Z</time>
      </trkpt>
      <trkpt lat="45.4169" lon="5.52942">
        <ele>505.31</ele>
        <time>2021-07-18T09:09:06Z</time>
      </trkpt>
      <trkpt lat="45.41691" lon="5.52943">
        <ele>505.31</ele>
        <time>2021-07-18T09:09:07Z</time>
      </trkpt>
      <trkpt lat="45.41692" lon="5.52945">
        <ele>505.31</ele>
        <time>2021-07-18T09:09:08Z</time>
      </trkpt>
      <trkpt lat="45.41693" lon="5.52946">
        <ele>505.31</ele>
        <time>2021-07-18T09:09:09Z</time>
      </trkpt>
      <trkpt lat="45.41694" lon="5.52947">
        <ele>505.31</ele>
        <time>2021-07-18T09:09:10Z</time>
      </trkpt>
      <trkpt lat="45.41696" lon="5.52948">
        <ele>505.31</ele>
        <time>2021-07-18T09:09:11Z</time>
      </trkpt>
      <trkpt lat="45.41697" lon="5.52949">
        <ele>505.31</ele>
        <time>2021-07-18T09:09:12Z</time>
      </trkpt>
      <trkpt lat="45.41699" lon="5.52949">
        <ele>505.31</ele>
        <time>2021-07-18T09:09:13Z</time>
      </trkpt>
      <trkpt lat="45.41728" lon="5.52973">
        <ele>506.75</ele>
        <time>2021-07-18T09:09:31Z</time>
      </trkpt>
      <trkpt lat="45.41741" lon="5.53006">
        <ele>508.19</ele>
        <time>2021-07-18T09:09:47Z</time>
      </trkpt>
      <trkpt lat="45.41751" lon="5.53044">
        <ele>510.6</ele>
        <time>2021-07-18T09:10:06Z</time>
      </trkpt>
      <trkpt lat="45.41761" lon="5.53068">
        <ele>513</ele>
        <time>2021-07-18T09:10:22Z</time>
      </trkpt>
      <trkpt lat="45.41768" lon="5.5309">
        <ele>515.88</ele>
        <time>2021-07-18T09:10:39Z</time>
      </trkpt>
      <trkpt lat="45.41772" lon="5.53105">
        <ele>518.29</ele>
        <time>2021-07-18T09:10:54Z</time>
      </trkpt>
      <trkpt lat="45.41774" lon="5.53115">
        <ele>519.25</ele>
        <time>2021-07-18T09:11:06Z</time>
      </trkpt>
      <trkpt lat="45.41779" lon="5.5313">
        <ele>521.17</ele>
        <time>2021-07-18T09:11:22Z</time>
      </trkpt>
      <trkpt lat="45.41783" lon="5.53144">
        <ele>523.09</ele>
        <time>2021-07-18T09:11:38Z</time>
      </trkpt>
      <trkpt lat="45.41789" lon="5.53159">
        <ele>524.54</ele>
        <time>2021-07-18T09:11:54Z</time>
      </trkpt>
      <trkpt lat="45.41793" lon="5.53169">
        <ele>526.46</ele>
        <time>2021-07-18T09:12:13Z</time>
      </trkpt>
      <trkpt lat="45.41792" lon="5.53168">
        <ele>526.46</ele>
        <time>2021-07-18T09:12:45Z</time>
      </trkpt>
      <trkpt lat="45.41789" lon="5.53164">
        <ele>526.46</ele>
        <time>2021-07-18T09:13:25Z</time>
      </trkpt>
      <trkpt lat="45.41788" lon="5.5316">
        <ele>526.46</ele>
        <time>2021-07-18T09:14:07Z</time>
      </trkpt>
      <trkpt lat="45.41789" lon="5.5316">
        <ele>526.94</ele>
        <time>2021-07-18T09:14:49Z</time>
      </trkpt>
      <trkpt lat="45.41788" lon="5.53159">
        <ele>526.94</ele>
        <time>2021-07-18T09:15:27Z</time>
      </trkpt>
      <trkpt lat="45.41797" lon="5.53167">
        <ele>526.94</ele>
        <time>2021-07-18T09:15:58Z</time>
      </trkpt>
      <trkpt lat="45.41799" lon="5.5317">
        <ele>527.42</ele>
        <time>2021-07-18T09:16:19Z</time>
      </trkpt>
      <trkpt lat="45.41797" lon="5.53168">
        <ele>527.42</ele>
        <time>2021-07-18T09:16:37Z</time>
      </trkpt>
      <trkpt lat="45.41798" lon="5.5317">
        <ele>527.42</ele>
        <time>2021-07-18T09:16:50Z</time>
      </trkpt>
      <trkpt lat="45.41816" lon="5.5318">
        <ele>529.82</ele>
        <time>2021-07-18T09:17:06Z</time>
      </trkpt>
      <trkpt lat="45.41828" lon="5.53189">
        <ele>531.27</ele>
        <time>2021-07-18T09:17:19Z</time>
      </trkpt>
      <trkpt lat="45.4183" lon="5.5319">
        <ele>531.27</ele>
        <time>2021-07-18T09:17:20Z</time>
      </trkpt>
      <trkpt lat="45.41831" lon="5.53191">
        <ele>531.27</ele>
        <time>2021-07-18T09:17:21Z</time>
      </trkpt>
      <trkpt lat="45.41852" lon="5.53212">
        <ele>532.23</ele>
        <time>2021-07-18T09:17:39Z</time>
      </trkpt>
      <trkpt lat="45.41873" lon="5.53223">
        <ele>533.67</ele>
        <time>2021-07-18T09:17:56Z</time>
      </trkpt>
      <trkpt lat="45.41874" lon="5.53223">
        <ele>533.67</ele>
        <time>2021-07-18T09:17:57Z</time>
      </trkpt>
      <trkpt lat="45.41876" lon="5.53223">
        <ele>533.67</ele>
        <time>2021-07-18T09:17:58Z</time>
      </trkpt>
      <trkpt lat="45.41878" lon="5.53221">
        <ele>534.15</ele>
        <time>2021-07-18T09:18:01Z</time>
      </trkpt>
      <trkpt lat="45.4188" lon="5.5322">
        <ele>534.15</ele>
        <time>2021-07-18T09:18:02Z</time>
      </trkpt>
      <trkpt lat="45.41881" lon="5.53219">
        <ele>534.15</ele>
        <time>2021-07-18T09:18:03Z</time>
      </trkpt>
      <trkpt lat="45.41882" lon="5.53218">
        <ele>534.63</ele>
        <time>2021-07-18T09:18:04Z</time>
      </trkpt>
      <trkpt lat="45.41885" lon="5.53217">
        <ele>534.63</ele>
        <time>2021-07-18T09:18:07Z</time>
      </trkpt>
      <trkpt lat="45.41886" lon="5.53216">
        <ele>535.11</ele>
        <time>2021-07-18T09:18:08Z</time>
      </trkpt>
      <trkpt lat="45.41888" lon="5.53216">
        <ele>535.11</ele>
        <time>2021-07-18T09:18:09Z</time>
      </trkpt>
      <trkpt lat="45.41889" lon="5.53216">
        <ele>535.11</ele>
        <time>2021-07-18T09:18:10Z</time>
      </trkpt>
      <trkpt lat="45.4189" lon="5.53216">
        <ele>535.11</ele>
        <time>2021-07-18T09:18:11Z</time>
      </trkpt>
      <trkpt lat="45.41891" lon="5.53216">
        <ele>535.59</ele>
        <time>2021-07-18T09:18:12Z</time>
      </trkpt>
      <trkpt lat="45.41892" lon="5.53216">
        <ele>535.59</ele>
        <time>2021-07-18T09:18:13Z</time>
      </trkpt>
      <trkpt lat="45.41901" lon="5.53214">
        <ele>537.03</ele>
        <time>2021-07-18T09:18:21Z</time>
      </trkpt>
      <trkpt lat="45.41907" lon="5.53214">
        <ele>537.99</ele>
        <time>2021-07-18T09:18:27Z</time>
      </trkpt>
      <trkpt lat="45.41921" lon="5.53214">
        <ele>540.4</ele>
        <time>2021-07-18T09:18:41Z</time>
      </trkpt>
      <trkpt lat="45.41933" lon="5.53222">
        <ele>542.8</ele>
        <time>2021-07-18T09:18:56Z</time>
      </trkpt>
      <trkpt lat="45.41951" lon="5.53237">
        <ele>543.76</ele>
        <time>2021-07-18T09:19:10Z</time>
      </trkpt>
      <trkpt lat="45.41952" lon="5.53238">
        <ele>543.76</ele>
        <time>2021-07-18T09:19:11Z</time>
      </trkpt>
      <trkpt lat="45.41953" lon="5.53239">
        <ele>543.76</ele>
        <time>2021-07-18T09:19:12Z</time>
      </trkpt>
      <trkpt lat="45.41955" lon="5.5324">
        <ele>543.76</ele>
        <time>2021-07-18T09:19:13Z</time>
      </trkpt>
      <trkpt lat="45.41956" lon="5.53242">
        <ele>544.24</ele>
        <time>2021-07-18T09:19:14Z</time>
      </trkpt>
      <trkpt lat="45.41957" lon="5.53243">
        <ele>544.24</ele>
        <time>2021-07-18T09:19:15Z</time>
      </trkpt>
      <trkpt lat="45.4198" lon="5.53256">
        <ele>545.2</ele>
        <time>2021-07-18T09:19:33Z</time>
      </trkpt>
      <trkpt lat="45.42" lon="5.53265">
        <ele>546.17</ele>
        <time>2021-07-18T09:19:47Z</time>
      </trkpt>
      <trkpt lat="45.42001" lon="5.53266">
        <ele>546.17</ele>
        <time>2021-07-18T09:19:48Z</time>
      </trkpt>
      <trkpt lat="45.42003" lon="5.53267">
        <ele>546.17</ele>
        <time>2021-07-18T09:19:49Z</time>
      </trkpt>
      <trkpt lat="45.42026" lon="5.53279">
        <ele>549.05</ele>
        <time>2021-07-18T09:20:08Z</time>
      </trkpt>
      <trkpt lat="45.42027" lon="5.53281">
        <ele>549.05</ele>
        <time>2021-07-18T09:20:09Z</time>
      </trkpt>
      <trkpt lat="45.42041" lon="5.53299">
        <ele>550.97</ele>
        <time>2021-07-18T09:20:24Z</time>
      </trkpt>
      <trkpt lat="45.4204" lon="5.53339">
        <ele>551.45</ele>
        <time>2021-07-18T09:20:40Z</time>
      </trkpt>
      <trkpt lat="45.42035" lon="5.53392">
        <ele>552.41</ele>
        <time>2021-07-18T09:20:57Z</time>
      </trkpt>
      <trkpt lat="45.42055" lon="5.53431">
        <ele>553.86</ele>
        <time>2021-07-18T09:21:13Z</time>
      </trkpt>
      <trkpt lat="45.42081" lon="5.53457">
        <ele>554.34</ele>
        <time>2021-07-18T09:21:28Z</time>
      </trkpt>
      <trkpt lat="45.42105" lon="5.53491">
        <ele>555.78</ele>
        <time>2021-07-18T09:21:44Z</time>
      </trkpt>
      <trkpt lat="45.42141" lon="5.53509">
        <ele>557.7</ele>
        <time>2021-07-18T09:22:02Z</time>
      </trkpt>
      <trkpt lat="45.42159" lon="5.53515">
        <ele>557.7</ele>
        <time>2021-07-18T09:22:11Z</time>
      </trkpt>
      <trkpt lat="45.42164" lon="5.53515">
        <ele>558.66</ele>
        <time>2021-07-18T09:22:14Z</time>
      </trkpt>
      <trkpt lat="45.42166" lon="5.53517">
        <ele>558.66</ele>
        <time>2021-07-18T09:22:15Z</time>
      </trkpt>
      <trkpt lat="45.42167" lon="5.53519">
        <ele>558.66</ele>
        <time>2021-07-18T09:22:16Z</time>
      </trkpt>
      <trkpt lat="45.42168" lon="5.53521">
        <ele>559.14</ele>
        <time>2021-07-18T09:22:17Z</time>
      </trkpt>
      <trkpt lat="45.42168" lon="5.53523">
        <ele>559.14</ele>
        <time>2021-07-18T09:22:18Z</time>
      </trkpt>
      <trkpt lat="45.42168" lon="5.53526">
        <ele>559.14</ele>
        <time>2021-07-18T09:22:19Z</time>
      </trkpt>
      <trkpt lat="45.42168" lon="5.53529">
        <ele>559.14</ele>
        <time>2021-07-18T09:22:20Z</time>
      </trkpt>
      <trkpt lat="45.42166" lon="5.53567">
        <ele>560.59</ele>
        <time>2021-07-18T09:22:35Z</time>
      </trkpt>
      <trkpt lat="45.42166" lon="5.5359">
        <ele>561.55</ele>
        <time>2021-07-18T09:22:44Z</time>
      </trkpt>
      <trkpt lat="45.42166" lon="5.53592">
        <ele>561.55</ele>
        <time>2021-07-18T09:22:45Z</time>
      </trkpt>
      <trkpt lat="45.42167" lon="5.53594">
        <ele>561.55</ele>
        <time>2021-07-18T09:22:46Z</time>
      </trkpt>
      <trkpt lat="45.42168" lon="5.53597">
        <ele>562.03</ele>
        <time>2021-07-18T09:22:47Z</time>
      </trkpt>
      <trkpt lat="45.42168" lon="5.536">
        <ele>562.03</ele>
        <time>2021-07-18T09:22:48Z</time>
      </trkpt>
      <trkpt lat="45.42169" lon="5.53602">
        <ele>562.03</ele>
        <time>2021-07-18T09:22:49Z</time>
      </trkpt>
      <trkpt lat="45.4217" lon="5.53604">
        <ele>562.03</ele>
        <time>2021-07-18T09:22:50Z</time>
      </trkpt>
      <trkpt lat="45.42186" lon="5.53647">
        <ele>563.47</ele>
        <time>2021-07-18T09:23:08Z</time>
      </trkpt>
      <trkpt lat="45.42201" lon="5.53693">
        <ele>564.43</ele>
        <time>2021-07-18T09:23:26Z</time>
      </trkpt>
      <trkpt lat="45.42216" lon="5.53734">
        <ele>564.43</ele>
        <time>2021-07-18T09:23:43Z</time>
      </trkpt>
      <trkpt lat="45.42222" lon="5.53766">
        <ele>562.99</ele>
        <time>2021-07-18T09:23:50Z</time>
      </trkpt>
      <trkpt lat="45.42221" lon="5.53773">
        <ele>562.99</ele>
        <time>2021-07-18T09:23:51Z</time>
      </trkpt>
      <trkpt lat="45.4222" lon="5.5378">
        <ele>562.51</ele>
        <time>2021-07-18T09:23:52Z</time>
      </trkpt>
      <trkpt lat="45.42219" lon="5.53788">
        <ele>562.03</ele>
        <time>2021-07-18T09:23:53Z</time>
      </trkpt>
      <trkpt lat="45.42217" lon="5.53796">
        <ele>561.55</ele>
        <time>2021-07-18T09:23:54Z</time>
      </trkpt>
      <trkpt lat="45.42191" lon="5.53868">
        <ele>562.51</ele>
        <time>2021-07-18T09:24:06Z</time>
      </trkpt>
      <trkpt lat="45.42186" lon="5.53908">
        <ele>563.47</ele>
        <time>2021-07-18T09:24:19Z</time>
      </trkpt>
      <trkpt lat="45.42182" lon="5.53956">
        <ele>565.87</ele>
        <time>2021-07-18T09:24:36Z</time>
      </trkpt>
      <trkpt lat="45.422" lon="5.5397">
        <ele>566.83</ele>
        <time>2021-07-18T09:24:48Z</time>
      </trkpt>
      <trkpt lat="45.42233" lon="5.5395">
        <ele>567.8</ele>
        <time>2021-07-18T09:25:04Z</time>
      </trkpt>
      <trkpt lat="45.42255" lon="5.53971">
        <ele>569.24</ele>
        <time>2021-07-18T09:25:18Z</time>
      </trkpt>
      <trkpt lat="45.42272" lon="5.54012">
        <ele>571.16</ele>
        <time>2021-07-18T09:25:36Z</time>
      </trkpt>
      <trkpt lat="45.4229" lon="5.54048">
        <ele>573.08</ele>
        <time>2021-07-18T09:25:53Z</time>
      </trkpt>
      <trkpt lat="45.42295" lon="5.54058">
        <ele>573.56</ele>
        <time>2021-07-18T09:25:58Z</time>
      </trkpt>
      <trkpt lat="45.42295" lon="5.54059">
        <ele>573.56</ele>
        <time>2021-07-18T09:25:59Z</time>
      </trkpt>
      <trkpt lat="45.42296" lon="5.54062">
        <ele>573.56</ele>
        <time>2021-07-18T09:26:00Z</time>
      </trkpt>
      <trkpt lat="45.42297" lon="5.54064">
        <ele>574.04</ele>
        <time>2021-07-18T09:26:01Z</time>
      </trkpt>
      <trkpt lat="45.42298" lon="5.54066">
        <ele>574.04</ele>
        <time>2021-07-18T09:26:02Z</time>
      </trkpt>
      <trkpt lat="45.4231" lon="5.54091">
        <ele>575.49</ele>
        <time>2021-07-18T09:26:15Z</time>
      </trkpt>
      <trkpt lat="45.42317" lon="5.54106">
        <ele>575.97</ele>
        <time>2021-07-18T09:26:22Z</time>
      </trkpt>
      <trkpt lat="45.42332" lon="5.54131">
        <ele>577.41</ele>
        <time>2021-07-18T09:26:36Z</time>
      </trkpt>
      <trkpt lat="45.42347" lon="5.54154">
        <ele>578.37</ele>
        <time>2021-07-18T09:26:50Z</time>
      </trkpt>
      <trkpt lat="45.42367" lon="5.54179">
        <ele>579.33</ele>
        <time>2021-07-18T09:27:04Z</time>
      </trkpt>
      <trkpt lat="45.42389" lon="5.5421">
        <ele>581.25</ele>
        <time>2021-07-18T09:27:22Z</time>
      </trkpt>
      <trkpt lat="45.42407" lon="5.5423">
        <ele>582.22</ele>
        <time>2021-07-18T09:27:36Z</time>
      </trkpt>
      <trkpt lat="45.42432" lon="5.54251">
        <ele>584.14</ele>
        <time>2021-07-18T09:27:53Z</time>
      </trkpt>
      <trkpt lat="45.42456" lon="5.54268">
        <ele>585.1</ele>
        <time>2021-07-18T09:28:08Z</time>
      </trkpt>
      <trkpt lat="45.42479" lon="5.5429">
        <ele>586.06</ele>
        <time>2021-07-18T09:28:23Z</time>
      </trkpt>
      <trkpt lat="45.42503" lon="5.54312">
        <ele>587.5</ele>
        <time>2021-07-18T09:28:38Z</time>
      </trkpt>
      <trkpt lat="45.42529" lon="5.54332">
        <ele>589.43</ele>
        <time>2021-07-18T09:28:56Z</time>
      </trkpt>
      <trkpt lat="45.4255" lon="5.54337">
        <ele>590.87</ele>
        <time>2021-07-18T09:29:12Z</time>
      </trkpt>
      <trkpt lat="45.42554" lon="5.54337">
        <ele>590.87</ele>
        <time>2021-07-18T09:29:15Z</time>
      </trkpt>
      <trkpt lat="45.42556" lon="5.54337">
        <ele>590.87</ele>
        <time>2021-07-18T09:29:16Z</time>
      </trkpt>
      <trkpt lat="45.42572" lon="5.54338">
        <ele>592.31</ele>
        <time>2021-07-18T09:29:29Z</time>
      </trkpt>
      <trkpt lat="45.42583" lon="5.5434">
        <ele>593.27</ele>
        <time>2021-07-18T09:29:40Z</time>
      </trkpt>
      <trkpt lat="45.426" lon="5.54347">
        <ele>594.71</ele>
        <time>2021-07-18T09:29:54Z</time>
      </trkpt>
      <trkpt lat="45.42601" lon="5.54347">
        <ele>595.19</ele>
        <time>2021-07-18T09:29:55Z</time>
      </trkpt>
      <trkpt lat="45.42603" lon="5.54348">
        <ele>595.19</ele>
        <time>2021-07-18T09:29:56Z</time>
      </trkpt>
      <trkpt lat="45.42604" lon="5.54349">
        <ele>595.19</ele>
        <time>2021-07-18T09:29:57Z</time>
      </trkpt>
      <trkpt lat="45.42605" lon="5.54349">
        <ele>595.19</ele>
        <time>2021-07-18T09:29:58Z</time>
      </trkpt>
      <trkpt lat="45.42607" lon="5.5435">
        <ele>595.67</ele>
        <time>2021-07-18T09:29:59Z</time>
      </trkpt>
      <trkpt lat="45.42608" lon="5.54351">
        <ele>595.67</ele>
        <time>2021-07-18T09:30:00Z</time>
      </trkpt>
      <trkpt lat="45.42609" lon="5.54351">
        <ele>595.67</ele>
        <time>2021-07-18T09:30:01Z</time>
      </trkpt>
      <trkpt lat="45.42624" lon="5.54358">
        <ele>597.12</ele>
        <time>2021-07-18T09:30:15Z</time>
      </trkpt>
      <trkpt lat="45.4264" lon="5.54369">
        <ele>598.56</ele>
        <time>2021-07-18T09:30:29Z</time>
      </trkpt>
      <trkpt lat="45.42662" lon="5.54379">
        <ele>600.48</ele>
        <time>2021-07-18T09:30:46Z</time>
      </trkpt>
      <trkpt lat="45.42681" lon="5.54384">
        <ele>601.92</ele>
        <time>2021-07-18T09:31:01Z</time>
      </trkpt>
      <trkpt lat="45.42703" lon="5.54391">
        <ele>603.85</ele>
        <time>2021-07-18T09:31:19Z</time>
      </trkpt>
      <trkpt lat="45.42725" lon="5.54397">
        <ele>606.25</ele>
        <time>2021-07-18T09:31:38Z</time>
      </trkpt>
      <trkpt lat="45.42739" lon="5.54399">
        <ele>607.69</ele>
        <time>2021-07-18T09:31:50Z</time>
      </trkpt>
      <trkpt lat="45.4274" lon="5.54399">
        <ele>607.69</ele>
        <time>2021-07-18T09:31:51Z</time>
      </trkpt>
      <trkpt lat="45.42758" lon="5.54402">
        <ele>609.61</ele>
        <time>2021-07-18T09:32:07Z</time>
      </trkpt>
      <trkpt lat="45.42764" lon="5.54403">
        <ele>611.06</ele>
        <time>2021-07-18T09:32:13Z</time>
      </trkpt>
      <trkpt lat="45.4277" lon="5.54403">
        <ele>611.06</ele>
        <time>2021-07-18T09:32:19Z</time>
      </trkpt>
      <trkpt lat="45.42784" lon="5.54403">
        <ele>612.5</ele>
        <time>2021-07-18T09:32:33Z</time>
      </trkpt>
      <trkpt lat="45.42802" lon="5.54406">
        <ele>614.42</ele>
        <time>2021-07-18T09:32:49Z</time>
      </trkpt>
      <trkpt lat="45.42819" lon="5.54412">
        <ele>615.86</ele>
        <time>2021-07-18T09:33:06Z</time>
      </trkpt>
      <trkpt lat="45.42836" lon="5.54415">
        <ele>617.78</ele>
        <time>2021-07-18T09:33:22Z</time>
      </trkpt>
      <trkpt lat="45.42855" lon="5.54417">
        <ele>620.19</ele>
        <time>2021-07-18T09:33:38Z</time>
      </trkpt>
      <trkpt lat="45.42877" lon="5.54407">
        <ele>622.11</ele>
        <time>2021-07-18T09:33:56Z</time>
      </trkpt>
      <trkpt lat="45.42891" lon="5.54392">
        <ele>624.51</ele>
        <time>2021-07-18T09:34:13Z</time>
      </trkpt>
      <trkpt lat="45.42905" lon="5.54378">
        <ele>625.96</ele>
        <time>2021-07-18T09:34:29Z</time>
      </trkpt>
      <trkpt lat="45.42915" lon="5.54377">
        <ele>627.4</ele>
        <time>2021-07-18T09:34:38Z</time>
      </trkpt>
      <trkpt lat="45.42916" lon="5.54377">
        <ele>627.88</ele>
        <time>2021-07-18T09:34:39Z</time>
      </trkpt>
      <trkpt lat="45.42919" lon="5.54376">
        <ele>627.88</ele>
        <time>2021-07-18T09:34:41Z</time>
      </trkpt>
      <trkpt lat="45.4292" lon="5.54376">
        <ele>627.88</ele>
        <time>2021-07-18T09:34:42Z</time>
      </trkpt>
      <trkpt lat="45.42921" lon="5.54376">
        <ele>628.36</ele>
        <time>2021-07-18T09:34:43Z</time>
      </trkpt>
      <trkpt lat="45.42923" lon="5.54375">
        <ele>627.88</ele>
        <time>2021-07-18T09:34:44Z</time>
      </trkpt>
      <trkpt lat="45.42937" lon="5.54374">
        <ele>629.32</ele>
        <time>2021-07-18T09:34:57Z</time>
      </trkpt>
      <trkpt lat="45.42954" lon="5.54372">
        <ele>631.72</ele>
        <time>2021-07-18T09:35:13Z</time>
      </trkpt>
      <trkpt lat="45.42972" lon="5.54369">
        <ele>634.13</ele>
        <time>2021-07-18T09:35:29Z</time>
      </trkpt>
      <trkpt lat="45.42989" lon="5.54367">
        <ele>634.61</ele>
        <time>2021-07-18T09:35:44Z</time>
      </trkpt>
      <trkpt lat="45.43006" lon="5.54365">
        <ele>636.53</ele>
        <time>2021-07-18T09:35:59Z</time>
      </trkpt>
      <trkpt lat="45.43011" lon="5.54364">
        <ele>636.53</ele>
        <time>2021-07-18T09:36:03Z</time>
      </trkpt>
      <trkpt lat="45.43012" lon="5.54363">
        <ele>636.53</ele>
        <time>2021-07-18T09:36:04Z</time>
      </trkpt>
      <trkpt lat="45.43026" lon="5.54358">
        <ele>637.97</ele>
        <time>2021-07-18T09:36:18Z</time>
      </trkpt>
      <trkpt lat="45.43045" lon="5.54349">
        <ele>639.89</ele>
        <time>2021-07-18T09:36:34Z</time>
      </trkpt>
      <trkpt lat="45.43064" lon="5.54338">
        <ele>641.34</ele>
        <time>2021-07-18T09:36:51Z</time>
      </trkpt>
      <trkpt lat="45.43085" lon="5.54327">
        <ele>642.78</ele>
        <time>2021-07-18T09:37:07Z</time>
      </trkpt>
      <trkpt lat="45.43115" lon="5.54306">
        <ele>642.78</ele>
        <time>2021-07-18T09:37:22Z</time>
      </trkpt>
      <trkpt lat="45.43135" lon="5.54288">
        <ele>643.74</ele>
        <time>2021-07-18T09:37:36Z</time>
      </trkpt>
      <trkpt lat="45.43143" lon="5.5428">
        <ele>644.22</ele>
        <time>2021-07-18T09:37:42Z</time>
      </trkpt>
      <trkpt lat="45.43144" lon="5.54279">
        <ele>644.22</ele>
        <time>2021-07-18T09:37:43Z</time>
      </trkpt>
      <trkpt lat="45.43162" lon="5.54264">
        <ele>645.66</ele>
        <time>2021-07-18T09:37:57Z</time>
      </trkpt>
      <trkpt lat="45.43182" lon="5.54251">
        <ele>647.1</ele>
        <time>2021-07-18T09:38:14Z</time>
      </trkpt>
      <trkpt lat="45.43196" lon="5.54239">
        <ele>648.07</ele>
        <time>2021-07-18T09:38:27Z</time>
      </trkpt>
      <trkpt lat="45.43211" lon="5.54229">
        <ele>649.99</ele>
        <time>2021-07-18T09:38:42Z</time>
      </trkpt>
      <trkpt lat="45.43224" lon="5.54216">
        <ele>650.95</ele>
        <time>2021-07-18T09:38:56Z</time>
      </trkpt>
      <trkpt lat="45.43238" lon="5.54198">
        <ele>652.87</ele>
        <time>2021-07-18T09:39:11Z</time>
      </trkpt>
      <trkpt lat="45.43247" lon="5.54189">
        <ele>653.83</ele>
        <time>2021-07-18T09:39:24Z</time>
      </trkpt>
      <trkpt lat="45.43254" lon="5.54183">
        <ele>654.8</ele>
        <time>2021-07-18T09:39:33Z</time>
      </trkpt>
      <trkpt lat="45.43261" lon="5.54175">
        <ele>655.76</ele>
        <time>2021-07-18T09:39:41Z</time>
      </trkpt>
      <trkpt lat="45.43262" lon="5.54173">
        <ele>656.24</ele>
        <time>2021-07-18T09:39:42Z</time>
      </trkpt>
      <trkpt lat="45.43272" lon="5.54164">
        <ele>657.68</ele>
        <time>2021-07-18T09:39:54Z</time>
      </trkpt>
      <trkpt lat="45.43286" lon="5.54157">
        <ele>659.12</ele>
        <time>2021-07-18T09:40:08Z</time>
      </trkpt>
      <trkpt lat="45.43298" lon="5.5415">
        <ele>660.56</ele>
        <time>2021-07-18T09:40:20Z</time>
      </trkpt>
      <trkpt lat="45.43311" lon="5.54143">
        <ele>662.49</ele>
        <time>2021-07-18T09:40:33Z</time>
      </trkpt>
      <trkpt lat="45.43325" lon="5.54138">
        <ele>664.41</ele>
        <time>2021-07-18T09:40:47Z</time>
      </trkpt>
      <trkpt lat="45.43334" lon="5.54133">
        <ele>665.37</ele>
        <time>2021-07-18T09:40:59Z</time>
      </trkpt>
      <trkpt lat="45.43336" lon="5.54131">
        <ele>665.37</ele>
        <time>2021-07-18T09:41:25Z</time>
      </trkpt>
      <trkpt lat="45.43337" lon="5.54132">
        <ele>665.37</ele>
        <time>2021-07-18T09:41:45Z</time>
      </trkpt>
      <trkpt lat="45.43336" lon="5.54135">
        <ele>665.37</ele>
        <time>2021-07-18T09:42:12Z</time>
      </trkpt>
      <trkpt lat="45.43341" lon="5.54134">
        <ele>665.85</ele>
        <time>2021-07-18T09:42:31Z</time>
      </trkpt>
      <trkpt lat="45.43353" lon="5.54129">
        <ele>668.25</ele>
        <time>2021-07-18T09:42:45Z</time>
      </trkpt>
      <trkpt lat="45.43368" lon="5.54128">
        <ele>670.18</ele>
        <time>2021-07-18T09:43:00Z</time>
      </trkpt>
      <trkpt lat="45.43381" lon="5.5413">
        <ele>672.1</ele>
        <time>2021-07-18T09:43:15Z</time>
      </trkpt>
      <trkpt lat="45.43389" lon="5.54133">
        <ele>672.58</ele>
        <time>2021-07-18T09:43:28Z</time>
      </trkpt>
      <trkpt lat="45.43398" lon="5.54135">
        <ele>674.02</ele>
        <time>2021-07-18T09:43:36Z</time>
      </trkpt>
      <trkpt lat="45.43399" lon="5.54136">
        <ele>674.02</ele>
        <time>2021-07-18T09:43:37Z</time>
      </trkpt>
      <trkpt lat="45.43415" lon="5.54146">
        <ele>676.42</ele>
        <time>2021-07-18T09:43:52Z</time>
      </trkpt>
      <trkpt lat="45.43418" lon="5.5415">
        <ele>677.39</ele>
        <time>2021-07-18T09:43:56Z</time>
      </trkpt>
      <trkpt lat="45.4342" lon="5.5415">
        <ele>677.39</ele>
        <time>2021-07-18T09:43:57Z</time>
      </trkpt>
      <trkpt lat="45.43435" lon="5.54154">
        <ele>679.31</ele>
        <time>2021-07-18T09:44:11Z</time>
      </trkpt>
      <trkpt lat="45.43453" lon="5.54162">
        <ele>681.71</ele>
        <time>2021-07-18T09:44:26Z</time>
      </trkpt>
      <trkpt lat="45.43458" lon="5.54161">
        <ele>682.67</ele>
        <time>2021-07-18T09:44:31Z</time>
      </trkpt>
      <trkpt lat="45.43461" lon="5.54163">
        <ele>683.15</ele>
        <time>2021-07-18T09:44:34Z</time>
      </trkpt>
      <trkpt lat="45.43472" lon="5.54168">
        <ele>685.08</ele>
        <time>2021-07-18T09:44:44Z</time>
      </trkpt>
      <trkpt lat="45.43485" lon="5.5417">
        <ele>687</ele>
        <time>2021-07-18T09:44:57Z</time>
      </trkpt>
      <trkpt lat="45.43499" lon="5.54172">
        <ele>688.92</ele>
        <time>2021-07-18T09:45:11Z</time>
      </trkpt>
      <trkpt lat="45.43504" lon="5.54173">
        <ele>689.88</ele>
        <time>2021-07-18T09:45:15Z</time>
      </trkpt>
      <trkpt lat="45.43517" lon="5.54175">
        <ele>691.81</ele>
        <time>2021-07-18T09:45:28Z</time>
      </trkpt>
      <trkpt lat="45.43519" lon="5.54175">
        <ele>692.29</ele>
        <time>2021-07-18T09:45:47Z</time>
      </trkpt>
      <trkpt lat="45.43522" lon="5.54174">
        <ele>692.29</ele>
        <time>2021-07-18T09:46:10Z</time>
      </trkpt>
      <trkpt lat="45.43522" lon="5.54175">
        <ele>692.29</ele>
        <time>2021-07-18T09:46:41Z</time>
      </trkpt>
      <trkpt lat="45.43519" lon="5.54172">
        <ele>692.77</ele>
        <time>2021-07-18T09:47:18Z</time>
      </trkpt>
      <trkpt lat="45.43517" lon="5.54173">
        <ele>692.77</ele>
        <time>2021-07-18T09:47:46Z</time>
      </trkpt>
      <trkpt lat="45.43515" lon="5.54175">
        <ele>692.77</ele>
        <time>2021-07-18T09:48:18Z</time>
      </trkpt>
      <trkpt lat="45.43516" lon="5.54174">
        <ele>693.25</ele>
        <time>2021-07-18T09:48:48Z</time>
      </trkpt>
      <trkpt lat="45.43519" lon="5.54163">
        <ele>693.25</ele>
        <time>2021-07-18T09:49:26Z</time>
      </trkpt>
      <trkpt lat="45.43524" lon="5.54169">
        <ele>693.25</ele>
        <time>2021-07-18T09:49:55Z</time>
      </trkpt>
      <trkpt lat="45.43523" lon="5.54175">
        <ele>693.25</ele>
        <time>2021-07-18T09:50:10Z</time>
      </trkpt>
      <trkpt lat="45.43521" lon="5.54173">
        <ele>692.77</ele>
        <time>2021-07-18T09:50:42Z</time>
      </trkpt>
      <trkpt lat="45.43524" lon="5.54173">
        <ele>692.77</ele>
        <time>2021-07-18T09:51:06Z</time>
      </trkpt>
      <trkpt lat="45.43529" lon="5.54172">
        <ele>693.25</ele>
        <time>2021-07-18T09:51:19Z</time>
      </trkpt>
      <trkpt lat="45.43537" lon="5.54181">
        <ele>693.73</ele>
        <time>2021-07-18T09:51:33Z</time>
      </trkpt>
      <trkpt lat="45.43554" lon="5.54191">
        <ele>695.17</ele>
        <time>2021-07-18T09:51:48Z</time>
      </trkpt>
      <trkpt lat="45.43575" lon="5.54204">
        <ele>697.09</ele>
        <time>2021-07-18T09:52:04Z</time>
      </trkpt>
      <trkpt lat="45.43598" lon="5.54216">
        <ele>699.02</ele>
        <time>2021-07-18T09:52:21Z</time>
      </trkpt>
      <trkpt lat="45.43618" lon="5.54227">
        <ele>700.94</ele>
        <time>2021-07-18T09:52:38Z</time>
      </trkpt>
      <trkpt lat="45.43635" lon="5.54238">
        <ele>701.9</ele>
        <time>2021-07-18T09:52:50Z</time>
      </trkpt>
      <trkpt lat="45.43654" lon="5.54238">
        <ele>701.9</ele>
        <time>2021-07-18T09:53:01Z</time>
      </trkpt>
      <trkpt lat="45.43685" lon="5.54238">
        <ele>701.9</ele>
        <time>2021-07-18T09:53:16Z</time>
      </trkpt>
      <trkpt lat="45.43728" lon="5.54238">
        <ele>703.34</ele>
        <time>2021-07-18T09:53:35Z</time>
      </trkpt>
      <trkpt lat="45.43768" lon="5.54236">
        <ele>705.75</ele>
        <time>2021-07-18T09:53:56Z</time>
      </trkpt>
      <trkpt lat="45.43791" lon="5.5423">
        <ele>707.67</ele>
        <time>2021-07-18T09:54:12Z</time>
      </trkpt>
      <trkpt lat="45.43811" lon="5.54215">
        <ele>710.07</ele>
        <time>2021-07-18T09:54:28Z</time>
      </trkpt>
      <trkpt lat="45.43826" lon="5.54197">
        <ele>711.51</ele>
        <time>2021-07-18T09:54:44Z</time>
      </trkpt>
      <trkpt lat="45.43844" lon="5.54172">
        <ele>714.88</ele>
        <time>2021-07-18T09:55:02Z</time>
      </trkpt>
      <trkpt lat="45.43866" lon="5.54155">
        <ele>716.32</ele>
        <time>2021-07-18T09:55:17Z</time>
      </trkpt>
      <trkpt lat="45.43894" lon="5.54133">
        <ele>717.76</ele>
        <time>2021-07-18T09:55:34Z</time>
      </trkpt>
      <trkpt lat="45.43913" lon="5.54125">
        <ele>718.72</ele>
        <time>2021-07-18T09:55:48Z</time>
      </trkpt>
      <trkpt lat="45.43917" lon="5.54125">
        <ele>718.72</ele>
        <time>2021-07-18T09:55:52Z</time>
      </trkpt>
      <trkpt lat="45.43918" lon="5.54125">
        <ele>718.72</ele>
        <time>2021-07-18T09:55:53Z</time>
      </trkpt>
      <trkpt lat="45.4392" lon="5.54125">
        <ele>718.72</ele>
        <time>2021-07-18T09:55:54Z</time>
      </trkpt>
      <trkpt lat="45.43921" lon="5.54125">
        <ele>718.72</ele>
        <time>2021-07-18T09:55:55Z</time>
      </trkpt>
      <trkpt lat="45.43921" lon="5.54123">
        <ele>718.72</ele>
        <time>2021-07-18T09:56:07Z</time>
      </trkpt>
      <trkpt lat="45.43919" lon="5.54122">
        <ele>719.2</ele>
        <time>2021-07-18T09:56:31Z</time>
      </trkpt>
      <trkpt lat="45.43924" lon="5.54122">
        <ele>719.68</ele>
        <time>2021-07-18T09:56:52Z</time>
      </trkpt>
      <trkpt lat="45.43924" lon="5.54124">
        <ele>719.68</ele>
        <time>2021-07-18T09:57:15Z</time>
      </trkpt>
      <trkpt lat="45.43922" lon="5.54123">
        <ele>719.68</ele>
        <time>2021-07-18T09:57:35Z</time>
      </trkpt>
      <trkpt lat="45.4392" lon="5.54121">
        <ele>720.16</ele>
        <time>2021-07-18T09:58:01Z</time>
      </trkpt>
      <trkpt lat="45.43918" lon="5.54122">
        <ele>720.16</ele>
        <time>2021-07-18T09:58:32Z</time>
      </trkpt>
      <trkpt lat="45.43919" lon="5.54124">
        <ele>720.16</ele>
        <time>2021-07-18T09:59:01Z</time>
      </trkpt>
      <trkpt lat="45.4392" lon="5.54125">
        <ele>720.65</ele>
        <time>2021-07-18T09:59:24Z</time>
      </trkpt>
      <trkpt lat="45.43912" lon="5.54128">
        <ele>721.13</ele>
        <time>2021-07-18T09:59:39Z</time>
      </trkpt>
      <trkpt lat="45.43917" lon="5.54133">
        <ele>721.13</ele>
        <time>2021-07-18T09:59:45Z</time>
      </trkpt>
      <trkpt lat="45.43921" lon="5.54138">
        <ele>721.61</ele>
        <time>2021-07-18T09:59:50Z</time>
      </trkpt>
      <trkpt lat="45.43923" lon="5.54141">
        <ele>722.57</ele>
        <time>2021-07-18T10:00:03Z</time>
      </trkpt>
      <trkpt lat="45.43921" lon="5.54145">
        <ele>722.57</ele>
        <time>2021-07-18T10:00:22Z</time>
      </trkpt>
      <trkpt lat="45.43921" lon="5.54147">
        <ele>722.57</ele>
        <time>2021-07-18T10:00:25Z</time>
      </trkpt>
      <trkpt lat="45.43921" lon="5.5415">
        <ele>722.57</ele>
        <time>2021-07-18T10:00:27Z</time>
      </trkpt>
      <trkpt lat="45.4392" lon="5.54162">
        <ele>724.01</ele>
        <time>2021-07-18T10:00:34Z</time>
      </trkpt>
      <trkpt lat="45.4392" lon="5.54164">
        <ele>724.01</ele>
        <time>2021-07-18T10:00:35Z</time>
      </trkpt>
      <trkpt lat="45.4392" lon="5.54166">
        <ele>724.01</ele>
        <time>2021-07-18T10:00:36Z</time>
      </trkpt>
      <trkpt lat="45.43918" lon="5.54202">
        <ele>725.45</ele>
        <time>2021-07-18T10:00:52Z</time>
      </trkpt>
      <trkpt lat="45.43918" lon="5.54241">
        <ele>725.93</ele>
        <time>2021-07-18T10:01:07Z</time>
      </trkpt>
      <trkpt lat="45.43921" lon="5.54284">
        <ele>727.37</ele>
        <time>2021-07-18T10:01:23Z</time>
      </trkpt>
      <trkpt lat="45.43923" lon="5.54324">
        <ele>727.86</ele>
        <time>2021-07-18T10:01:37Z</time>
      </trkpt>
      <trkpt lat="45.43932" lon="5.54373">
        <ele>726.89</ele>
        <time>2021-07-18T10:01:52Z</time>
      </trkpt>
      <trkpt lat="45.43932" lon="5.54377">
        <ele>726.89</ele>
        <time>2021-07-18T10:01:53Z</time>
      </trkpt>
      <trkpt lat="45.43933" lon="5.54424">
        <ele>723.53</ele>
        <time>2021-07-18T10:02:04Z</time>
      </trkpt>
      <trkpt lat="45.43934" lon="5.5448">
        <ele>719.68</ele>
        <time>2021-07-18T10:02:16Z</time>
      </trkpt>
      <trkpt lat="45.43936" lon="5.54495">
        <ele>718.72</ele>
        <time>2021-07-18T10:02:19Z</time>
      </trkpt>
      <trkpt lat="45.43935" lon="5.54522">
        <ele>715.36</ele>
        <time>2021-07-18T10:02:24Z</time>
      </trkpt>
      <trkpt lat="45.4393" lon="5.54578">
        <ele>711.99</ele>
        <time>2021-07-18T10:02:34Z</time>
      </trkpt>
      <trkpt lat="45.43931" lon="5.54609">
        <ele>708.63</ele>
        <time>2021-07-18T10:02:40Z</time>
      </trkpt>
      <trkpt lat="45.43937" lon="5.54654">
        <ele>706.23</ele>
        <time>2021-07-18T10:02:47Z</time>
      </trkpt>
      <trkpt lat="45.43938" lon="5.54661">
        <ele>705.26</ele>
        <time>2021-07-18T10:02:48Z</time>
      </trkpt>
      <trkpt lat="45.43947" lon="5.54728">
        <ele>701.9</ele>
        <time>2021-07-18T10:02:56Z</time>
      </trkpt>
      <trkpt lat="45.43947" lon="5.54736">
        <ele>701.9</ele>
        <time>2021-07-18T10:02:57Z</time>
      </trkpt>
      <trkpt lat="45.43946" lon="5.54759">
        <ele>700.46</ele>
        <time>2021-07-18T10:03:00Z</time>
      </trkpt>
      <trkpt lat="45.43947" lon="5.54799">
        <ele>699.02</ele>
        <time>2021-07-18T10:03:06Z</time>
      </trkpt>
      <trkpt lat="45.43947" lon="5.54805">
        <ele>698.05</ele>
        <time>2021-07-18T10:03:07Z</time>
      </trkpt>
      <trkpt lat="45.43947" lon="5.54811">
        <ele>698.05</ele>
        <time>2021-07-18T10:03:08Z</time>
      </trkpt>
      <trkpt lat="45.43953" lon="5.54857">
        <ele>694.69</ele>
        <time>2021-07-18T10:03:17Z</time>
      </trkpt>
      <trkpt lat="45.43965" lon="5.54883">
        <ele>691.81</ele>
        <time>2021-07-18T10:03:24Z</time>
      </trkpt>
      <trkpt lat="45.43968" lon="5.54887">
        <ele>691.81</ele>
        <time>2021-07-18T10:03:25Z</time>
      </trkpt>
      <trkpt lat="45.43979" lon="5.54907">
        <ele>688.92</ele>
        <time>2021-07-18T10:03:30Z</time>
      </trkpt>
      <trkpt lat="45.4399" lon="5.54929">
        <ele>685.56</ele>
        <time>2021-07-18T10:03:35Z</time>
      </trkpt>
      <trkpt lat="45.44001" lon="5.54948">
        <ele>681.71</ele>
        <time>2021-07-18T10:03:41Z</time>
      </trkpt>
      <trkpt lat="45.44017" lon="5.54958">
        <ele>678.35</ele>
        <time>2021-07-18T10:03:46Z</time>
      </trkpt>
      <trkpt lat="45.44025" lon="5.54964">
        <ele>677.39</ele>
        <time>2021-07-18T10:03:49Z</time>
      </trkpt>
      <trkpt lat="45.44046" lon="5.54973">
        <ele>673.06</ele>
        <time>2021-07-18T10:03:56Z</time>
      </trkpt>
      <trkpt lat="45.44058" lon="5.5498">
        <ele>671.14</ele>
        <time>2021-07-18T10:04:00Z</time>
      </trkpt>
      <trkpt lat="45.44074" lon="5.54991">
        <ele>667.77</ele>
        <time>2021-07-18T10:04:05Z</time>
      </trkpt>
      <trkpt lat="45.44096" lon="5.55008">
        <ele>664.41</ele>
        <time>2021-07-18T10:04:11Z</time>
      </trkpt>
      <trkpt lat="45.44121" lon="5.55028">
        <ele>661.04</ele>
        <time>2021-07-18T10:04:17Z</time>
      </trkpt>
      <trkpt lat="45.44142" lon="5.55047">
        <ele>657.68</ele>
        <time>2021-07-18T10:04:23Z</time>
      </trkpt>
      <trkpt lat="45.44145" lon="5.5505">
        <ele>657.68</ele>
        <time>2021-07-18T10:04:24Z</time>
      </trkpt>
      <trkpt lat="45.44165" lon="5.55077">
        <ele>654.8</ele>
        <time>2021-07-18T10:04:30Z</time>
      </trkpt>
      <trkpt lat="45.44185" lon="5.55107">
        <ele>651.43</ele>
        <time>2021-07-18T10:04:38Z</time>
      </trkpt>
      <trkpt lat="45.44204" lon="5.55132">
        <ele>647.59</ele>
        <time>2021-07-18T10:04:50Z</time>
      </trkpt>
      <trkpt lat="45.44214" lon="5.55128">
        <ele>645.66</ele>
        <time>2021-07-18T10:04:53Z</time>
      </trkpt>
      <trkpt lat="45.44235" lon="5.55109">
        <ele>642.3</ele>
        <time>2021-07-18T10:04:57Z</time>
      </trkpt>
      <trkpt lat="45.44263" lon="5.55088">
        <ele>638.45</ele>
        <time>2021-07-18T10:05:01Z</time>
      </trkpt>
      <trkpt lat="45.44278" lon="5.55078">
        <ele>637.97</ele>
        <time>2021-07-18T10:05:03Z</time>
      </trkpt>
      <trkpt lat="45.44286" lon="5.55074">
        <ele>637.01</ele>
        <time>2021-07-18T10:05:04Z</time>
      </trkpt>
      <trkpt lat="45.44294" lon="5.55071">
        <ele>637.01</ele>
        <time>2021-07-18T10:05:05Z</time>
      </trkpt>
      <trkpt lat="45.44301" lon="5.5507">
        <ele>637.01</ele>
        <time>2021-07-18T10:05:06Z</time>
      </trkpt>
      <trkpt lat="45.44307" lon="5.55069">
        <ele>637.01</ele>
        <time>2021-07-18T10:05:07Z</time>
      </trkpt>
      <trkpt lat="45.44313" lon="5.55068">
        <ele>637.97</ele>
        <time>2021-07-18T10:05:08Z</time>
      </trkpt>
      <trkpt lat="45.44318" lon="5.55066">
        <ele>637.97</ele>
        <time>2021-07-18T10:05:09Z</time>
      </trkpt>
      <trkpt lat="45.44322" lon="5.55063">
        <ele>638.93</ele>
        <time>2021-07-18T10:05:10Z</time>
      </trkpt>
      <trkpt lat="45.44325" lon="5.5506">
        <ele>640.38</ele>
        <time>2021-07-18T10:05:11Z</time>
      </trkpt>
      <trkpt lat="45.44327" lon="5.55057">
        <ele>641.34</ele>
        <time>2021-07-18T10:05:12Z</time>
      </trkpt>
      <trkpt lat="45.44351" lon="5.55016">
        <ele>642.78</ele>
        <time>2021-07-18T10:05:27Z</time>
      </trkpt>
      <trkpt lat="45.44373" lon="5.55008">
        <ele>642.78</ele>
        <time>2021-07-18T10:05:33Z</time>
      </trkpt>
      <trkpt lat="45.44377" lon="5.55009">
        <ele>642.78</ele>
        <time>2021-07-18T10:05:34Z</time>
      </trkpt>
      <trkpt lat="45.44404" lon="5.55028">
        <ele>641.34</ele>
        <time>2021-07-18T10:05:42Z</time>
      </trkpt>
      <trkpt lat="45.44449" lon="5.55096">
        <ele>638.45</ele>
        <time>2021-07-18T10:05:55Z</time>
      </trkpt>
      <trkpt lat="45.44479" lon="5.55165">
        <ele>635.09</ele>
        <time>2021-07-18T10:06:05Z</time>
      </trkpt>
      <trkpt lat="45.44498" lon="5.55197">
        <ele>631.72</ele>
        <time>2021-07-18T10:06:10Z</time>
      </trkpt>
      <trkpt lat="45.44503" lon="5.55203">
        <ele>631.24</ele>
        <time>2021-07-18T10:06:11Z</time>
      </trkpt>
      <trkpt lat="45.44508" lon="5.55208">
        <ele>630.28</ele>
        <time>2021-07-18T10:06:12Z</time>
      </trkpt>
      <trkpt lat="45.44514" lon="5.55211">
        <ele>629.8</ele>
        <time>2021-07-18T10:06:13Z</time>
      </trkpt>
      <trkpt lat="45.4452" lon="5.55215">
        <ele>629.32</ele>
        <time>2021-07-18T10:06:14Z</time>
      </trkpt>
      <trkpt lat="45.44526" lon="5.55217">
        <ele>629.32</ele>
        <time>2021-07-18T10:06:15Z</time>
      </trkpt>
      <trkpt lat="45.44532" lon="5.55218">
        <ele>628.84</ele>
        <time>2021-07-18T10:06:16Z</time>
      </trkpt>
      <trkpt lat="45.44538" lon="5.55219">
        <ele>628.84</ele>
        <time>2021-07-18T10:06:17Z</time>
      </trkpt>
      <trkpt lat="45.44545" lon="5.55218">
        <ele>628.36</ele>
        <time>2021-07-18T10:06:18Z</time>
      </trkpt>
      <trkpt lat="45.44551" lon="5.55216">
        <ele>628.36</ele>
        <time>2021-07-18T10:06:19Z</time>
      </trkpt>
      <trkpt lat="45.44557" lon="5.55213">
        <ele>627.4</ele>
        <time>2021-07-18T10:06:20Z</time>
      </trkpt>
      <trkpt lat="45.44563" lon="5.55209">
        <ele>626.92</ele>
        <time>2021-07-18T10:06:21Z</time>
      </trkpt>
      <trkpt lat="45.44581" lon="5.55197">
        <ele>625.47</ele>
        <time>2021-07-18T10:06:24Z</time>
      </trkpt>
      <trkpt lat="45.44586" lon="5.55191">
        <ele>624.51</ele>
        <time>2021-07-18T10:06:25Z</time>
      </trkpt>
      <trkpt lat="45.44617" lon="5.55152">
        <ele>620.67</ele>
        <time>2021-07-18T10:06:31Z</time>
      </trkpt>
      <trkpt lat="45.44623" lon="5.55146">
        <ele>620.19</ele>
        <time>2021-07-18T10:06:32Z</time>
      </trkpt>
      <trkpt lat="45.4463" lon="5.55141">
        <ele>619.71</ele>
        <time>2021-07-18T10:06:33Z</time>
      </trkpt>
      <trkpt lat="45.44638" lon="5.55139">
        <ele>619.71</ele>
        <time>2021-07-18T10:06:34Z</time>
      </trkpt>
      <trkpt lat="45.44645" lon="5.55139">
        <ele>619.71</ele>
        <time>2021-07-18T10:06:35Z</time>
      </trkpt>
      <trkpt lat="45.44652" lon="5.55141">
        <ele>619.71</ele>
        <time>2021-07-18T10:06:36Z</time>
      </trkpt>
      <trkpt lat="45.44658" lon="5.55142">
        <ele>619.71</ele>
        <time>2021-07-18T10:06:37Z</time>
      </trkpt>
      <trkpt lat="45.44665" lon="5.55143">
        <ele>619.71</ele>
        <time>2021-07-18T10:06:38Z</time>
      </trkpt>
      <trkpt lat="45.4467" lon="5.55141">
        <ele>619.71</ele>
        <time>2021-07-18T10:06:39Z</time>
      </trkpt>
      <trkpt lat="45.44675" lon="5.55139">
        <ele>619.71</ele>
        <time>2021-07-18T10:06:40Z</time>
      </trkpt>
      <trkpt lat="45.44679" lon="5.55134">
        <ele>619.23</ele>
        <time>2021-07-18T10:06:41Z</time>
      </trkpt>
      <trkpt lat="45.44684" lon="5.55129">
        <ele>618.26</ele>
        <time>2021-07-18T10:06:42Z</time>
      </trkpt>
      <trkpt lat="45.44705" lon="5.5511">
        <ele>615.86</ele>
        <time>2021-07-18T10:06:46Z</time>
      </trkpt>
      <trkpt lat="45.44709" lon="5.55107">
        <ele>615.86</ele>
        <time>2021-07-18T10:06:47Z</time>
      </trkpt>
      <trkpt lat="45.44714" lon="5.55105">
        <ele>615.86</ele>
        <time>2021-07-18T10:06:48Z</time>
      </trkpt>
      <trkpt lat="45.44737" lon="5.55095">
        <ele>613.46</ele>
        <time>2021-07-18T10:06:58Z</time>
      </trkpt>
      <trkpt lat="45.44738" lon="5.55095">
        <ele>613.46</ele>
        <time>2021-07-18T10:07:45Z</time>
      </trkpt>
      <trkpt lat="45.44739" lon="5.55095">
        <ele>613.46</ele>
        <time>2021-07-18T10:08:13Z</time>
      </trkpt>
      <trkpt lat="45.44753" lon="5.55075">
        <ele>610.09</ele>
        <time>2021-07-18T10:08:23Z</time>
      </trkpt>
      <trkpt lat="45.4476" lon="5.55063">
        <ele>608.17</ele>
        <time>2021-07-18T10:08:34Z</time>
      </trkpt>
      <trkpt lat="45.44761" lon="5.55061">
        <ele>608.17</ele>
        <time>2021-07-18T10:08:35Z</time>
      </trkpt>
      <trkpt lat="45.44769" lon="5.5505">
        <ele>606.73</ele>
        <time>2021-07-18T10:08:48Z</time>
      </trkpt>
      <trkpt lat="45.44769" lon="5.55049">
        <ele>606.73</ele>
        <time>2021-07-18T10:09:19Z</time>
      </trkpt>
      <trkpt lat="45.44768" lon="5.55047">
        <ele>606.73</ele>
        <time>2021-07-18T10:09:39Z</time>
      </trkpt>
      <trkpt lat="45.44764" lon="5.5505">
        <ele>606.73</ele>
        <time>2021-07-18T10:09:53Z</time>
      </trkpt>
      <trkpt lat="45.44758" lon="5.55057">
        <ele>608.17</ele>
        <time>2021-07-18T10:09:59Z</time>
      </trkpt>
      <trkpt lat="45.44744" lon="5.5508">
        <ele>611.06</ele>
        <time>2021-07-18T10:10:16Z</time>
      </trkpt>
      <trkpt lat="45.44743" lon="5.55081">
        <ele>611.06</ele>
        <time>2021-07-18T10:10:17Z</time>
      </trkpt>
      <trkpt lat="45.44741" lon="5.55082">
        <ele>611.54</ele>
        <time>2021-07-18T10:10:18Z</time>
      </trkpt>
      <trkpt lat="45.44724" lon="5.55097">
        <ele>613.94</ele>
        <time>2021-07-18T10:10:33Z</time>
      </trkpt>
      <trkpt lat="45.44701" lon="5.55109">
        <ele>616.82</ele>
        <time>2021-07-18T10:10:50Z</time>
      </trkpt>
      <trkpt lat="45.44676" lon="5.55133">
        <ele>619.23</ele>
        <time>2021-07-18T10:11:08Z</time>
      </trkpt>
      <trkpt lat="45.44665" lon="5.55147">
        <ele>620.19</ele>
        <time>2021-07-18T10:11:23Z</time>
      </trkpt>
      <trkpt lat="45.44664" lon="5.55148">
        <ele>619.71</ele>
        <time>2021-07-18T10:11:33Z</time>
      </trkpt>
      <trkpt lat="45.44667" lon="5.55143">
        <ele>619.71</ele>
        <time>2021-07-18T10:11:42Z</time>
      </trkpt>
      <trkpt lat="45.44669" lon="5.55143">
        <ele>619.71</ele>
        <time>2021-07-18T10:11:43Z</time>
      </trkpt>
      <trkpt lat="45.4467" lon="5.55142">
        <ele>619.71</ele>
        <time>2021-07-18T10:11:44Z</time>
      </trkpt>
      <trkpt lat="45.44672" lon="5.55141">
        <ele>619.71</ele>
        <time>2021-07-18T10:11:45Z</time>
      </trkpt>
      <trkpt lat="45.44674" lon="5.55139">
        <ele>619.71</ele>
        <time>2021-07-18T10:11:46Z</time>
      </trkpt>
      <trkpt lat="45.44701" lon="5.55113">
        <ele>616.82</ele>
        <time>2021-07-18T10:11:55Z</time>
      </trkpt>
      <trkpt lat="45.44709" lon="5.55108">
        <ele>616.34</ele>
        <time>2021-07-18T10:11:57Z</time>
      </trkpt>
      <trkpt lat="45.44713" lon="5.55106">
        <ele>616.34</ele>
        <time>2021-07-18T10:11:58Z</time>
      </trkpt>
      <trkpt lat="45.44732" lon="5.55098">
        <ele>613.94</ele>
        <time>2021-07-18T10:12:03Z</time>
      </trkpt>
      <trkpt lat="45.44736" lon="5.55095">
        <ele>613.46</ele>
        <time>2021-07-18T10:12:04Z</time>
      </trkpt>
      <trkpt lat="45.44739" lon="5.55092">
        <ele>612.98</ele>
        <time>2021-07-18T10:12:05Z</time>
      </trkpt>
      <trkpt lat="45.44743" lon="5.55087">
        <ele>612.5</ele>
        <time>2021-07-18T10:12:06Z</time>
      </trkpt>
      <trkpt lat="45.44747" lon="5.55081">
        <ele>611.54</ele>
        <time>2021-07-18T10:12:07Z</time>
      </trkpt>
      <trkpt lat="45.44763" lon="5.55056">
        <ele>607.69</ele>
        <time>2021-07-18T10:12:11Z</time>
      </trkpt>
      <trkpt lat="45.44798" lon="5.55016">
        <ele>604.33</ele>
        <time>2021-07-18T10:12:18Z</time>
      </trkpt>
      <trkpt lat="45.44803" lon="5.55013">
        <ele>604.33</ele>
        <time>2021-07-18T10:12:19Z</time>
      </trkpt>
      <trkpt lat="45.44808" lon="5.55009">
        <ele>603.85</ele>
        <time>2021-07-18T10:12:20Z</time>
      </trkpt>
      <trkpt lat="45.44814" lon="5.55006">
        <ele>603.36</ele>
        <time>2021-07-18T10:12:21Z</time>
      </trkpt>
      <trkpt lat="45.4482" lon="5.55004">
        <ele>602.88</ele>
        <time>2021-07-18T10:12:22Z</time>
      </trkpt>
      <trkpt lat="45.44826" lon="5.55003">
        <ele>602.88</ele>
        <time>2021-07-18T10:12:23Z</time>
      </trkpt>
      <trkpt lat="45.44832" lon="5.55003">
        <ele>601.92</ele>
        <time>2021-07-18T10:12:24Z</time>
      </trkpt>
      <trkpt lat="45.44838" lon="5.55003">
        <ele>601.44</ele>
        <time>2021-07-18T10:12:25Z</time>
      </trkpt>
      <trkpt lat="45.44846" lon="5.55004">
        <ele>600.96</ele>
        <time>2021-07-18T10:12:26Z</time>
      </trkpt>
      <trkpt lat="45.44852" lon="5.55006">
        <ele>600.48</ele>
        <time>2021-07-18T10:12:27Z</time>
      </trkpt>
      <trkpt lat="45.4491" lon="5.55031">
        <ele>599.52</ele>
        <time>2021-07-18T10:12:38Z</time>
      </trkpt>
      <trkpt lat="45.44911" lon="5.55034">
        <ele>599.52</ele>
        <time>2021-07-18T10:12:39Z</time>
      </trkpt>
      <trkpt lat="45.44911" lon="5.55037">
        <ele>600.96</ele>
        <time>2021-07-18T10:12:40Z</time>
      </trkpt>
      <trkpt lat="45.44911" lon="5.55039">
        <ele>600.96</ele>
        <time>2021-07-18T10:12:41Z</time>
      </trkpt>
      <trkpt lat="45.4491" lon="5.55041">
        <ele>600.96</ele>
        <time>2021-07-18T10:12:42Z</time>
      </trkpt>
      <trkpt lat="45.44909" lon="5.55046">
        <ele>600.96</ele>
        <time>2021-07-18T10:12:45Z</time>
      </trkpt>
      <trkpt lat="45.4491" lon="5.55049">
        <ele>600.96</ele>
        <time>2021-07-18T10:12:46Z</time>
      </trkpt>
      <trkpt lat="45.44911" lon="5.55051">
        <ele>600.96</ele>
        <time>2021-07-18T10:12:47Z</time>
      </trkpt>
      <trkpt lat="45.44911" lon="5.55053">
        <ele>600.96</ele>
        <time>2021-07-18T10:12:48Z</time>
      </trkpt>
      <trkpt lat="45.44912" lon="5.55056">
        <ele>600.96</ele>
        <time>2021-07-18T10:12:49Z</time>
      </trkpt>
      <trkpt lat="45.44912" lon="5.55058">
        <ele>600.96</ele>
        <time>2021-07-18T10:12:50Z</time>
      </trkpt>
      <trkpt lat="45.44911" lon="5.5506">
        <ele>600.96</ele>
        <time>2021-07-18T10:12:51Z</time>
      </trkpt>
      <trkpt lat="45.44909" lon="5.55061">
        <ele>600.96</ele>
        <time>2021-07-18T10:12:52Z</time>
      </trkpt>
      <trkpt lat="45.44907" lon="5.55062">
        <ele>600.96</ele>
        <time>2021-07-18T10:12:53Z</time>
      </trkpt>
      <trkpt lat="45.44899" lon="5.55078">
        <ele>600.96</ele>
        <time>2021-07-18T10:13:00Z</time>
      </trkpt>
      <trkpt lat="45.449" lon="5.55081">
        <ele>600.96</ele>
        <time>2021-07-18T10:13:01Z</time>
      </trkpt>
      <trkpt lat="45.44901" lon="5.55084">
        <ele>600.96</ele>
        <time>2021-07-18T10:13:02Z</time>
      </trkpt>
      <trkpt lat="45.44903" lon="5.55116">
        <ele>602.4</ele>
        <time>2021-07-18T10:13:15Z</time>
      </trkpt>
      <trkpt lat="45.44886" lon="5.55173">
        <ele>603.36</ele>
        <time>2021-07-18T10:13:34Z</time>
      </trkpt>
      <trkpt lat="45.44883" lon="5.55214">
        <ele>604.33</ele>
        <time>2021-07-18T10:13:49Z</time>
      </trkpt>
      <trkpt lat="45.44911" lon="5.55264">
        <ele>605.77</ele>
        <time>2021-07-18T10:14:09Z</time>
      </trkpt>
      <trkpt lat="45.44919" lon="5.55295">
        <ele>608.17</ele>
        <time>2021-07-18T10:14:24Z</time>
      </trkpt>
      <trkpt lat="45.44921" lon="5.55331">
        <ele>610.57</ele>
        <time>2021-07-18T10:14:41Z</time>
      </trkpt>
      <trkpt lat="45.44928" lon="5.55371">
        <ele>612.5</ele>
        <time>2021-07-18T10:14:59Z</time>
      </trkpt>
      <trkpt lat="45.44925" lon="5.55396">
        <ele>610.09</ele>
        <time>2021-07-18T10:15:04Z</time>
      </trkpt>
      <trkpt lat="45.44924" lon="5.55402">
        <ele>609.61</ele>
        <time>2021-07-18T10:15:05Z</time>
      </trkpt>
      <trkpt lat="45.44915" lon="5.55428">
        <ele>606.25</ele>
        <time>2021-07-18T10:15:09Z</time>
      </trkpt>
      <trkpt lat="45.4491" lon="5.55456">
        <ele>603.36</ele>
        <time>2021-07-18T10:15:13Z</time>
      </trkpt>
      <trkpt lat="45.4491" lon="5.55464">
        <ele>602.4</ele>
        <time>2021-07-18T10:15:14Z</time>
      </trkpt>
      <trkpt lat="45.44912" lon="5.55472">
        <ele>601.44</ele>
        <time>2021-07-18T10:15:15Z</time>
      </trkpt>
      <trkpt lat="45.44915" lon="5.55479">
        <ele>601.44</ele>
        <time>2021-07-18T10:15:16Z</time>
      </trkpt>
      <trkpt lat="45.44918" lon="5.55487">
        <ele>600.96</ele>
        <time>2021-07-18T10:15:17Z</time>
      </trkpt>
      <trkpt lat="45.44928" lon="5.55511">
        <ele>599.52</ele>
        <time>2021-07-18T10:15:20Z</time>
      </trkpt>
      <trkpt lat="45.44937" lon="5.55567">
        <ele>596.64</ele>
        <time>2021-07-18T10:15:30Z</time>
      </trkpt>
      <trkpt lat="45.44936" lon="5.55572">
        <ele>595.67</ele>
        <time>2021-07-18T10:15:31Z</time>
      </trkpt>
      <trkpt lat="45.4493" lon="5.55602">
        <ele>592.31</ele>
        <time>2021-07-18T10:15:35Z</time>
      </trkpt>
      <trkpt lat="45.44926" lon="5.55635">
        <ele>590.39</ele>
        <time>2021-07-18T10:15:39Z</time>
      </trkpt>
      <trkpt lat="45.44927" lon="5.55641">
        <ele>590.39</ele>
        <time>2021-07-18T10:15:46Z</time>
      </trkpt>
      <trkpt lat="45.44927" lon="5.55639">
        <ele>590.39</ele>
        <time>2021-07-18T10:15:47Z</time>
      </trkpt>
      <trkpt lat="45.44928" lon="5.55638">
        <ele>590.39</ele>
        <time>2021-07-18T10:15:48Z</time>
      </trkpt>
      <trkpt lat="45.44928" lon="5.55636">
        <ele>590.39</ele>
        <time>2021-07-18T10:15:49Z</time>
      </trkpt>
      <trkpt lat="45.44929" lon="5.55635">
        <ele>590.39</ele>
        <time>2021-07-18T10:15:50Z</time>
      </trkpt>
      <trkpt lat="45.4493" lon="5.55634">
        <ele>590.39</ele>
        <time>2021-07-18T10:15:51Z</time>
      </trkpt>
      <trkpt lat="45.44931" lon="5.55635">
        <ele>590.39</ele>
        <time>2021-07-18T10:15:52Z</time>
      </trkpt>
      <trkpt lat="45.44932" lon="5.55638">
        <ele>590.39</ele>
        <time>2021-07-18T10:15:53Z</time>
      </trkpt>
      <trkpt lat="45.44932" lon="5.55639">
        <ele>590.39</ele>
        <time>2021-07-18T10:15:54Z</time>
      </trkpt>
      <trkpt lat="45.44932" lon="5.55642">
        <ele>590.39</ele>
        <time>2021-07-18T10:15:55Z</time>
      </trkpt>
      <trkpt lat="45.44933" lon="5.55644">
        <ele>590.39</ele>
        <time>2021-07-18T10:15:56Z</time>
      </trkpt>
      <trkpt lat="45.44936" lon="5.55654">
        <ele>591.83</ele>
        <time>2021-07-18T10:16:02Z</time>
      </trkpt>
      <trkpt lat="45.44951" lon="5.55687">
        <ele>592.31</ele>
        <time>2021-07-18T10:16:19Z</time>
      </trkpt>
      <trkpt lat="45.44971" lon="5.5572">
        <ele>592.31</ele>
        <time>2021-07-18T10:16:32Z</time>
      </trkpt>
      <trkpt lat="45.44997" lon="5.55757">
        <ele>592.31</ele>
        <time>2021-07-18T10:16:50Z</time>
      </trkpt>
      <trkpt lat="45.45012" lon="5.55789">
        <ele>592.31</ele>
        <time>2021-07-18T10:17:06Z</time>
      </trkpt>
      <trkpt lat="45.45029" lon="5.5581">
        <ele>589.43</ele>
        <time>2021-07-18T10:17:17Z</time>
      </trkpt>
      <trkpt lat="45.45046" lon="5.5582">
        <ele>587.98</ele>
        <time>2021-07-18T10:17:21Z</time>
      </trkpt>
      <trkpt lat="45.45059" lon="5.55829">
        <ele>587.5</ele>
        <time>2021-07-18T10:17:24Z</time>
      </trkpt>
      <trkpt lat="45.45063" lon="5.55834">
        <ele>586.54</ele>
        <time>2021-07-18T10:17:25Z</time>
      </trkpt>
      <trkpt lat="45.45066" lon="5.55838">
        <ele>586.54</ele>
        <time>2021-07-18T10:17:26Z</time>
      </trkpt>
      <trkpt lat="45.45075" lon="5.55851">
        <ele>587.98</ele>
        <time>2021-07-18T10:17:31Z</time>
      </trkpt>
      <trkpt lat="45.45076" lon="5.55852">
        <ele>587.98</ele>
        <time>2021-07-18T10:17:32Z</time>
      </trkpt>
      <trkpt lat="45.45077" lon="5.55854">
        <ele>587.98</ele>
        <time>2021-07-18T10:17:33Z</time>
      </trkpt>
      <trkpt lat="45.45078" lon="5.55855">
        <ele>588.46</ele>
        <time>2021-07-18T10:17:34Z</time>
      </trkpt>
      <trkpt lat="45.45079" lon="5.55856">
        <ele>588.46</ele>
        <time>2021-07-18T10:17:35Z</time>
      </trkpt>
      <trkpt lat="45.4508" lon="5.55857">
        <ele>588.46</ele>
        <time>2021-07-18T10:17:36Z</time>
      </trkpt>
      <trkpt lat="45.45081" lon="5.55859">
        <ele>588.46</ele>
        <time>2021-07-18T10:17:37Z</time>
      </trkpt>
      <trkpt lat="45.45083" lon="5.5586">
        <ele>588.46</ele>
        <time>2021-07-18T10:17:38Z</time>
      </trkpt>
      <trkpt lat="45.45084" lon="5.55861">
        <ele>588.46</ele>
        <time>2021-07-18T10:17:39Z</time>
      </trkpt>
      <trkpt lat="45.45085" lon="5.55862">
        <ele>588.95</ele>
        <time>2021-07-18T10:17:40Z</time>
      </trkpt>
      <trkpt lat="45.45086" lon="5.55864">
        <ele>588.95</ele>
        <time>2021-07-18T10:17:41Z</time>
      </trkpt>
      <trkpt lat="45.45087" lon="5.55865">
        <ele>588.95</ele>
        <time>2021-07-18T10:17:42Z</time>
      </trkpt>
      <trkpt lat="45.45091" lon="5.55869">
        <ele>589.43</ele>
        <time>2021-07-18T10:17:45Z</time>
      </trkpt>
      <trkpt lat="45.45092" lon="5.55871">
        <ele>589.43</ele>
        <time>2021-07-18T10:17:46Z</time>
      </trkpt>
      <trkpt lat="45.45093" lon="5.55872">
        <ele>589.91</ele>
        <time>2021-07-18T10:17:47Z</time>
      </trkpt>
      <trkpt lat="45.45107" lon="5.55891">
        <ele>592.31</ele>
        <time>2021-07-18T10:18:01Z</time>
      </trkpt>
      <trkpt lat="45.45109" lon="5.55895">
        <ele>592.79</ele>
        <time>2021-07-18T10:18:04Z</time>
      </trkpt>
      <trkpt lat="45.4511" lon="5.55896">
        <ele>593.27</ele>
        <time>2021-07-18T10:18:05Z</time>
      </trkpt>
      <trkpt lat="45.4512" lon="5.55914">
        <ele>595.67</ele>
        <time>2021-07-18T10:18:15Z</time>
      </trkpt>
      <trkpt lat="45.45121" lon="5.55916">
        <ele>596.15</ele>
        <time>2021-07-18T10:18:17Z</time>
      </trkpt>
      <trkpt lat="45.45121" lon="5.55917">
        <ele>596.15</ele>
        <time>2021-07-18T10:18:18Z</time>
      </trkpt>
      <trkpt lat="45.45129" lon="5.55929">
        <ele>598.08</ele>
        <time>2021-07-18T10:18:32Z</time>
      </trkpt>
      <trkpt lat="45.45137" lon="5.55935">
        <ele>599.04</ele>
        <time>2021-07-18T10:18:41Z</time>
      </trkpt>
      <trkpt lat="45.45152" lon="5.55942">
        <ele>600.96</ele>
        <time>2021-07-18T10:18:55Z</time>
      </trkpt>
      <trkpt lat="45.45165" lon="5.55944">
        <ele>602.4</ele>
        <time>2021-07-18T10:19:08Z</time>
      </trkpt>
      <trkpt lat="45.45169" lon="5.55943">
        <ele>603.36</ele>
        <time>2021-07-18T10:19:20Z</time>
      </trkpt>
      <trkpt lat="45.45175" lon="5.55945">
        <ele>604.33</ele>
        <time>2021-07-18T10:19:34Z</time>
      </trkpt>
      <trkpt lat="45.45183" lon="5.55945">
        <ele>605.29</ele>
        <time>2021-07-18T10:19:46Z</time>
      </trkpt>
      <trkpt lat="45.45188" lon="5.55941">
        <ele>606.25</ele>
        <time>2021-07-18T10:19:59Z</time>
      </trkpt>
      <trkpt lat="45.45196" lon="5.55939">
        <ele>607.69</ele>
        <time>2021-07-18T10:20:11Z</time>
      </trkpt>
      <trkpt lat="45.45207" lon="5.55936">
        <ele>609.61</ele>
        <time>2021-07-18T10:20:26Z</time>
      </trkpt>
      <trkpt lat="45.45217" lon="5.55935">
        <ele>611.06</ele>
        <time>2021-07-18T10:20:41Z</time>
      </trkpt>
      <trkpt lat="45.45229" lon="5.55936">
        <ele>612.98</ele>
        <time>2021-07-18T10:20:57Z</time>
      </trkpt>
      <trkpt lat="45.45237" lon="5.55941">
        <ele>614.9</ele>
        <time>2021-07-18T10:21:14Z</time>
      </trkpt>
      <trkpt lat="45.45247" lon="5.55952">
        <ele>617.3</ele>
        <time>2021-07-18T10:21:31Z</time>
      </trkpt>
      <trkpt lat="45.4525" lon="5.55958">
        <ele>618.26</ele>
        <time>2021-07-18T10:21:48Z</time>
      </trkpt>
      <trkpt lat="45.45258" lon="5.55973">
        <ele>621.15</ele>
        <time>2021-07-18T10:22:05Z</time>
      </trkpt>
      <trkpt lat="45.45261" lon="5.55988">
        <ele>622.59</ele>
        <time>2021-07-18T10:22:23Z</time>
      </trkpt>
      <trkpt lat="45.45263" lon="5.56002">
        <ele>623.55</ele>
        <time>2021-07-18T10:22:38Z</time>
      </trkpt>
      <trkpt lat="45.45263" lon="5.56018">
        <ele>624.99</ele>
        <time>2021-07-18T10:22:53Z</time>
      </trkpt>
      <trkpt lat="45.45262" lon="5.56022">
        <ele>625.47</ele>
        <time>2021-07-18T10:23:10Z</time>
      </trkpt>
      <trkpt lat="45.45263" lon="5.56026">
        <ele>625.96</ele>
        <time>2021-07-18T10:23:38Z</time>
      </trkpt>
      <trkpt lat="45.45266" lon="5.56027">
        <ele>626.44</ele>
        <time>2021-07-18T10:24:07Z</time>
      </trkpt>
      <trkpt lat="45.45264" lon="5.56028">
        <ele>626.44</ele>
        <time>2021-07-18T10:24:27Z</time>
      </trkpt>
      <trkpt lat="45.45263" lon="5.56042">
        <ele>626.92</ele>
        <time>2021-07-18T10:24:45Z</time>
      </trkpt>
      <trkpt lat="45.45262" lon="5.56046">
        <ele>626.92</ele>
        <time>2021-07-18T10:24:48Z</time>
      </trkpt>
      <trkpt lat="45.45261" lon="5.56059">
        <ele>627.88</ele>
        <time>2021-07-18T10:24:55Z</time>
      </trkpt>
      <trkpt lat="45.45259" lon="5.56067">
        <ele>628.36</ele>
        <time>2021-07-18T10:25:00Z</time>
      </trkpt>
      <trkpt lat="45.45259" lon="5.56069">
        <ele>628.36</ele>
        <time>2021-07-18T10:25:01Z</time>
      </trkpt>
      <trkpt lat="45.45258" lon="5.56081">
        <ele>628.84</ele>
        <time>2021-07-18T10:25:07Z</time>
      </trkpt>
      <trkpt lat="45.45259" lon="5.561">
        <ele>629.32</ele>
        <time>2021-07-18T10:25:19Z</time>
      </trkpt>
      <trkpt lat="45.4526" lon="5.56102">
        <ele>629.32</ele>
        <time>2021-07-18T10:25:20Z</time>
      </trkpt>
      <trkpt lat="45.45265" lon="5.56121">
        <ele>630.76</ele>
        <time>2021-07-18T10:25:31Z</time>
      </trkpt>
      <trkpt lat="45.45274" lon="5.56139">
        <ele>631.24</ele>
        <time>2021-07-18T10:25:39Z</time>
      </trkpt>
      <trkpt lat="45.45291" lon="5.56159">
        <ele>633.17</ele>
        <time>2021-07-18T10:25:54Z</time>
      </trkpt>
      <trkpt lat="45.453" lon="5.56178">
        <ele>636.05</ele>
        <time>2021-07-18T10:26:08Z</time>
      </trkpt>
      <trkpt lat="45.45308" lon="5.56195">
        <ele>638.45</ele>
        <time>2021-07-18T10:26:23Z</time>
      </trkpt>
      <trkpt lat="45.45318" lon="5.56203">
        <ele>639.89</ele>
        <time>2021-07-18T10:26:39Z</time>
      </trkpt>
      <trkpt lat="45.45325" lon="5.56208">
        <ele>640.86</ele>
        <time>2021-07-18T10:26:52Z</time>
      </trkpt>
      <trkpt lat="45.45331" lon="5.56214">
        <ele>640.86</ele>
        <time>2021-07-18T10:27:27Z</time>
      </trkpt>
      <trkpt lat="45.45344" lon="5.56215">
        <ele>642.78</ele>
        <time>2021-07-18T10:27:39Z</time>
      </trkpt>
      <trkpt lat="45.45346" lon="5.56216">
        <ele>642.78</ele>
        <time>2021-07-18T10:27:41Z</time>
      </trkpt>
      <trkpt lat="45.45361" lon="5.56217">
        <ele>644.7</ele>
        <time>2021-07-18T10:27:55Z</time>
      </trkpt>
      <trkpt lat="45.45374" lon="5.56216">
        <ele>647.1</ele>
        <time>2021-07-18T10:28:09Z</time>
      </trkpt>
      <trkpt lat="45.45384" lon="5.56213">
        <ele>649.51</ele>
        <time>2021-07-18T10:28:21Z</time>
      </trkpt>
      <trkpt lat="45.45397" lon="5.56212">
        <ele>650.95</ele>
        <time>2021-07-18T10:28:38Z</time>
      </trkpt>
      <trkpt lat="45.45409" lon="5.56218">
        <ele>652.39</ele>
        <time>2021-07-18T10:28:53Z</time>
      </trkpt>
      <trkpt lat="45.45419" lon="5.56229">
        <ele>654.8</ele>
        <time>2021-07-18T10:29:10Z</time>
      </trkpt>
      <trkpt lat="45.45426" lon="5.56243">
        <ele>656.24</ele>
        <time>2021-07-18T10:29:25Z</time>
      </trkpt>
      <trkpt lat="45.45434" lon="5.56251">
        <ele>657.2</ele>
        <time>2021-07-18T10:29:40Z</time>
      </trkpt>
      <trkpt lat="45.45435" lon="5.56254">
        <ele>657.68</ele>
        <time>2021-07-18T10:30:15Z</time>
      </trkpt>
      <trkpt lat="45.45447" lon="5.56261">
        <ele>658.16</ele>
        <time>2021-07-18T10:30:25Z</time>
      </trkpt>
      <trkpt lat="45.45461" lon="5.56269">
        <ele>660.56</ele>
        <time>2021-07-18T10:30:38Z</time>
      </trkpt>
      <trkpt lat="45.45479" lon="5.56278">
        <ele>662.97</ele>
        <time>2021-07-18T10:30:54Z</time>
      </trkpt>
      <trkpt lat="45.45488" lon="5.56279">
        <ele>663.45</ele>
        <time>2021-07-18T10:31:03Z</time>
      </trkpt>
      <trkpt lat="45.45489" lon="5.5628">
        <ele>663.45</ele>
        <time>2021-07-18T10:31:04Z</time>
      </trkpt>
      <trkpt lat="45.45491" lon="5.5628">
        <ele>663.45</ele>
        <time>2021-07-18T10:31:05Z</time>
      </trkpt>
      <trkpt lat="45.45492" lon="5.56279">
        <ele>663.45</ele>
        <time>2021-07-18T10:31:06Z</time>
      </trkpt>
      <trkpt lat="45.45494" lon="5.56279">
        <ele>663.45</ele>
        <time>2021-07-18T10:31:07Z</time>
      </trkpt>
      <trkpt lat="45.45496" lon="5.56278">
        <ele>663.45</ele>
        <time>2021-07-18T10:31:08Z</time>
      </trkpt>
      <trkpt lat="45.455" lon="5.56279">
        <ele>663.45</ele>
        <time>2021-07-18T10:31:11Z</time>
      </trkpt>
      <trkpt lat="45.45506" lon="5.56288">
        <ele>663.93</ele>
        <time>2021-07-18T10:31:17Z</time>
      </trkpt>
      <trkpt lat="45.45507" lon="5.56291">
        <ele>663.93</ele>
        <time>2021-07-18T10:31:18Z</time>
      </trkpt>
      <trkpt lat="45.45509" lon="5.56293">
        <ele>664.41</ele>
        <time>2021-07-18T10:31:19Z</time>
      </trkpt>
      <trkpt lat="45.4551" lon="5.56295">
        <ele>664.41</ele>
        <time>2021-07-18T10:31:20Z</time>
      </trkpt>
      <trkpt lat="45.45511" lon="5.56296">
        <ele>664.41</ele>
        <time>2021-07-18T10:31:21Z</time>
      </trkpt>
      <trkpt lat="45.45511" lon="5.56298">
        <ele>664.89</ele>
        <time>2021-07-18T10:31:22Z</time>
      </trkpt>
      <trkpt lat="45.45512" lon="5.56299">
        <ele>664.89</ele>
        <time>2021-07-18T10:31:23Z</time>
      </trkpt>
      <trkpt lat="45.45513" lon="5.56301">
        <ele>664.89</ele>
        <time>2021-07-18T10:31:24Z</time>
      </trkpt>
      <trkpt lat="45.45527" lon="5.56319">
        <ele>667.29</ele>
        <time>2021-07-18T10:31:39Z</time>
      </trkpt>
      <trkpt lat="45.45548" lon="5.56331">
        <ele>668.73</ele>
        <time>2021-07-18T10:31:55Z</time>
      </trkpt>
      <trkpt lat="45.45566" lon="5.56347">
        <ele>669.7</ele>
        <time>2021-07-18T10:32:09Z</time>
      </trkpt>
      <trkpt lat="45.4559" lon="5.56363">
        <ele>669.7</ele>
        <time>2021-07-18T10:32:24Z</time>
      </trkpt>
      <trkpt lat="45.45604" lon="5.5637">
        <ele>668.25</ele>
        <time>2021-07-18T10:32:29Z</time>
      </trkpt>
      <trkpt lat="45.45623" lon="5.56377">
        <ele>664.89</ele>
        <time>2021-07-18T10:32:35Z</time>
      </trkpt>
      <trkpt lat="45.45664" lon="5.56389">
        <ele>662.97</ele>
        <time>2021-07-18T10:32:45Z</time>
      </trkpt>
      <trkpt lat="45.45668" lon="5.56391">
        <ele>662.97</ele>
        <time>2021-07-18T10:32:46Z</time>
      </trkpt>
      <trkpt lat="45.45734" lon="5.56417">
        <ele>660.56</ele>
        <time>2021-07-18T10:33:01Z</time>
      </trkpt>
      <trkpt lat="45.45766" lon="5.5641">
        <ele>657.68</ele>
        <time>2021-07-18T10:33:12Z</time>
      </trkpt>
      <trkpt lat="45.45773" lon="5.56405">
        <ele>657.68</ele>
        <time>2021-07-18T10:33:16Z</time>
      </trkpt>
      <trkpt lat="45.45774" lon="5.56403">
        <ele>657.68</ele>
        <time>2021-07-18T10:33:17Z</time>
      </trkpt>
      <trkpt lat="45.4579" lon="5.56373">
        <ele>659.6</ele>
        <time>2021-07-18T10:33:30Z</time>
      </trkpt>
      <trkpt lat="45.45791" lon="5.56372">
        <ele>660.56</ele>
        <time>2021-07-18T10:33:31Z</time>
      </trkpt>
      <trkpt lat="45.45793" lon="5.56371">
        <ele>660.56</ele>
        <time>2021-07-18T10:33:32Z</time>
      </trkpt>
      <trkpt lat="45.45795" lon="5.56371">
        <ele>660.56</ele>
        <time>2021-07-18T10:33:33Z</time>
      </trkpt>
      <trkpt lat="45.45817" lon="5.56368">
        <ele>662.01</ele>
        <time>2021-07-18T10:33:48Z</time>
      </trkpt>
      <trkpt lat="45.45842" lon="5.56362">
        <ele>664.41</ele>
        <time>2021-07-18T10:34:03Z</time>
      </trkpt>
      <trkpt lat="45.45879" lon="5.56362">
        <ele>665.37</ele>
        <time>2021-07-18T10:34:20Z</time>
      </trkpt>
      <trkpt lat="45.45918" lon="5.56343">
        <ele>665.85</ele>
        <time>2021-07-18T10:34:36Z</time>
      </trkpt>
      <trkpt lat="45.45923" lon="5.56343">
        <ele>665.85</ele>
        <time>2021-07-18T10:34:38Z</time>
      </trkpt>
      <trkpt lat="45.45925" lon="5.56344">
        <ele>665.85</ele>
        <time>2021-07-18T10:34:39Z</time>
      </trkpt>
      <trkpt lat="45.45927" lon="5.56347">
        <ele>665.85</ele>
        <time>2021-07-18T10:34:40Z</time>
      </trkpt>
      <trkpt lat="45.45927" lon="5.56349">
        <ele>665.85</ele>
        <time>2021-07-18T10:34:41Z</time>
      </trkpt>
      <trkpt lat="45.45928" lon="5.56351">
        <ele>665.85</ele>
        <time>2021-07-18T10:34:42Z</time>
      </trkpt>
      <trkpt lat="45.45928" lon="5.56353">
        <ele>665.85</ele>
        <time>2021-07-18T10:34:43Z</time>
      </trkpt>
      <trkpt lat="45.45937" lon="5.56378">
        <ele>666.33</ele>
        <time>2021-07-18T10:34:57Z</time>
      </trkpt>
      <trkpt lat="45.45955" lon="5.56417">
        <ele>667.77</ele>
        <time>2021-07-18T10:35:14Z</time>
      </trkpt>
      <trkpt lat="45.45955" lon="5.56421">
        <ele>668.25</ele>
        <time>2021-07-18T10:35:26Z</time>
      </trkpt>
      <trkpt lat="45.45954" lon="5.5642">
        <ele>668.25</ele>
        <time>2021-07-18T10:35:47Z</time>
      </trkpt>
      <trkpt lat="45.45961" lon="5.56441">
        <ele>668.73</ele>
        <time>2021-07-18T10:36:00Z</time>
      </trkpt>
      <trkpt lat="45.45979" lon="5.56487">
        <ele>669.7</ele>
        <time>2021-07-18T10:36:16Z</time>
      </trkpt>
      <trkpt lat="45.45986" lon="5.56516">
        <ele>670.18</ele>
        <time>2021-07-18T10:36:25Z</time>
      </trkpt>
      <trkpt lat="45.46006" lon="5.56522">
        <ele>671.62</ele>
        <time>2021-07-18T10:36:37Z</time>
      </trkpt>
      <trkpt lat="45.46028" lon="5.56525">
        <ele>670.66</ele>
        <time>2021-07-18T10:36:45Z</time>
      </trkpt>
      <trkpt lat="45.46061" lon="5.56539">
        <ele>667.29</ele>
        <time>2021-07-18T10:36:55Z</time>
      </trkpt>
      <trkpt lat="45.46095" lon="5.56563">
        <ele>664.41</ele>
        <time>2021-07-18T10:37:06Z</time>
      </trkpt>
      <trkpt lat="45.46114" lon="5.56584">
        <ele>661.52</ele>
        <time>2021-07-18T10:37:15Z</time>
      </trkpt>
      <trkpt lat="45.46133" lon="5.566">
        <ele>658.16</ele>
        <time>2021-07-18T10:37:24Z</time>
      </trkpt>
      <trkpt lat="45.46161" lon="5.56616">
        <ele>654.8</ele>
        <time>2021-07-18T10:37:32Z</time>
      </trkpt>
      <trkpt lat="45.46187" lon="5.56627">
        <ele>652.39</ele>
        <time>2021-07-18T10:37:42Z</time>
      </trkpt>
      <trkpt lat="45.46226" lon="5.56651">
        <ele>649.03</ele>
        <time>2021-07-18T10:37:52Z</time>
      </trkpt>
      <trkpt lat="45.46283" lon="5.56689">
        <ele>646.62</ele>
        <time>2021-07-18T10:38:07Z</time>
      </trkpt>
      <trkpt lat="45.46315" lon="5.56726">
        <ele>646.14</ele>
        <time>2021-07-18T10:38:20Z</time>
      </trkpt>
      <trkpt lat="45.46346" lon="5.56753">
        <ele>646.14</ele>
        <time>2021-07-18T10:38:36Z</time>
      </trkpt>
      <trkpt lat="45.4637" lon="5.56791">
        <ele>644.7</ele>
        <time>2021-07-18T10:38:50Z</time>
      </trkpt>
      <trkpt lat="45.46392" lon="5.56809">
        <ele>641.34</ele>
        <time>2021-07-18T10:38:57Z</time>
      </trkpt>
      <trkpt lat="45.46404" lon="5.56814">
        <ele>639.89</ele>
        <time>2021-07-18T10:39:01Z</time>
      </trkpt>
      <trkpt lat="45.4641" lon="5.56815">
        <ele>638.93</ele>
        <time>2021-07-18T10:39:04Z</time>
      </trkpt>
      <trkpt lat="45.46412" lon="5.56815">
        <ele>638.45</ele>
        <time>2021-07-18T10:39:05Z</time>
      </trkpt>
      <trkpt lat="45.4642" lon="5.56815">
        <ele>637.49</ele>
        <time>2021-07-18T10:39:16Z</time>
      </trkpt>
      <trkpt lat="45.46434" lon="5.56807">
        <ele>635.09</ele>
        <time>2021-07-18T10:39:32Z</time>
      </trkpt>
      <trkpt lat="45.46449" lon="5.56798">
        <ele>632.68</ele>
        <time>2021-07-18T10:39:47Z</time>
      </trkpt>
      <trkpt lat="45.4645" lon="5.56798">
        <ele>632.68</ele>
        <time>2021-07-18T10:39:48Z</time>
      </trkpt>
      <trkpt lat="45.46454" lon="5.56796">
        <ele>632.2</ele>
        <time>2021-07-18T10:40:02Z</time>
      </trkpt>
      <trkpt lat="45.46469" lon="5.56777">
        <ele>629.32</ele>
        <time>2021-07-18T10:40:13Z</time>
      </trkpt>
      <trkpt lat="45.46489" lon="5.56761">
        <ele>626.44</ele>
        <time>2021-07-18T10:40:22Z</time>
      </trkpt>
      <trkpt lat="45.46518" lon="5.56746">
        <ele>623.07</ele>
        <time>2021-07-18T10:40:33Z</time>
      </trkpt>
      <trkpt lat="45.46528" lon="5.56743">
        <ele>622.11</ele>
        <time>2021-07-18T10:40:38Z</time>
      </trkpt>
      <trkpt lat="45.4655" lon="5.56752">
        <ele>619.23</ele>
        <time>2021-07-18T10:40:49Z</time>
      </trkpt>
      <trkpt lat="45.46574" lon="5.56784">
        <ele>615.86</ele>
        <time>2021-07-18T10:41:02Z</time>
      </trkpt>
      <trkpt lat="45.46603" lon="5.56802">
        <ele>612.5</ele>
        <time>2021-07-18T10:41:12Z</time>
      </trkpt>
      <trkpt lat="45.46623" lon="5.5681">
        <ele>611.06</ele>
        <time>2021-07-18T10:41:17Z</time>
      </trkpt>
      <trkpt lat="45.46627" lon="5.56811">
        <ele>610.57</ele>
        <time>2021-07-18T10:41:18Z</time>
      </trkpt>
      <trkpt lat="45.46635" lon="5.56811">
        <ele>610.09</ele>
        <time>2021-07-18T10:41:20Z</time>
      </trkpt>
      <trkpt lat="45.4664" lon="5.56813">
        <ele>609.61</ele>
        <time>2021-07-18T10:41:21Z</time>
      </trkpt>
      <trkpt lat="45.46644" lon="5.56814">
        <ele>609.13</ele>
        <time>2021-07-18T10:41:22Z</time>
      </trkpt>
      <trkpt lat="45.46671" lon="5.56832">
        <ele>607.69</ele>
        <time>2021-07-18T10:41:28Z</time>
      </trkpt>
      <trkpt lat="45.46674" lon="5.56836">
        <ele>608.17</ele>
        <time>2021-07-18T10:41:29Z</time>
      </trkpt>
      <trkpt lat="45.46699" lon="5.56887">
        <ele>604.81</ele>
        <time>2021-07-18T10:41:40Z</time>
      </trkpt>
      <trkpt lat="45.46712" lon="5.5692">
        <ele>601.92</ele>
        <time>2021-07-18T10:41:47Z</time>
      </trkpt>
      <trkpt lat="45.46716" lon="5.56928">
        <ele>600.96</ele>
        <time>2021-07-18T10:41:51Z</time>
      </trkpt>
      <trkpt lat="45.46718" lon="5.56929">
        <ele>600.96</ele>
        <time>2021-07-18T10:41:52Z</time>
      </trkpt>
      <trkpt lat="45.4672" lon="5.56932">
        <ele>600.48</ele>
        <time>2021-07-18T10:41:53Z</time>
      </trkpt>
      <trkpt lat="45.46739" lon="5.56956">
        <ele>597.6</ele>
        <time>2021-07-18T10:41:59Z</time>
      </trkpt>
      <trkpt lat="45.46742" lon="5.56959">
        <ele>597.12</ele>
        <time>2021-07-18T10:42:00Z</time>
      </trkpt>
      <trkpt lat="45.46762" lon="5.56971">
        <ele>595.67</ele>
        <time>2021-07-18T10:42:07Z</time>
      </trkpt>
      <trkpt lat="45.46763" lon="5.56974">
        <ele>595.19</ele>
        <time>2021-07-18T10:42:21Z</time>
      </trkpt>
      <trkpt lat="45.46779" lon="5.56969">
        <ele>594.71</ele>
        <time>2021-07-18T10:42:35Z</time>
      </trkpt>
      <trkpt lat="45.46795" lon="5.56952">
        <ele>591.35</ele>
        <time>2021-07-18T10:42:40Z</time>
      </trkpt>
      <trkpt lat="45.4681" lon="5.56941">
        <ele>589.91</ele>
        <time>2021-07-18T10:42:44Z</time>
      </trkpt>
      <trkpt lat="45.46826" lon="5.56933">
        <ele>588.46</ele>
        <time>2021-07-18T10:42:48Z</time>
      </trkpt>
      <trkpt lat="45.4683" lon="5.56932">
        <ele>588.46</ele>
        <time>2021-07-18T10:42:49Z</time>
      </trkpt>
      <trkpt lat="45.46834" lon="5.56932">
        <ele>587.98</ele>
        <time>2021-07-18T10:42:50Z</time>
      </trkpt>
      <trkpt lat="45.46857" lon="5.56939">
        <ele>584.62</ele>
        <time>2021-07-18T10:42:57Z</time>
      </trkpt>
      <trkpt lat="45.46874" lon="5.56942">
        <ele>582.22</ele>
        <time>2021-07-18T10:43:02Z</time>
      </trkpt>
      <trkpt lat="45.46883" lon="5.56943">
        <ele>580.77</ele>
        <time>2021-07-18T10:43:05Z</time>
      </trkpt>
      <trkpt lat="45.46898" lon="5.56944">
        <ele>577.41</ele>
        <time>2021-07-18T10:43:12Z</time>
      </trkpt>
      <trkpt lat="45.46922" lon="5.56941">
        <ele>574.04</ele>
        <time>2021-07-18T10:43:21Z</time>
      </trkpt>
      <trkpt lat="45.46944" lon="5.56939">
        <ele>570.68</ele>
        <time>2021-07-18T10:43:32Z</time>
      </trkpt>
      <trkpt lat="45.46953" lon="5.56939">
        <ele>569.24</ele>
        <time>2021-07-18T10:43:43Z</time>
      </trkpt>
      <trkpt lat="45.46964" lon="5.56937">
        <ele>567.8</ele>
        <time>2021-07-18T10:43:55Z</time>
      </trkpt>
      <trkpt lat="45.46985" lon="5.56941">
        <ele>564.43</ele>
        <time>2021-07-18T10:44:04Z</time>
      </trkpt>
      <trkpt lat="45.47002" lon="5.56942">
        <ele>562.99</ele>
        <time>2021-07-18T10:44:15Z</time>
      </trkpt>
      <trkpt lat="45.47008" lon="5.56943">
        <ele>562.51</ele>
        <time>2021-07-18T10:44:30Z</time>
      </trkpt>
      <trkpt lat="45.47013" lon="5.56947">
        <ele>562.03</ele>
        <time>2021-07-18T10:44:44Z</time>
      </trkpt>
      <trkpt lat="45.47016" lon="5.56949">
        <ele>561.07</ele>
        <time>2021-07-18T10:44:55Z</time>
      </trkpt>
      <trkpt lat="45.47018" lon="5.56949">
        <ele>561.07</ele>
        <time>2021-07-18T10:44:56Z</time>
      </trkpt>
      <trkpt lat="45.47036" lon="5.56968">
        <ele>558.66</ele>
        <time>2021-07-18T10:45:07Z</time>
      </trkpt>
      <trkpt lat="45.47049" lon="5.5698">
        <ele>555.3</ele>
        <time>2021-07-18T10:45:13Z</time>
      </trkpt>
      <trkpt lat="45.47051" lon="5.56982">
        <ele>555.3</ele>
        <time>2021-07-18T10:45:14Z</time>
      </trkpt>
      <trkpt lat="45.4707" lon="5.56992">
        <ele>552.41</ele>
        <time>2021-07-18T10:45:22Z</time>
      </trkpt>
      <trkpt lat="45.47094" lon="5.56991">
        <ele>549.05</ele>
        <time>2021-07-18T10:45:31Z</time>
      </trkpt>
      <trkpt lat="45.4711" lon="5.57002">
        <ele>545.2</ele>
        <time>2021-07-18T10:45:40Z</time>
      </trkpt>
      <trkpt lat="45.47125" lon="5.57009">
        <ele>542.32</ele>
        <time>2021-07-18T10:45:46Z</time>
      </trkpt>
      <trkpt lat="45.47156" lon="5.57019">
        <ele>538.48</ele>
        <time>2021-07-18T10:45:55Z</time>
      </trkpt>
      <trkpt lat="45.472" lon="5.57032">
        <ele>536.07</ele>
        <time>2021-07-18T10:46:04Z</time>
      </trkpt>
      <trkpt lat="45.47204" lon="5.57035">
        <ele>535.59</ele>
        <time>2021-07-18T10:46:05Z</time>
      </trkpt>
      <trkpt lat="45.47207" lon="5.57038">
        <ele>535.11</ele>
        <time>2021-07-18T10:46:06Z</time>
      </trkpt>
      <trkpt lat="45.4721" lon="5.57041">
        <ele>535.11</ele>
        <time>2021-07-18T10:46:07Z</time>
      </trkpt>
      <trkpt lat="45.47213" lon="5.57044">
        <ele>535.11</ele>
        <time>2021-07-18T10:46:08Z</time>
      </trkpt>
      <trkpt lat="45.47247" lon="5.5706">
        <ele>533.19</ele>
        <time>2021-07-18T10:46:20Z</time>
      </trkpt>
      <trkpt lat="45.47295" lon="5.57063">
        <ele>532.23</ele>
        <time>2021-07-18T10:46:33Z</time>
      </trkpt>
      <trkpt lat="45.47331" lon="5.57057">
        <ele>532.23</ele>
        <time>2021-07-18T10:46:48Z</time>
      </trkpt>
      <trkpt lat="45.47337" lon="5.57052">
        <ele>532.23</ele>
        <time>2021-07-18T10:46:53Z</time>
      </trkpt>
      <trkpt lat="45.47338" lon="5.57049">
        <ele>532.23</ele>
        <time>2021-07-18T10:46:54Z</time>
      </trkpt>
      <trkpt lat="45.47338" lon="5.57047">
        <ele>532.23</ele>
        <time>2021-07-18T10:46:55Z</time>
      </trkpt>
      <trkpt lat="45.47337" lon="5.57045">
        <ele>532.23</ele>
        <time>2021-07-18T10:46:56Z</time>
      </trkpt>
      <trkpt lat="45.47336" lon="5.57042">
        <ele>532.23</ele>
        <time>2021-07-18T10:46:57Z</time>
      </trkpt>
      <trkpt lat="45.47317" lon="5.56992">
        <ele>531.27</ele>
        <time>2021-07-18T10:47:11Z</time>
      </trkpt>
      <trkpt lat="45.47297" lon="5.56932">
        <ele>527.9</ele>
        <time>2021-07-18T10:47:22Z</time>
      </trkpt>
      <trkpt lat="45.47295" lon="5.56924">
        <ele>526.94</ele>
        <time>2021-07-18T10:47:23Z</time>
      </trkpt>
      <trkpt lat="45.47294" lon="5.56915">
        <ele>525.98</ele>
        <time>2021-07-18T10:47:24Z</time>
      </trkpt>
      <trkpt lat="45.47293" lon="5.56906">
        <ele>525.5</ele>
        <time>2021-07-18T10:47:25Z</time>
      </trkpt>
      <trkpt lat="45.47293" lon="5.56898">
        <ele>524.54</ele>
        <time>2021-07-18T10:47:26Z</time>
      </trkpt>
      <trkpt lat="45.47294" lon="5.56889">
        <ele>524.06</ele>
        <time>2021-07-18T10:47:27Z</time>
      </trkpt>
      <trkpt lat="45.47295" lon="5.5688">
        <ele>522.61</ele>
        <time>2021-07-18T10:47:28Z</time>
      </trkpt>
      <trkpt lat="45.47299" lon="5.56835">
        <ele>520.21</ele>
        <time>2021-07-18T10:47:33Z</time>
      </trkpt>
      <trkpt lat="45.47301" lon="5.56827">
        <ele>519.73</ele>
        <time>2021-07-18T10:47:34Z</time>
      </trkpt>
      <trkpt lat="45.47304" lon="5.56819">
        <ele>519.73</ele>
        <time>2021-07-18T10:47:35Z</time>
      </trkpt>
      <trkpt lat="45.4731" lon="5.56804">
        <ele>518.77</ele>
        <time>2021-07-18T10:47:37Z</time>
      </trkpt>
      <trkpt lat="45.47313" lon="5.56796">
        <ele>518.77</ele>
        <time>2021-07-18T10:47:38Z</time>
      </trkpt>
      <trkpt lat="45.47318" lon="5.56789">
        <ele>518.29</ele>
        <time>2021-07-18T10:47:39Z</time>
      </trkpt>
      <trkpt lat="45.47323" lon="5.56782">
        <ele>517.33</ele>
        <time>2021-07-18T10:47:40Z</time>
      </trkpt>
      <trkpt lat="45.47328" lon="5.56776">
        <ele>517.81</ele>
        <time>2021-07-18T10:47:41Z</time>
      </trkpt>
      <trkpt lat="45.47333" lon="5.56771">
        <ele>517.33</ele>
        <time>2021-07-18T10:47:42Z</time>
      </trkpt>
      <trkpt lat="45.47338" lon="5.56766">
        <ele>517.33</ele>
        <time>2021-07-18T10:47:43Z</time>
      </trkpt>
      <trkpt lat="45.47397" lon="5.5671">
        <ele>515.4</ele>
        <time>2021-07-18T10:47:53Z</time>
      </trkpt>
      <trkpt lat="45.47402" lon="5.56702">
        <ele>515.4</ele>
        <time>2021-07-18T10:47:54Z</time>
      </trkpt>
      <trkpt lat="45.47405" lon="5.56695">
        <ele>514.44</ele>
        <time>2021-07-18T10:47:55Z</time>
      </trkpt>
      <trkpt lat="45.47409" lon="5.56687">
        <ele>514.44</ele>
        <time>2021-07-18T10:47:56Z</time>
      </trkpt>
      <trkpt lat="45.47411" lon="5.5668">
        <ele>514.44</ele>
        <time>2021-07-18T10:47:57Z</time>
      </trkpt>
      <trkpt lat="45.47413" lon="5.56673">
        <ele>514.44</ele>
        <time>2021-07-18T10:47:58Z</time>
      </trkpt>
      <trkpt lat="45.47415" lon="5.56667">
        <ele>514.44</ele>
        <time>2021-07-18T10:47:59Z</time>
      </trkpt>
      <trkpt lat="45.47419" lon="5.56651">
        <ele>514.44</ele>
        <time>2021-07-18T10:48:04Z</time>
      </trkpt>
      <trkpt lat="45.47419" lon="5.56649">
        <ele>514.44</ele>
        <time>2021-07-18T10:48:05Z</time>
      </trkpt>
      <trkpt lat="45.47418" lon="5.56643">
        <ele>514.44</ele>
        <time>2021-07-18T10:48:15Z</time>
      </trkpt>
      <trkpt lat="45.47417" lon="5.5664">
        <ele>514.44</ele>
        <time>2021-07-18T10:48:16Z</time>
      </trkpt>
      <trkpt lat="45.47415" lon="5.56638">
        <ele>514.44</ele>
        <time>2021-07-18T10:48:17Z</time>
      </trkpt>
      <trkpt lat="45.47413" lon="5.56636">
        <ele>514.44</ele>
        <time>2021-07-18T10:48:18Z</time>
      </trkpt>
      <trkpt lat="45.47411" lon="5.56637">
        <ele>514.44</ele>
        <time>2021-07-18T10:48:19Z</time>
      </trkpt>
      <trkpt lat="45.47409" lon="5.56637">
        <ele>514.44</ele>
        <time>2021-07-18T10:48:20Z</time>
      </trkpt>
      <trkpt lat="45.47407" lon="5.56637">
        <ele>514.44</ele>
        <time>2021-07-18T10:48:21Z</time>
      </trkpt>
      <trkpt lat="45.47405" lon="5.56638">
        <ele>514.44</ele>
        <time>2021-07-18T10:48:22Z</time>
      </trkpt>
      <trkpt lat="45.47402" lon="5.56638">
        <ele>514.44</ele>
        <time>2021-07-18T10:48:23Z</time>
      </trkpt>
      <trkpt lat="45.474" lon="5.56638">
        <ele>514.44</ele>
        <time>2021-07-18T10:48:24Z</time>
      </trkpt>
      <trkpt lat="45.4735" lon="5.56628">
        <ele>514.44</ele>
        <time>2021-07-18T10:48:41Z</time>
      </trkpt>
      <trkpt lat="45.47286" lon="5.56593">
        <ele>513.96</ele>
        <time>2021-07-18T10:48:59Z</time>
      </trkpt>
      <trkpt lat="45.47178" lon="5.56535">
        <ele>512.52</ele>
        <time>2021-07-18T10:49:22Z</time>
      </trkpt>
      <trkpt lat="45.47093" lon="5.56488">
        <ele>511.56</ele>
        <time>2021-07-18T10:49:41Z</time>
      </trkpt>
      <trkpt lat="45.47093" lon="5.56484">
        <ele>512.04</ele>
        <time>2021-07-18T10:49:42Z</time>
      </trkpt>
      <trkpt lat="45.47094" lon="5.56482">
        <ele>512.04</ele>
        <time>2021-07-18T10:49:43Z</time>
      </trkpt>
      <trkpt lat="45.47095" lon="5.56481">
        <ele>511.56</ele>
        <time>2021-07-18T10:49:44Z</time>
      </trkpt>
      <trkpt lat="45.47098" lon="5.56479">
        <ele>511.08</ele>
        <time>2021-07-18T10:49:45Z</time>
      </trkpt>
      <trkpt lat="45.47101" lon="5.56478">
        <ele>510.6</ele>
        <time>2021-07-18T10:49:46Z</time>
      </trkpt>
      <trkpt lat="45.47104" lon="5.56476">
        <ele>510.6</ele>
        <time>2021-07-18T10:49:47Z</time>
      </trkpt>
      <trkpt lat="45.47108" lon="5.56475">
        <ele>510.6</ele>
        <time>2021-07-18T10:49:48Z</time>
      </trkpt>
      <trkpt lat="45.4711" lon="5.56473">
        <ele>510.6</ele>
        <time>2021-07-18T10:49:49Z</time>
      </trkpt>
      <trkpt lat="45.47114" lon="5.56473">
        <ele>510.6</ele>
        <time>2021-07-18T10:49:52Z</time>
      </trkpt>
      <trkpt lat="45.47115" lon="5.56473">
        <ele>510.6</ele>
        <time>2021-07-18T10:49:53Z</time>
      </trkpt>
      <trkpt lat="45.47155" lon="5.56458">
        <ele>509.64</ele>
        <time>2021-07-18T10:50:06Z</time>
      </trkpt>
      <trkpt lat="45.47208" lon="5.56425">
        <ele>507.71</ele>
        <time>2021-07-18T10:50:20Z</time>
      </trkpt>
      <trkpt lat="45.47261" lon="5.56378">
        <ele>506.75</ele>
        <time>2021-07-18T10:50:37Z</time>
      </trkpt>
      <trkpt lat="45.47329" lon="5.56318">
        <ele>506.75</ele>
        <time>2021-07-18T10:50:58Z</time>
      </trkpt>
      <trkpt lat="45.47375" lon="5.5627">
        <ele>505.79</ele>
        <time>2021-07-18T10:51:11Z</time>
      </trkpt>
      <trkpt lat="45.47416" lon="5.56218">
        <ele>505.79</ele>
        <time>2021-07-18T10:51:25Z</time>
      </trkpt>
      <trkpt lat="45.47439" lon="5.56182">
        <ele>505.79</ele>
        <time>2021-07-18T10:51:37Z</time>
      </trkpt>
      <trkpt lat="45.47425" lon="5.56097">
        <ele>504.35</ele>
        <time>2021-07-18T10:51:54Z</time>
      </trkpt>
      <trkpt lat="45.47422" lon="5.56073">
        <ele>503.87</ele>
        <time>2021-07-18T10:51:58Z</time>
      </trkpt>
      <trkpt lat="45.47421" lon="5.56067">
        <ele>503.87</ele>
        <time>2021-07-18T10:51:59Z</time>
      </trkpt>
      <trkpt lat="45.47423" lon="5.56008">
        <ele>503.87</ele>
        <time>2021-07-18T10:52:10Z</time>
      </trkpt>
      <trkpt lat="45.47428" lon="5.55917">
        <ele>503.39</ele>
        <time>2021-07-18T10:52:24Z</time>
      </trkpt>
      <trkpt lat="45.47427" lon="5.55904">
        <ele>503.39</ele>
        <time>2021-07-18T10:52:26Z</time>
      </trkpt>
      <trkpt lat="45.47415" lon="5.55858">
        <ele>502.91</ele>
        <time>2021-07-18T10:52:34Z</time>
      </trkpt>
      <trkpt lat="45.47394" lon="5.55788">
        <ele>502.91</ele>
        <time>2021-07-18T10:52:47Z</time>
      </trkpt>
      <trkpt lat="45.47377" lon="5.55729">
        <ele>502.91</ele>
        <time>2021-07-18T10:53:02Z</time>
      </trkpt>
      <trkpt lat="45.47374" lon="5.55724">
        <ele>502.91</ele>
        <time>2021-07-18T10:53:05Z</time>
      </trkpt>
      <trkpt lat="45.47374" lon="5.55722">
        <ele>502.91</ele>
        <time>2021-07-18T10:53:06Z</time>
      </trkpt>
      <trkpt lat="45.47386" lon="5.55681">
        <ele>503.87</ele>
        <time>2021-07-18T10:53:18Z</time>
      </trkpt>
      <trkpt lat="45.47419" lon="5.55637">
        <ele>504.83</ele>
        <time>2021-07-18T10:53:34Z</time>
      </trkpt>
      <trkpt lat="45.47444" lon="5.55604">
        <ele>506.27</ele>
        <time>2021-07-18T10:53:49Z</time>
      </trkpt>
      <trkpt lat="45.47466" lon="5.5557">
        <ele>507.71</ele>
        <time>2021-07-18T10:54:05Z</time>
      </trkpt>
      <trkpt lat="45.47473" lon="5.55555">
        <ele>507.71</ele>
        <time>2021-07-18T10:54:15Z</time>
      </trkpt>
      <trkpt lat="45.47472" lon="5.55552">
        <ele>507.71</ele>
        <time>2021-07-18T10:54:16Z</time>
      </trkpt>
      <trkpt lat="45.47472" lon="5.55551">
        <ele>507.71</ele>
        <time>2021-07-18T10:54:17Z</time>
      </trkpt>
      <trkpt lat="45.47472" lon="5.55546">
        <ele>507.71</ele>
        <time>2021-07-18T10:54:32Z</time>
      </trkpt>
      <trkpt lat="45.47472" lon="5.55544">
        <ele>507.71</ele>
        <time>2021-07-18T10:54:52Z</time>
      </trkpt>
      <trkpt lat="45.47474" lon="5.55542">
        <ele>507.71</ele>
        <time>2021-07-18T10:54:57Z</time>
      </trkpt>
      <trkpt lat="45.47476" lon="5.55542">
        <ele>507.71</ele>
        <time>2021-07-18T10:54:58Z</time>
      </trkpt>
      <trkpt lat="45.47477" lon="5.55542">
        <ele>507.71</ele>
        <time>2021-07-18T10:54:59Z</time>
      </trkpt>
      <trkpt lat="45.47483" lon="5.55542">
        <ele>507.71</ele>
        <time>2021-07-18T10:55:02Z</time>
      </trkpt>
      <trkpt lat="45.47485" lon="5.5554">
        <ele>507.71</ele>
        <time>2021-07-18T10:55:03Z</time>
      </trkpt>
      <trkpt lat="45.47486" lon="5.55538">
        <ele>507.71</ele>
        <time>2021-07-18T10:55:04Z</time>
      </trkpt>
      <trkpt lat="45.47509" lon="5.55512">
        <ele>509.64</ele>
        <time>2021-07-18T10:55:18Z</time>
      </trkpt>
      <trkpt lat="45.4753" lon="5.55484">
        <ele>510.6</ele>
        <time>2021-07-18T10:55:32Z</time>
      </trkpt>
      <trkpt lat="45.47547" lon="5.55444">
        <ele>512.04</ele>
        <time>2021-07-18T10:55:48Z</time>
      </trkpt>
      <trkpt lat="45.47574" lon="5.55411">
        <ele>513.96</ele>
        <time>2021-07-18T10:56:05Z</time>
      </trkpt>
      <trkpt lat="45.47589" lon="5.55406">
        <ele>514.92</ele>
        <time>2021-07-18T10:56:19Z</time>
      </trkpt>
      <trkpt lat="45.47591" lon="5.55406">
        <ele>514.92</ele>
        <time>2021-07-18T10:56:35Z</time>
      </trkpt>
      <trkpt lat="45.47595" lon="5.55402">
        <ele>514.92</ele>
        <time>2021-07-18T10:56:51Z</time>
      </trkpt>
      <trkpt lat="45.47595" lon="5.554">
        <ele>514.92</ele>
        <time>2021-07-18T10:56:56Z</time>
      </trkpt>
      <trkpt lat="45.47596" lon="5.55398">
        <ele>515.4</ele>
        <time>2021-07-18T10:56:57Z</time>
      </trkpt>
      <trkpt lat="45.47596" lon="5.55396">
        <ele>515.4</ele>
        <time>2021-07-18T10:56:58Z</time>
      </trkpt>
      <trkpt lat="45.47595" lon="5.55393">
        <ele>515.4</ele>
        <time>2021-07-18T10:56:59Z</time>
      </trkpt>
      <trkpt lat="45.47594" lon="5.55391">
        <ele>515.4</ele>
        <time>2021-07-18T10:57:00Z</time>
      </trkpt>
      <trkpt lat="45.47593" lon="5.55389">
        <ele>515.4</ele>
        <time>2021-07-18T10:57:01Z</time>
      </trkpt>
      <trkpt lat="45.47592" lon="5.55387">
        <ele>515.4</ele>
        <time>2021-07-18T10:57:02Z</time>
      </trkpt>
      <trkpt lat="45.47591" lon="5.55385">
        <ele>515.4</ele>
        <time>2021-07-18T10:57:03Z</time>
      </trkpt>
      <trkpt lat="45.47589" lon="5.55383">
        <ele>515.4</ele>
        <time>2021-07-18T10:57:04Z</time>
      </trkpt>
      <trkpt lat="45.47587" lon="5.55382">
        <ele>515.4</ele>
        <time>2021-07-18T10:57:05Z</time>
      </trkpt>
      <trkpt lat="45.4755" lon="5.55345">
        <ele>515.4</ele>
        <time>2021-07-18T10:57:20Z</time>
      </trkpt>
      <trkpt lat="45.47516" lon="5.55309">
        <ele>513.48</ele>
        <time>2021-07-18T10:57:33Z</time>
      </trkpt>
      <trkpt lat="45.4746" lon="5.55245">
        <ele>510.6</ele>
        <time>2021-07-18T10:57:47Z</time>
      </trkpt>
      <trkpt lat="45.47446" lon="5.55225">
        <ele>510.12</ele>
        <time>2021-07-18T10:57:50Z</time>
      </trkpt>
      <trkpt lat="45.47443" lon="5.55217">
        <ele>509.64</ele>
        <time>2021-07-18T10:57:51Z</time>
      </trkpt>
      <trkpt lat="45.4744" lon="5.55209">
        <ele>509.16</ele>
        <time>2021-07-18T10:57:52Z</time>
      </trkpt>
      <trkpt lat="45.47422" lon="5.55161">
        <ele>509.16</ele>
        <time>2021-07-18T10:57:58Z</time>
      </trkpt>
      <trkpt lat="45.47418" lon="5.55154">
        <ele>509.16</ele>
        <time>2021-07-18T10:57:59Z</time>
      </trkpt>
      <trkpt lat="45.47411" lon="5.55141">
        <ele>509.16</ele>
        <time>2021-07-18T10:58:01Z</time>
      </trkpt>
      <trkpt lat="45.47366" lon="5.55074">
        <ele>509.16</ele>
        <time>2021-07-18T10:58:15Z</time>
      </trkpt>
      <trkpt lat="45.47339" lon="5.55033">
        <ele>509.16</ele>
        <time>2021-07-18T10:58:28Z</time>
      </trkpt>
      <trkpt lat="45.47312" lon="5.54998">
        <ele>509.16</ele>
        <time>2021-07-18T10:58:41Z</time>
      </trkpt>
      <trkpt lat="45.47312" lon="5.54995">
        <ele>509.16</ele>
        <time>2021-07-18T10:58:42Z</time>
      </trkpt>
      <trkpt lat="45.47311" lon="5.54993">
        <ele>509.16</ele>
        <time>2021-07-18T10:58:43Z</time>
      </trkpt>
      <trkpt lat="45.4731" lon="5.54991">
        <ele>509.16</ele>
        <time>2021-07-18T10:58:44Z</time>
      </trkpt>
      <trkpt lat="45.47308" lon="5.54991">
        <ele>509.16</ele>
        <time>2021-07-18T10:58:57Z</time>
      </trkpt>
      <trkpt lat="45.47302" lon="5.54983">
        <ele>509.16</ele>
        <time>2021-07-18T10:59:18Z</time>
      </trkpt>
      <trkpt lat="45.47276" lon="5.54946">
        <ele>509.16</ele>
        <time>2021-07-18T10:59:32Z</time>
      </trkpt>
      <trkpt lat="45.47253" lon="5.54901">
        <ele>509.16</ele>
        <time>2021-07-18T10:59:48Z</time>
      </trkpt>
      <trkpt lat="45.47254" lon="5.54898">
        <ele>510.6</ele>
        <time>2021-07-18T10:59:50Z</time>
      </trkpt>
      <trkpt lat="45.47267" lon="5.54876">
        <ele>512.04</ele>
        <time>2021-07-18T11:00:04Z</time>
      </trkpt>
      <trkpt lat="45.47283" lon="5.54847">
        <ele>514.44</ele>
        <time>2021-07-18T11:00:21Z</time>
      </trkpt>
      <trkpt lat="45.47289" lon="5.54837">
        <ele>514.92</ele>
        <time>2021-07-18T11:00:27Z</time>
      </trkpt>
      <trkpt lat="45.4729" lon="5.54835">
        <ele>514.92</ele>
        <time>2021-07-18T11:00:28Z</time>
      </trkpt>
      <trkpt lat="45.47291" lon="5.54834">
        <ele>514.44</ele>
        <time>2021-07-18T11:00:29Z</time>
      </trkpt>
      <trkpt lat="45.47292" lon="5.54832">
        <ele>514.44</ele>
        <time>2021-07-18T11:00:30Z</time>
      </trkpt>
      <trkpt lat="45.47293" lon="5.54831">
        <ele>515.4</ele>
        <time>2021-07-18T11:00:31Z</time>
      </trkpt>
      <trkpt lat="45.47295" lon="5.54829">
        <ele>515.4</ele>
        <time>2021-07-18T11:00:32Z</time>
      </trkpt>
      <trkpt lat="45.47314" lon="5.54804">
        <ele>516.85</ele>
        <time>2021-07-18T11:00:48Z</time>
      </trkpt>
      <trkpt lat="45.47332" lon="5.54769">
        <ele>519.25</ele>
        <time>2021-07-18T11:01:07Z</time>
      </trkpt>
      <trkpt lat="45.47349" lon="5.54738">
        <ele>521.17</ele>
        <time>2021-07-18T11:01:26Z</time>
      </trkpt>
      <trkpt lat="45.47369" lon="5.54713">
        <ele>524.06</ele>
        <time>2021-07-18T11:01:45Z</time>
      </trkpt>
      <trkpt lat="45.47385" lon="5.54694">
        <ele>526.46</ele>
        <time>2021-07-18T11:02:01Z</time>
      </trkpt>
      <trkpt lat="45.47404" lon="5.54672">
        <ele>528.86</ele>
        <time>2021-07-18T11:02:18Z</time>
      </trkpt>
      <trkpt lat="45.47421" lon="5.54653">
        <ele>531.27</ele>
        <time>2021-07-18T11:02:34Z</time>
      </trkpt>
      <trkpt lat="45.47438" lon="5.5463">
        <ele>534.15</ele>
        <time>2021-07-18T11:02:52Z</time>
      </trkpt>
      <trkpt lat="45.4745" lon="5.54613">
        <ele>536.55</ele>
        <time>2021-07-18T11:03:07Z</time>
      </trkpt>
      <trkpt lat="45.47461" lon="5.54593">
        <ele>538.96</ele>
        <time>2021-07-18T11:03:22Z</time>
      </trkpt>
      <trkpt lat="45.47471" lon="5.5457">
        <ele>541.84</ele>
        <time>2021-07-18T11:03:38Z</time>
      </trkpt>
      <trkpt lat="45.47471" lon="5.54568">
        <ele>541.84</ele>
        <time>2021-07-18T11:03:39Z</time>
      </trkpt>
      <trkpt lat="45.4747" lon="5.54566">
        <ele>542.32</ele>
        <time>2021-07-18T11:03:41Z</time>
      </trkpt>
      <trkpt lat="45.47469" lon="5.54565">
        <ele>542.32</ele>
        <time>2021-07-18T11:03:42Z</time>
      </trkpt>
      <trkpt lat="45.47466" lon="5.54565">
        <ele>542.32</ele>
        <time>2021-07-18T11:03:44Z</time>
      </trkpt>
      <trkpt lat="45.47465" lon="5.54565">
        <ele>542.32</ele>
        <time>2021-07-18T11:03:45Z</time>
      </trkpt>
      <trkpt lat="45.47462" lon="5.54567">
        <ele>542.8</ele>
        <time>2021-07-18T11:03:48Z</time>
      </trkpt>
      <trkpt lat="45.47461" lon="5.54566">
        <ele>542.8</ele>
        <time>2021-07-18T11:03:49Z</time>
      </trkpt>
      <trkpt lat="45.4746" lon="5.54565">
        <ele>543.28</ele>
        <time>2021-07-18T11:03:50Z</time>
      </trkpt>
      <trkpt lat="45.47447" lon="5.54563">
        <ele>545.69</ele>
        <time>2021-07-18T11:04:04Z</time>
      </trkpt>
      <trkpt lat="45.47443" lon="5.54564">
        <ele>546.17</ele>
        <time>2021-07-18T11:04:07Z</time>
      </trkpt>
      <trkpt lat="45.47426" lon="5.54568">
        <ele>548.57</ele>
        <time>2021-07-18T11:04:22Z</time>
      </trkpt>
      <trkpt lat="45.47415" lon="5.54567">
        <ele>550.49</ele>
        <time>2021-07-18T11:04:33Z</time>
      </trkpt>
      <trkpt lat="45.47403" lon="5.54558">
        <ele>552.9</ele>
        <time>2021-07-18T11:04:47Z</time>
      </trkpt>
      <trkpt lat="45.47403" lon="5.54555">
        <ele>553.38</ele>
        <time>2021-07-18T11:04:49Z</time>
      </trkpt>
      <trkpt lat="45.47402" lon="5.54554">
        <ele>553.38</ele>
        <time>2021-07-18T11:04:50Z</time>
      </trkpt>
      <trkpt lat="45.47402" lon="5.54552">
        <ele>553.38</ele>
        <time>2021-07-18T11:04:51Z</time>
      </trkpt>
      <trkpt lat="45.47401" lon="5.54541">
        <ele>555.3</ele>
        <time>2021-07-18T11:04:59Z</time>
      </trkpt>
      <trkpt lat="45.47401" lon="5.54539">
        <ele>555.3</ele>
        <time>2021-07-18T11:05:00Z</time>
      </trkpt>
      <trkpt lat="45.47402" lon="5.54538">
        <ele>555.3</ele>
        <time>2021-07-18T11:05:01Z</time>
      </trkpt>
      <trkpt lat="45.47402" lon="5.54537">
        <ele>555.3</ele>
        <time>2021-07-18T11:05:02Z</time>
      </trkpt>
      <trkpt lat="45.47403" lon="5.54535">
        <ele>555.3</ele>
        <time>2021-07-18T11:05:03Z</time>
      </trkpt>
      <trkpt lat="45.47403" lon="5.54534">
        <ele>555.78</ele>
        <time>2021-07-18T11:05:04Z</time>
      </trkpt>
      <trkpt lat="45.47413" lon="5.54519">
        <ele>558.18</ele>
        <time>2021-07-18T11:05:19Z</time>
      </trkpt>
      <trkpt lat="45.47416" lon="5.54513">
        <ele>559.14</ele>
        <time>2021-07-18T11:05:24Z</time>
      </trkpt>
      <trkpt lat="45.47428" lon="5.54496">
        <ele>562.03</ele>
        <time>2021-07-18T11:05:41Z</time>
      </trkpt>
      <trkpt lat="45.47431" lon="5.54492">
        <ele>562.51</ele>
        <time>2021-07-18T11:05:45Z</time>
      </trkpt>
      <trkpt lat="45.47438" lon="5.54484">
        <ele>563.95</ele>
        <time>2021-07-18T11:06:00Z</time>
      </trkpt>
      <trkpt lat="45.47441" lon="5.54478">
        <ele>564.91</ele>
        <time>2021-07-18T11:06:20Z</time>
      </trkpt>
      <trkpt lat="45.47449" lon="5.54464">
        <ele>566.35</ele>
        <time>2021-07-18T11:06:37Z</time>
      </trkpt>
      <trkpt lat="45.47456" lon="5.54449">
        <ele>567.8</ele>
        <time>2021-07-18T11:06:55Z</time>
      </trkpt>
      <trkpt lat="45.47462" lon="5.54431">
        <ele>569.72</ele>
        <time>2021-07-18T11:07:13Z</time>
      </trkpt>
      <trkpt lat="45.47471" lon="5.54416">
        <ele>570.68</ele>
        <time>2021-07-18T11:07:30Z</time>
      </trkpt>
      <trkpt lat="45.47476" lon="5.54408">
        <ele>571.64</ele>
        <time>2021-07-18T11:07:50Z</time>
      </trkpt>
      <trkpt lat="45.47484" lon="5.54391">
        <ele>573.56</ele>
        <time>2021-07-18T11:08:07Z</time>
      </trkpt>
      <trkpt lat="45.47493" lon="5.54373">
        <ele>575.97</ele>
        <time>2021-07-18T11:08:25Z</time>
      </trkpt>
      <trkpt lat="45.47502" lon="5.54358">
        <ele>577.41</ele>
        <time>2021-07-18T11:08:42Z</time>
      </trkpt>
      <trkpt lat="45.47508" lon="5.54349">
        <ele>579.33</ele>
        <time>2021-07-18T11:08:57Z</time>
      </trkpt>
      <trkpt lat="45.47518" lon="5.54333">
        <ele>581.25</ele>
        <time>2021-07-18T11:09:14Z</time>
      </trkpt>
      <trkpt lat="45.47527" lon="5.5432">
        <ele>582.7</ele>
        <time>2021-07-18T11:09:28Z</time>
      </trkpt>
      <trkpt lat="45.47537" lon="5.54302">
        <ele>584.14</ele>
        <time>2021-07-18T11:09:45Z</time>
      </trkpt>
      <trkpt lat="45.4755" lon="5.54283">
        <ele>585.58</ele>
        <time>2021-07-18T11:10:03Z</time>
      </trkpt>
      <trkpt lat="45.47561" lon="5.54267">
        <ele>586.54</ele>
        <time>2021-07-18T11:10:19Z</time>
      </trkpt>
      <trkpt lat="45.47573" lon="5.54249">
        <ele>587.98</ele>
        <time>2021-07-18T11:10:36Z</time>
      </trkpt>
      <trkpt lat="45.47581" lon="5.54233">
        <ele>589.91</ele>
        <time>2021-07-18T11:10:52Z</time>
      </trkpt>
      <trkpt lat="45.47583" lon="5.54216">
        <ele>591.35</ele>
        <time>2021-07-18T11:11:09Z</time>
      </trkpt>
      <trkpt lat="45.47584" lon="5.54215">
        <ele>591.35</ele>
        <time>2021-07-18T11:11:37Z</time>
      </trkpt>
      <trkpt lat="45.47583" lon="5.54221">
        <ele>591.35</ele>
        <time>2021-07-18T11:12:18Z</time>
      </trkpt>
      <trkpt lat="45.47584" lon="5.54215">
        <ele>591.83</ele>
        <time>2021-07-18T11:13:09Z</time>
      </trkpt>
      <trkpt lat="45.47585" lon="5.54214">
        <ele>591.83</ele>
        <time>2021-07-18T11:13:40Z</time>
      </trkpt>
      <trkpt lat="45.47585" lon="5.54217">
        <ele>592.31</ele>
        <time>2021-07-18T11:14:30Z</time>
      </trkpt>
      <trkpt lat="45.47584" lon="5.54215">
        <ele>592.31</ele>
        <time>2021-07-18T11:15:12Z</time>
      </trkpt>
      <trkpt lat="45.47584" lon="5.54214">
        <ele>592.31</ele>
        <time>2021-07-18T11:15:51Z</time>
      </trkpt>
      <trkpt lat="45.47583" lon="5.54214">
        <ele>591.83</ele>
        <time>2021-07-18T11:16:33Z</time>
      </trkpt>
      <trkpt lat="45.47583" lon="5.54216">
        <ele>591.83</ele>
        <time>2021-07-18T11:17:06Z</time>
      </trkpt>
      <trkpt lat="45.47582" lon="5.54216">
        <ele>592.31</ele>
        <time>2021-07-18T11:17:36Z</time>
      </trkpt>
      <trkpt lat="45.47583" lon="5.54216">
        <ele>592.79</ele>
        <time>2021-07-18T11:18:01Z</time>
      </trkpt>
      <trkpt lat="45.47582" lon="5.5422">
        <ele>592.79</ele>
        <time>2021-07-18T11:18:25Z</time>
      </trkpt>
      <trkpt lat="45.47585" lon="5.54219">
        <ele>592.79</ele>
        <time>2021-07-18T11:18:43Z</time>
      </trkpt>
      <trkpt lat="45.47585" lon="5.54218">
        <ele>592.79</ele>
        <time>2021-07-18T11:18:59Z</time>
      </trkpt>
      <trkpt lat="45.47585" lon="5.54216">
        <ele>593.27</ele>
        <time>2021-07-18T11:19:21Z</time>
      </trkpt>
      <trkpt lat="45.47585" lon="5.54215">
        <ele>593.27</ele>
        <time>2021-07-18T11:19:41Z</time>
      </trkpt>
      <trkpt lat="45.47585" lon="5.54215">
        <ele>593.27</ele>
        <time>2021-07-18T11:20:01Z</time>
      </trkpt>
      <trkpt lat="45.47585" lon="5.54212">
        <ele>593.27</ele>
        <time>2021-07-18T11:20:33Z</time>
      </trkpt>
      <trkpt lat="45.47585" lon="5.54211">
        <ele>593.27</ele>
        <time>2021-07-18T11:21:08Z</time>
      </trkpt>
      <trkpt lat="45.47584" lon="5.54212">
        <ele>593.27</ele>
        <time>2021-07-18T11:21:39Z</time>
      </trkpt>
      <trkpt lat="45.47582" lon="5.54204">
        <ele>593.75</ele>
        <time>2021-07-18T11:21:47Z</time>
      </trkpt>
      <trkpt lat="45.47578" lon="5.54191">
        <ele>595.19</ele>
        <time>2021-07-18T11:21:59Z</time>
      </trkpt>
      <trkpt lat="45.47573" lon="5.54174">
        <ele>597.12</ele>
        <time>2021-07-18T11:22:14Z</time>
      </trkpt>
      <trkpt lat="45.47571" lon="5.54154">
        <ele>599.04</ele>
        <time>2021-07-18T11:22:29Z</time>
      </trkpt>
      <trkpt lat="45.47572" lon="5.54141">
        <ele>600</ele>
        <time>2021-07-18T11:22:38Z</time>
      </trkpt>
      <trkpt lat="45.47573" lon="5.5414">
        <ele>600</ele>
        <time>2021-07-18T11:22:39Z</time>
      </trkpt>
      <trkpt lat="45.47574" lon="5.54132">
        <ele>600.48</ele>
        <time>2021-07-18T11:22:44Z</time>
      </trkpt>
      <trkpt lat="45.47576" lon="5.54121">
        <ele>601.92</ele>
        <time>2021-07-18T11:22:52Z</time>
      </trkpt>
      <trkpt lat="45.47578" lon="5.54117">
        <ele>601.92</ele>
        <time>2021-07-18T11:22:55Z</time>
      </trkpt>
      <trkpt lat="45.47578" lon="5.54114">
        <ele>601.92</ele>
        <time>2021-07-18T11:22:57Z</time>
      </trkpt>
      <trkpt lat="45.47585" lon="5.54101">
        <ele>602.4</ele>
        <time>2021-07-18T11:23:06Z</time>
      </trkpt>
      <trkpt lat="45.47609" lon="5.54085">
        <ele>602.4</ele>
        <time>2021-07-18T11:23:24Z</time>
      </trkpt>
      <trkpt lat="45.47635" lon="5.54066">
        <ele>602.4</ele>
        <time>2021-07-18T11:23:41Z</time>
      </trkpt>
      <trkpt lat="45.47649" lon="5.54032">
        <ele>603.85</ele>
        <time>2021-07-18T11:23:58Z</time>
      </trkpt>
      <trkpt lat="45.47656" lon="5.53992">
        <ele>604.81</ele>
        <time>2021-07-18T11:24:17Z</time>
      </trkpt>
      <trkpt lat="45.47657" lon="5.53987">
        <ele>605.29</ele>
        <time>2021-07-18T11:24:21Z</time>
      </trkpt>
      <trkpt lat="45.4766" lon="5.5397">
        <ele>606.73</ele>
        <time>2021-07-18T11:24:33Z</time>
      </trkpt>
      <trkpt lat="45.47666" lon="5.53944">
        <ele>608.65</ele>
        <time>2021-07-18T11:24:50Z</time>
      </trkpt>
      <trkpt lat="45.47671" lon="5.53927">
        <ele>609.61</ele>
        <time>2021-07-18T11:25:03Z</time>
      </trkpt>
      <trkpt lat="45.47675" lon="5.5391">
        <ele>610.57</ele>
        <time>2021-07-18T11:25:15Z</time>
      </trkpt>
      <trkpt lat="45.47678" lon="5.53881">
        <ele>613.46</ele>
        <time>2021-07-18T11:25:31Z</time>
      </trkpt>
      <trkpt lat="45.47675" lon="5.53855">
        <ele>614.9</ele>
        <time>2021-07-18T11:25:46Z</time>
      </trkpt>
      <trkpt lat="45.47666" lon="5.53822">
        <ele>616.82</ele>
        <time>2021-07-18T11:26:05Z</time>
      </trkpt>
      <trkpt lat="45.47666" lon="5.538">
        <ele>618.26</ele>
        <time>2021-07-18T11:26:19Z</time>
      </trkpt>
      <trkpt lat="45.47666" lon="5.53779">
        <ele>620.67</ele>
        <time>2021-07-18T11:26:34Z</time>
      </trkpt>
      <trkpt lat="45.47668" lon="5.53757">
        <ele>623.55</ele>
        <time>2021-07-18T11:26:48Z</time>
      </trkpt>
      <trkpt lat="45.47666" lon="5.53736">
        <ele>626.44</ele>
        <time>2021-07-18T11:27:03Z</time>
      </trkpt>
      <trkpt lat="45.47665" lon="5.53716">
        <ele>628.84</ele>
        <time>2021-07-18T11:27:18Z</time>
      </trkpt>
      <trkpt lat="45.47665" lon="5.53705">
        <ele>630.28</ele>
        <time>2021-07-18T11:27:25Z</time>
      </trkpt>
      <trkpt lat="45.47664" lon="5.53701">
        <ele>630.76</ele>
        <time>2021-07-18T11:27:29Z</time>
      </trkpt>
      <trkpt lat="45.47666" lon="5.53681">
        <ele>631.72</ele>
        <time>2021-07-18T11:27:41Z</time>
      </trkpt>
      <trkpt lat="45.47666" lon="5.53672">
        <ele>631.24</ele>
        <time>2021-07-18T11:27:54Z</time>
      </trkpt>
      <trkpt lat="45.47666" lon="5.53673">
        <ele>631.72</ele>
        <time>2021-07-18T11:28:33Z</time>
      </trkpt>
      <trkpt lat="45.47669" lon="5.53658">
        <ele>631.72</ele>
        <time>2021-07-18T11:28:42Z</time>
      </trkpt>
      <trkpt lat="45.4768" lon="5.53624">
        <ele>633.17</ele>
        <time>2021-07-18T11:29:00Z</time>
      </trkpt>
      <trkpt lat="45.47688" lon="5.53591">
        <ele>636.53</ele>
        <time>2021-07-18T11:29:18Z</time>
      </trkpt>
      <trkpt lat="45.47695" lon="5.53559">
        <ele>639.41</ele>
        <time>2021-07-18T11:29:37Z</time>
      </trkpt>
      <trkpt lat="45.47681" lon="5.53527">
        <ele>639.89</ele>
        <time>2021-07-18T11:29:50Z</time>
      </trkpt>
      <trkpt lat="45.47658" lon="5.53483">
        <ele>639.41</ele>
        <time>2021-07-18T11:30:05Z</time>
      </trkpt>
      <trkpt lat="45.47636" lon="5.53463">
        <ele>639.41</ele>
        <time>2021-07-18T11:30:14Z</time>
      </trkpt>
      <trkpt lat="45.47635" lon="5.5346">
        <ele>640.38</ele>
        <time>2021-07-18T11:30:15Z</time>
      </trkpt>
      <trkpt lat="45.47635" lon="5.53458">
        <ele>640.38</ele>
        <time>2021-07-18T11:30:16Z</time>
      </trkpt>
      <trkpt lat="45.47635" lon="5.53456">
        <ele>640.38</ele>
        <time>2021-07-18T11:30:17Z</time>
      </trkpt>
      <trkpt lat="45.47636" lon="5.53454">
        <ele>640.86</ele>
        <time>2021-07-18T11:30:18Z</time>
      </trkpt>
      <trkpt lat="45.47636" lon="5.53452">
        <ele>640.86</ele>
        <time>2021-07-18T11:30:19Z</time>
      </trkpt>
      <trkpt lat="45.47637" lon="5.5345">
        <ele>640.86</ele>
        <time>2021-07-18T11:30:20Z</time>
      </trkpt>
      <trkpt lat="45.47655" lon="5.53429">
        <ele>643.26</ele>
        <time>2021-07-18T11:30:35Z</time>
      </trkpt>
      <trkpt lat="45.47678" lon="5.53396">
        <ele>645.66</ele>
        <time>2021-07-18T11:30:55Z</time>
      </trkpt>
      <trkpt lat="45.47696" lon="5.53363">
        <ele>647.1</ele>
        <time>2021-07-18T11:31:12Z</time>
      </trkpt>
      <trkpt lat="45.47714" lon="5.53331">
        <ele>648.07</ele>
        <time>2021-07-18T11:31:27Z</time>
      </trkpt>
      <trkpt lat="45.47738" lon="5.53341">
        <ele>648.55</ele>
        <time>2021-07-18T11:31:38Z</time>
      </trkpt>
      <trkpt lat="45.47764" lon="5.5336">
        <ele>647.1</ele>
        <time>2021-07-18T11:31:48Z</time>
      </trkpt>
      <trkpt lat="45.47815" lon="5.53408">
        <ele>644.7</ele>
        <time>2021-07-18T11:32:01Z</time>
      </trkpt>
      <trkpt lat="45.47863" lon="5.53444">
        <ele>644.7</ele>
        <time>2021-07-18T11:32:15Z</time>
      </trkpt>
      <trkpt lat="45.47881" lon="5.53452">
        <ele>647.1</ele>
        <time>2021-07-18T11:32:23Z</time>
      </trkpt>
      <trkpt lat="45.47905" lon="5.53451">
        <ele>649.03</ele>
        <time>2021-07-18T11:32:37Z</time>
      </trkpt>
      <trkpt lat="45.47916" lon="5.53434">
        <ele>649.99</ele>
        <time>2021-07-18T11:32:47Z</time>
      </trkpt>
      <trkpt lat="45.47917" lon="5.53434">
        <ele>649.99</ele>
        <time>2021-07-18T11:32:48Z</time>
      </trkpt>
      <trkpt lat="45.4792" lon="5.53434">
        <ele>650.47</ele>
        <time>2021-07-18T11:32:49Z</time>
      </trkpt>
      <trkpt lat="45.47922" lon="5.53435">
        <ele>650.47</ele>
        <time>2021-07-18T11:32:50Z</time>
      </trkpt>
      <trkpt lat="45.47923" lon="5.53436">
        <ele>650.47</ele>
        <time>2021-07-18T11:32:51Z</time>
      </trkpt>
      <trkpt lat="45.47925" lon="5.53436">
        <ele>650.47</ele>
        <time>2021-07-18T11:32:52Z</time>
      </trkpt>
      <trkpt lat="45.47935" lon="5.53438">
        <ele>651.43</ele>
        <time>2021-07-18T11:33:04Z</time>
      </trkpt>
      <trkpt lat="45.47943" lon="5.53434">
        <ele>651.43</ele>
        <time>2021-07-18T11:33:31Z</time>
      </trkpt>
      <trkpt lat="45.47945" lon="5.53435">
        <ele>651.91</ele>
        <time>2021-07-18T11:33:44Z</time>
      </trkpt>
      <trkpt lat="45.4795" lon="5.53441">
        <ele>652.39</ele>
        <time>2021-07-18T11:33:51Z</time>
      </trkpt>
      <trkpt lat="45.47951" lon="5.53441">
        <ele>651.91</ele>
        <time>2021-07-18T11:33:52Z</time>
      </trkpt>
      <trkpt lat="45.4797" lon="5.53443">
        <ele>653.35</ele>
        <time>2021-07-18T11:34:04Z</time>
      </trkpt>
      <trkpt lat="45.47971" lon="5.53443">
        <ele>654.8</ele>
        <time>2021-07-18T11:34:05Z</time>
      </trkpt>
      <trkpt lat="45.47972" lon="5.53443">
        <ele>654.8</ele>
        <time>2021-07-18T11:34:06Z</time>
      </trkpt>
      <trkpt lat="45.47977" lon="5.5344">
        <ele>654.8</ele>
        <time>2021-07-18T11:34:10Z</time>
      </trkpt>
      <trkpt lat="45.47978" lon="5.53438">
        <ele>654.8</ele>
        <time>2021-07-18T11:34:11Z</time>
      </trkpt>
      <trkpt lat="45.47979" lon="5.53436">
        <ele>654.8</ele>
        <time>2021-07-18T11:34:12Z</time>
      </trkpt>
      <trkpt lat="45.47979" lon="5.53435">
        <ele>654.8</ele>
        <time>2021-07-18T11:34:13Z</time>
      </trkpt>
      <trkpt lat="45.47979" lon="5.53432">
        <ele>654.8</ele>
        <time>2021-07-18T11:34:14Z</time>
      </trkpt>
      <trkpt lat="45.4797" lon="5.53402">
        <ele>657.68</ele>
        <time>2021-07-18T11:34:33Z</time>
      </trkpt>
      <trkpt lat="45.47961" lon="5.53377">
        <ele>660.08</ele>
        <time>2021-07-18T11:34:49Z</time>
      </trkpt>
      <trkpt lat="45.47948" lon="5.53354">
        <ele>661.04</ele>
        <time>2021-07-18T11:35:06Z</time>
      </trkpt>
      <trkpt lat="45.47939" lon="5.53336">
        <ele>662.49</ele>
        <time>2021-07-18T11:35:19Z</time>
      </trkpt>
      <trkpt lat="45.47939" lon="5.53335">
        <ele>662.49</ele>
        <time>2021-07-18T11:35:20Z</time>
      </trkpt>
      <trkpt lat="45.47938" lon="5.53334">
        <ele>662.97</ele>
        <time>2021-07-18T11:35:21Z</time>
      </trkpt>
      <trkpt lat="45.47927" lon="5.53315">
        <ele>664.41</ele>
        <time>2021-07-18T11:35:34Z</time>
      </trkpt>
      <trkpt lat="45.4792" lon="5.53295">
        <ele>666.33</ele>
        <time>2021-07-18T11:35:47Z</time>
      </trkpt>
      <trkpt lat="45.47919" lon="5.53268">
        <ele>667.77</ele>
        <time>2021-07-18T11:36:02Z</time>
      </trkpt>
      <trkpt lat="45.4791" lon="5.53233">
        <ele>668.73</ele>
        <time>2021-07-18T11:36:19Z</time>
      </trkpt>
      <trkpt lat="45.47904" lon="5.53205">
        <ele>670.66</ele>
        <time>2021-07-18T11:36:35Z</time>
      </trkpt>
      <trkpt lat="45.47901" lon="5.53191">
        <ele>671.62</ele>
        <time>2021-07-18T11:36:43Z</time>
      </trkpt>
      <trkpt lat="45.47901" lon="5.5319">
        <ele>672.1</ele>
        <time>2021-07-18T11:36:44Z</time>
      </trkpt>
      <trkpt lat="45.47901" lon="5.53188">
        <ele>672.1</ele>
        <time>2021-07-18T11:36:45Z</time>
      </trkpt>
      <trkpt lat="45.47901" lon="5.53186">
        <ele>672.1</ele>
        <time>2021-07-18T11:36:46Z</time>
      </trkpt>
      <trkpt lat="45.47901" lon="5.53185">
        <ele>672.1</ele>
        <time>2021-07-18T11:36:47Z</time>
      </trkpt>
      <trkpt lat="45.47901" lon="5.53181">
        <ele>672.58</ele>
        <time>2021-07-18T11:36:49Z</time>
      </trkpt>
      <trkpt lat="45.47901" lon="5.5318">
        <ele>672.58</ele>
        <time>2021-07-18T11:36:50Z</time>
      </trkpt>
      <trkpt lat="45.47901" lon="5.53176">
        <ele>673.06</ele>
        <time>2021-07-18T11:36:53Z</time>
      </trkpt>
      <trkpt lat="45.47901" lon="5.53174">
        <ele>673.06</ele>
        <time>2021-07-18T11:36:54Z</time>
      </trkpt>
      <trkpt lat="45.47901" lon="5.53172">
        <ele>673.06</ele>
        <time>2021-07-18T11:36:55Z</time>
      </trkpt>
      <trkpt lat="45.47898" lon="5.53148">
        <ele>674.02</ele>
        <time>2021-07-18T11:37:08Z</time>
      </trkpt>
      <trkpt lat="45.47896" lon="5.53124">
        <ele>675.46</ele>
        <time>2021-07-18T11:37:20Z</time>
      </trkpt>
      <trkpt lat="45.47896" lon="5.53122">
        <ele>675.46</ele>
        <time>2021-07-18T11:37:21Z</time>
      </trkpt>
      <trkpt lat="45.47895" lon="5.53104">
        <ele>676.91</ele>
        <time>2021-07-18T11:37:31Z</time>
      </trkpt>
      <trkpt lat="45.47895" lon="5.531">
        <ele>676.91</ele>
        <time>2021-07-18T11:37:33Z</time>
      </trkpt>
      <trkpt lat="45.47895" lon="5.53098">
        <ele>676.91</ele>
        <time>2021-07-18T11:37:34Z</time>
      </trkpt>
      <trkpt lat="45.47895" lon="5.53096">
        <ele>677.39</ele>
        <time>2021-07-18T11:37:35Z</time>
      </trkpt>
      <trkpt lat="45.47895" lon="5.53083">
        <ele>677.39</ele>
        <time>2021-07-18T11:37:42Z</time>
      </trkpt>
      <trkpt lat="45.47895" lon="5.53079">
        <ele>677.87</ele>
        <time>2021-07-18T11:37:44Z</time>
      </trkpt>
      <trkpt lat="45.47899" lon="5.53064">
        <ele>677.87</ele>
        <time>2021-07-18T11:37:54Z</time>
      </trkpt>
      <trkpt lat="45.47898" lon="5.53062">
        <ele>677.87</ele>
        <time>2021-07-18T11:37:55Z</time>
      </trkpt>
      <trkpt lat="45.47894" lon="5.53048">
        <ele>678.35</ele>
        <time>2021-07-18T11:38:01Z</time>
      </trkpt>
      <trkpt lat="45.47894" lon="5.53045">
        <ele>678.35</ele>
        <time>2021-07-18T11:38:02Z</time>
      </trkpt>
      <trkpt lat="45.47893" lon="5.53024">
        <ele>678.35</ele>
        <time>2021-07-18T11:38:12Z</time>
      </trkpt>
      <trkpt lat="45.47892" lon="5.53004">
        <ele>678.83</ele>
        <time>2021-07-18T11:38:18Z</time>
      </trkpt>
      <trkpt lat="45.47892" lon="5.53001">
        <ele>678.83</ele>
        <time>2021-07-18T11:38:19Z</time>
      </trkpt>
      <trkpt lat="45.47887" lon="5.52973">
        <ele>679.79</ele>
        <time>2021-07-18T11:38:31Z</time>
      </trkpt>
      <trkpt lat="45.47882" lon="5.52959">
        <ele>679.79</ele>
        <time>2021-07-18T11:38:37Z</time>
      </trkpt>
      <trkpt lat="45.47879" lon="5.52952">
        <ele>680.27</ele>
        <time>2021-07-18T11:38:39Z</time>
      </trkpt>
      <trkpt lat="45.47862" lon="5.52923">
        <ele>681.23</ele>
        <time>2021-07-18T11:38:50Z</time>
      </trkpt>
      <trkpt lat="45.47856" lon="5.52914">
        <ele>681.71</ele>
        <time>2021-07-18T11:38:53Z</time>
      </trkpt>
      <trkpt lat="45.47854" lon="5.52911">
        <ele>681.71</ele>
        <time>2021-07-18T11:38:54Z</time>
      </trkpt>
      <trkpt lat="45.47851" lon="5.52908">
        <ele>681.71</ele>
        <time>2021-07-18T11:38:55Z</time>
      </trkpt>
      <trkpt lat="45.47849" lon="5.52905">
        <ele>681.71</ele>
        <time>2021-07-18T11:38:56Z</time>
      </trkpt>
      <trkpt lat="45.47833" lon="5.52878">
        <ele>683.15</ele>
        <time>2021-07-18T11:39:06Z</time>
      </trkpt>
      <trkpt lat="45.47822" lon="5.5286">
        <ele>684.12</ele>
        <time>2021-07-18T11:39:16Z</time>
      </trkpt>
      <trkpt lat="45.47813" lon="5.52852">
        <ele>685.08</ele>
        <time>2021-07-18T11:39:21Z</time>
      </trkpt>
      <trkpt lat="45.47811" lon="5.52851">
        <ele>685.08</ele>
        <time>2021-07-18T11:39:22Z</time>
      </trkpt>
      <trkpt lat="45.47809" lon="5.5285">
        <ele>685.08</ele>
        <time>2021-07-18T11:39:23Z</time>
      </trkpt>
      <trkpt lat="45.47807" lon="5.52846">
        <ele>685.56</ele>
        <time>2021-07-18T11:39:24Z</time>
      </trkpt>
      <trkpt lat="45.47803" lon="5.52843">
        <ele>685.56</ele>
        <time>2021-07-18T11:39:25Z</time>
      </trkpt>
      <trkpt lat="45.478" lon="5.5284">
        <ele>686.04</ele>
        <time>2021-07-18T11:39:26Z</time>
      </trkpt>
      <trkpt lat="45.47798" lon="5.52839">
        <ele>686.04</ele>
        <time>2021-07-18T11:39:27Z</time>
      </trkpt>
      <trkpt lat="45.47781" lon="5.52835">
        <ele>687.48</ele>
        <time>2021-07-18T11:39:36Z</time>
      </trkpt>
      <trkpt lat="45.47758" lon="5.52831">
        <ele>689.4</ele>
        <time>2021-07-18T11:39:51Z</time>
      </trkpt>
      <trkpt lat="45.47739" lon="5.52828">
        <ele>691.33</ele>
        <time>2021-07-18T11:40:05Z</time>
      </trkpt>
      <trkpt lat="45.47719" lon="5.52816">
        <ele>692.29</ele>
        <time>2021-07-18T11:40:21Z</time>
      </trkpt>
      <trkpt lat="45.47703" lon="5.52804">
        <ele>693.25</ele>
        <time>2021-07-18T11:40:33Z</time>
      </trkpt>
      <trkpt lat="45.477" lon="5.52804">
        <ele>693.73</ele>
        <time>2021-07-18T11:40:35Z</time>
      </trkpt>
      <trkpt lat="45.47698" lon="5.52803">
        <ele>693.73</ele>
        <time>2021-07-18T11:40:36Z</time>
      </trkpt>
      <trkpt lat="45.47696" lon="5.52802">
        <ele>693.73</ele>
        <time>2021-07-18T11:40:37Z</time>
      </trkpt>
      <trkpt lat="45.47694" lon="5.52799">
        <ele>694.21</ele>
        <time>2021-07-18T11:40:39Z</time>
      </trkpt>
      <trkpt lat="45.47692" lon="5.52795">
        <ele>694.21</ele>
        <time>2021-07-18T11:40:42Z</time>
      </trkpt>
      <trkpt lat="45.47691" lon="5.52793">
        <ele>694.21</ele>
        <time>2021-07-18T11:40:43Z</time>
      </trkpt>
      <trkpt lat="45.47689" lon="5.52792">
        <ele>694.21</ele>
        <time>2021-07-18T11:40:44Z</time>
      </trkpt>
      <trkpt lat="45.47682" lon="5.52786">
        <ele>694.21</ele>
        <time>2021-07-18T11:40:50Z</time>
      </trkpt>
      <trkpt lat="45.47679" lon="5.52785">
        <ele>694.21</ele>
        <time>2021-07-18T11:40:51Z</time>
      </trkpt>
      <trkpt lat="45.47676" lon="5.52782">
        <ele>694.21</ele>
        <time>2021-07-18T11:40:52Z</time>
      </trkpt>
      <trkpt lat="45.47673" lon="5.5278">
        <ele>694.21</ele>
        <time>2021-07-18T11:40:53Z</time>
      </trkpt>
      <trkpt lat="45.4767" lon="5.52778">
        <ele>694.21</ele>
        <time>2021-07-18T11:40:54Z</time>
      </trkpt>
      <trkpt lat="45.47633" lon="5.52757">
        <ele>692.77</ele>
        <time>2021-07-18T11:41:07Z</time>
      </trkpt>
      <trkpt lat="45.47591" lon="5.52744">
        <ele>692.77</ele>
        <time>2021-07-18T11:41:22Z</time>
      </trkpt>
      <trkpt lat="45.47557" lon="5.52721">
        <ele>691.81</ele>
        <time>2021-07-18T11:41:34Z</time>
      </trkpt>
      <trkpt lat="45.47521" lon="5.52697">
        <ele>691.81</ele>
        <time>2021-07-18T11:41:48Z</time>
      </trkpt>
      <trkpt lat="45.47503" lon="5.52696">
        <ele>693.25</ele>
        <time>2021-07-18T11:41:58Z</time>
      </trkpt>
      <trkpt lat="45.47482" lon="5.52696">
        <ele>694.69</ele>
        <time>2021-07-18T11:42:12Z</time>
      </trkpt>
      <trkpt lat="45.47453" lon="5.52686">
        <ele>695.17</ele>
        <time>2021-07-18T11:42:27Z</time>
      </trkpt>
      <trkpt lat="45.47427" lon="5.52671">
        <ele>696.13</ele>
        <time>2021-07-18T11:42:43Z</time>
      </trkpt>
      <trkpt lat="45.47409" lon="5.52666">
        <ele>698.05</ele>
        <time>2021-07-18T11:42:57Z</time>
      </trkpt>
      <trkpt lat="45.47406" lon="5.52665">
        <ele>698.05</ele>
        <time>2021-07-18T11:42:59Z</time>
      </trkpt>
      <trkpt lat="45.47404" lon="5.52664">
        <ele>698.05</ele>
        <time>2021-07-18T11:43:00Z</time>
      </trkpt>
      <trkpt lat="45.47403" lon="5.52663">
        <ele>698.53</ele>
        <time>2021-07-18T11:43:01Z</time>
      </trkpt>
      <trkpt lat="45.47385" lon="5.52656">
        <ele>699.02</ele>
        <time>2021-07-18T11:43:11Z</time>
      </trkpt>
      <trkpt lat="45.47365" lon="5.52652">
        <ele>699.5</ele>
        <time>2021-07-18T11:43:22Z</time>
      </trkpt>
      <trkpt lat="45.47331" lon="5.52644">
        <ele>699.98</ele>
        <time>2021-07-18T11:43:34Z</time>
      </trkpt>
      <trkpt lat="45.47306" lon="5.52625">
        <ele>700.94</ele>
        <time>2021-07-18T11:43:47Z</time>
      </trkpt>
      <trkpt lat="45.47278" lon="5.52606">
        <ele>701.9</ele>
        <time>2021-07-18T11:44:01Z</time>
      </trkpt>
      <trkpt lat="45.47267" lon="5.52596">
        <ele>702.38</ele>
        <time>2021-07-18T11:44:08Z</time>
      </trkpt>
      <trkpt lat="45.47235" lon="5.52593">
        <ele>703.82</ele>
        <time>2021-07-18T11:44:19Z</time>
      </trkpt>
      <trkpt lat="45.47217" lon="5.52574">
        <ele>702.86</ele>
        <time>2021-07-18T11:44:30Z</time>
      </trkpt>
      <trkpt lat="45.47216" lon="5.52569">
        <ele>702.86</ele>
        <time>2021-07-18T11:44:32Z</time>
      </trkpt>
      <trkpt lat="45.47214" lon="5.52567">
        <ele>701.9</ele>
        <time>2021-07-18T11:44:33Z</time>
      </trkpt>
      <trkpt lat="45.47214" lon="5.52565">
        <ele>701.9</ele>
        <time>2021-07-18T11:44:34Z</time>
      </trkpt>
      <trkpt lat="45.47212" lon="5.52563">
        <ele>701.9</ele>
        <time>2021-07-18T11:44:35Z</time>
      </trkpt>
      <trkpt lat="45.47211" lon="5.52561">
        <ele>701.9</ele>
        <time>2021-07-18T11:44:36Z</time>
      </trkpt>
      <trkpt lat="45.4721" lon="5.52559">
        <ele>701.9</ele>
        <time>2021-07-18T11:44:37Z</time>
      </trkpt>
      <trkpt lat="45.47209" lon="5.52558">
        <ele>701.9</ele>
        <time>2021-07-18T11:44:38Z</time>
      </trkpt>
      <trkpt lat="45.47208" lon="5.52556">
        <ele>701.9</ele>
        <time>2021-07-18T11:44:39Z</time>
      </trkpt>
      <trkpt lat="45.47201" lon="5.52546">
        <ele>701.9</ele>
        <time>2021-07-18T11:44:46Z</time>
      </trkpt>
      <trkpt lat="45.472" lon="5.52544">
        <ele>701.9</ele>
        <time>2021-07-18T11:44:47Z</time>
      </trkpt>
      <trkpt lat="45.47185" lon="5.52527">
        <ele>702.38</ele>
        <time>2021-07-18T11:44:57Z</time>
      </trkpt>
      <trkpt lat="45.47183" lon="5.52525">
        <ele>702.38</ele>
        <time>2021-07-18T11:44:58Z</time>
      </trkpt>
      <trkpt lat="45.47182" lon="5.52523">
        <ele>702.38</ele>
        <time>2021-07-18T11:44:59Z</time>
      </trkpt>
      <trkpt lat="45.47158" lon="5.525">
        <ele>701.9</ele>
        <time>2021-07-18T11:45:12Z</time>
      </trkpt>
      <trkpt lat="45.47127" lon="5.5247">
        <ele>700.46</ele>
        <time>2021-07-18T11:45:23Z</time>
      </trkpt>
      <trkpt lat="45.4712" lon="5.5246">
        <ele>699.5</ele>
        <time>2021-07-18T11:45:27Z</time>
      </trkpt>
      <trkpt lat="45.47118" lon="5.52458">
        <ele>699.5</ele>
        <time>2021-07-18T11:45:28Z</time>
      </trkpt>
      <trkpt lat="45.47116" lon="5.52456">
        <ele>699.5</ele>
        <time>2021-07-18T11:45:29Z</time>
      </trkpt>
      <trkpt lat="45.47095" lon="5.52444">
        <ele>699.5</ele>
        <time>2021-07-18T11:45:39Z</time>
      </trkpt>
      <trkpt lat="45.4709" lon="5.52442">
        <ele>700.94</ele>
        <time>2021-07-18T11:45:41Z</time>
      </trkpt>
      <trkpt lat="45.47088" lon="5.52442">
        <ele>701.42</ele>
        <time>2021-07-18T11:45:42Z</time>
      </trkpt>
      <trkpt lat="45.47086" lon="5.52442">
        <ele>701.42</ele>
        <time>2021-07-18T11:45:43Z</time>
      </trkpt>
      <trkpt lat="45.47084" lon="5.52442">
        <ele>701.9</ele>
        <time>2021-07-18T11:45:44Z</time>
      </trkpt>
      <trkpt lat="45.47082" lon="5.52442">
        <ele>701.9</ele>
        <time>2021-07-18T11:45:45Z</time>
      </trkpt>
      <trkpt lat="45.4708" lon="5.52442">
        <ele>702.38</ele>
        <time>2021-07-18T11:45:46Z</time>
      </trkpt>
      <trkpt lat="45.47072" lon="5.52443">
        <ele>703.34</ele>
        <time>2021-07-18T11:45:50Z</time>
      </trkpt>
      <trkpt lat="45.47071" lon="5.52444">
        <ele>703.34</ele>
        <time>2021-07-18T11:45:51Z</time>
      </trkpt>
      <trkpt lat="45.4705" lon="5.52461">
        <ele>704.3</ele>
        <time>2021-07-18T11:46:02Z</time>
      </trkpt>
      <trkpt lat="45.4703" lon="5.52475">
        <ele>704.3</ele>
        <time>2021-07-18T11:46:13Z</time>
      </trkpt>
      <trkpt lat="45.47028" lon="5.52478">
        <ele>704.3</ele>
        <time>2021-07-18T11:46:14Z</time>
      </trkpt>
      <trkpt lat="45.47026" lon="5.5248">
        <ele>704.3</ele>
        <time>2021-07-18T11:46:15Z</time>
      </trkpt>
      <trkpt lat="45.47024" lon="5.52483">
        <ele>704.3</ele>
        <time>2021-07-18T11:46:16Z</time>
      </trkpt>
      <trkpt lat="45.47022" lon="5.52486">
        <ele>704.3</ele>
        <time>2021-07-18T11:46:17Z</time>
      </trkpt>
      <trkpt lat="45.47019" lon="5.5249">
        <ele>704.3</ele>
        <time>2021-07-18T11:46:18Z</time>
      </trkpt>
      <trkpt lat="45.47017" lon="5.52493">
        <ele>704.3</ele>
        <time>2021-07-18T11:46:19Z</time>
      </trkpt>
      <trkpt lat="45.47014" lon="5.52495">
        <ele>704.3</ele>
        <time>2021-07-18T11:46:20Z</time>
      </trkpt>
      <trkpt lat="45.47005" lon="5.52507">
        <ele>704.3</ele>
        <time>2021-07-18T11:46:24Z</time>
      </trkpt>
      <trkpt lat="45.47" lon="5.52531">
        <ele>704.78</ele>
        <time>2021-07-18T11:46:33Z</time>
      </trkpt>
      <trkpt lat="45.47" lon="5.52534">
        <ele>704.78</ele>
        <time>2021-07-18T11:46:34Z</time>
      </trkpt>
      <trkpt lat="45.47001" lon="5.52537">
        <ele>704.78</ele>
        <time>2021-07-18T11:46:35Z</time>
      </trkpt>
      <trkpt lat="45.47001" lon="5.5254">
        <ele>704.78</ele>
        <time>2021-07-18T11:46:36Z</time>
      </trkpt>
      <trkpt lat="45.47002" lon="5.52542">
        <ele>704.78</ele>
        <time>2021-07-18T11:46:37Z</time>
      </trkpt>
      <trkpt lat="45.47001" lon="5.52544">
        <ele>704.78</ele>
        <time>2021-07-18T11:46:38Z</time>
      </trkpt>
      <trkpt lat="45.47006" lon="5.52584">
        <ele>703.34</ele>
        <time>2021-07-18T11:46:49Z</time>
      </trkpt>
      <trkpt lat="45.47006" lon="5.52605">
        <ele>699.98</ele>
        <time>2021-07-18T11:46:54Z</time>
      </trkpt>
      <trkpt lat="45.47005" lon="5.52621">
        <ele>697.09</ele>
        <time>2021-07-18T11:46:57Z</time>
      </trkpt>
      <trkpt lat="45.47005" lon="5.52645">
        <ele>693.73</ele>
        <time>2021-07-18T11:47:01Z</time>
      </trkpt>
      <trkpt lat="45.47005" lon="5.52652">
        <ele>693.25</ele>
        <time>2021-07-18T11:47:02Z</time>
      </trkpt>
      <trkpt lat="45.47005" lon="5.52659">
        <ele>693.25</ele>
        <time>2021-07-18T11:47:03Z</time>
      </trkpt>
      <trkpt lat="45.47007" lon="5.52675">
        <ele>691.81</ele>
        <time>2021-07-18T11:47:06Z</time>
      </trkpt>
      <trkpt lat="45.47008" lon="5.52681">
        <ele>690.84</ele>
        <time>2021-07-18T11:47:07Z</time>
      </trkpt>
      <trkpt lat="45.47008" lon="5.52687">
        <ele>690.36</ele>
        <time>2021-07-18T11:47:08Z</time>
      </trkpt>
      <trkpt lat="45.47011" lon="5.52707">
        <ele>689.4</ele>
        <time>2021-07-18T11:47:11Z</time>
      </trkpt>
      <trkpt lat="45.47011" lon="5.52714">
        <ele>689.4</ele>
        <time>2021-07-18T11:47:12Z</time>
      </trkpt>
      <trkpt lat="45.47009" lon="5.52726">
        <ele>688.92</ele>
        <time>2021-07-18T11:47:14Z</time>
      </trkpt>
      <trkpt lat="45.47007" lon="5.52727">
        <ele>688.92</ele>
        <time>2021-07-18T11:47:15Z</time>
      </trkpt>
      <trkpt lat="45.47006" lon="5.52726">
        <ele>688.92</ele>
        <time>2021-07-18T11:47:16Z</time>
      </trkpt>
      <trkpt lat="45.47004" lon="5.52725">
        <ele>688.92</ele>
        <time>2021-07-18T11:47:17Z</time>
      </trkpt>
      <trkpt lat="45.47003" lon="5.52724">
        <ele>689.4</ele>
        <time>2021-07-18T11:47:32Z</time>
      </trkpt>
      <trkpt lat="45.47001" lon="5.52724">
        <ele>689.4</ele>
        <time>2021-07-18T11:48:03Z</time>
      </trkpt>
      <trkpt lat="45.47001" lon="5.52722">
        <ele>689.4</ele>
        <time>2021-07-18T11:48:05Z</time>
      </trkpt>
      <trkpt lat="45.47" lon="5.5272">
        <ele>689.4</ele>
        <time>2021-07-18T11:48:06Z</time>
      </trkpt>
      <trkpt lat="45.47" lon="5.52719">
        <ele>689.4</ele>
        <time>2021-07-18T11:48:07Z</time>
      </trkpt>
      <trkpt lat="45.46999" lon="5.52717">
        <ele>689.4</ele>
        <time>2021-07-18T11:48:08Z</time>
      </trkpt>
      <trkpt lat="45.46999" lon="5.52715">
        <ele>689.4</ele>
        <time>2021-07-18T11:48:09Z</time>
      </trkpt>
      <trkpt lat="45.46997" lon="5.52714">
        <ele>689.4</ele>
        <time>2021-07-18T11:48:10Z</time>
      </trkpt>
      <trkpt lat="45.46996" lon="5.52713">
        <ele>689.4</ele>
        <time>2021-07-18T11:48:11Z</time>
      </trkpt>
      <trkpt lat="45.46995" lon="5.52712">
        <ele>689.4</ele>
        <time>2021-07-18T11:48:12Z</time>
      </trkpt>
      <trkpt lat="45.46983" lon="5.52702">
        <ele>690.84</ele>
        <time>2021-07-18T11:48:22Z</time>
      </trkpt>
      <trkpt lat="45.46978" lon="5.527">
        <ele>691.33</ele>
        <time>2021-07-18T11:48:27Z</time>
      </trkpt>
      <trkpt lat="45.46974" lon="5.52707">
        <ele>691.33</ele>
        <time>2021-07-18T11:48:34Z</time>
      </trkpt>
      <trkpt lat="45.46967" lon="5.52716">
        <ele>691.33</ele>
        <time>2021-07-18T11:48:43Z</time>
      </trkpt>
      <trkpt lat="45.46966" lon="5.52721">
        <ele>689.88</ele>
        <time>2021-07-18T11:48:45Z</time>
      </trkpt>
      <trkpt lat="45.46965" lon="5.52723">
        <ele>689.88</ele>
        <time>2021-07-18T11:48:46Z</time>
      </trkpt>
      <trkpt lat="45.46964" lon="5.52726">
        <ele>689.88</ele>
        <time>2021-07-18T11:48:48Z</time>
      </trkpt>
      <trkpt lat="45.46959" lon="5.52728">
        <ele>689.88</ele>
        <time>2021-07-18T11:48:53Z</time>
      </trkpt>
      <trkpt lat="45.46945" lon="5.52732">
        <ele>691.33</ele>
        <time>2021-07-18T11:49:02Z</time>
      </trkpt>
      <trkpt lat="45.46923" lon="5.52734">
        <ele>691.81</ele>
        <time>2021-07-18T11:49:14Z</time>
      </trkpt>
      <trkpt lat="45.46921" lon="5.52734">
        <ele>691.81</ele>
        <time>2021-07-18T11:49:15Z</time>
      </trkpt>
      <trkpt lat="45.46914" lon="5.52738">
        <ele>692.29</ele>
        <time>2021-07-18T11:49:20Z</time>
      </trkpt>
      <trkpt lat="45.46876" lon="5.52757">
        <ele>692.77</ele>
        <time>2021-07-18T11:49:36Z</time>
      </trkpt>
      <trkpt lat="45.46836" lon="5.52764">
        <ele>693.25</ele>
        <time>2021-07-18T11:49:50Z</time>
      </trkpt>
      <trkpt lat="45.46827" lon="5.5276">
        <ele>691.81</ele>
        <time>2021-07-18T11:49:54Z</time>
      </trkpt>
      <trkpt lat="45.46816" lon="5.52756">
        <ele>691.81</ele>
        <time>2021-07-18T11:50:00Z</time>
      </trkpt>
      <trkpt lat="45.46814" lon="5.52755">
        <ele>691.81</ele>
        <time>2021-07-18T11:50:01Z</time>
      </trkpt>
      <trkpt lat="45.46788" lon="5.52746">
        <ele>691.81</ele>
        <time>2021-07-18T11:50:11Z</time>
      </trkpt>
      <trkpt lat="45.46759" lon="5.52734">
        <ele>691.81</ele>
        <time>2021-07-18T11:50:23Z</time>
      </trkpt>
      <trkpt lat="45.46724" lon="5.5273">
        <ele>689.4</ele>
        <time>2021-07-18T11:50:35Z</time>
      </trkpt>
      <trkpt lat="45.46694" lon="5.52734">
        <ele>686.04</ele>
        <time>2021-07-18T11:50:46Z</time>
      </trkpt>
      <trkpt lat="45.4666" lon="5.52719">
        <ele>684.6</ele>
        <time>2021-07-18T11:50:56Z</time>
      </trkpt>
      <trkpt lat="45.46626" lon="5.52715">
        <ele>682.19</ele>
        <time>2021-07-18T11:51:07Z</time>
      </trkpt>
      <trkpt lat="45.4659" lon="5.52714">
        <ele>679.31</ele>
        <time>2021-07-18T11:51:18Z</time>
      </trkpt>
      <trkpt lat="45.46552" lon="5.52696">
        <ele>676.91</ele>
        <time>2021-07-18T11:51:28Z</time>
      </trkpt>
      <trkpt lat="45.4654" lon="5.52686">
        <ele>675.94</ele>
        <time>2021-07-18T11:51:34Z</time>
      </trkpt>
      <trkpt lat="45.46541" lon="5.52706">
        <ele>674.98</ele>
        <time>2021-07-18T11:51:43Z</time>
      </trkpt>
      <trkpt lat="45.46553" lon="5.52744">
        <ele>672.1</ele>
        <time>2021-07-18T11:51:52Z</time>
      </trkpt>
      <trkpt lat="45.46559" lon="5.52759">
        <ele>672.1</ele>
        <time>2021-07-18T11:51:55Z</time>
      </trkpt>
      <trkpt lat="45.4658" lon="5.528">
        <ele>671.62</ele>
        <time>2021-07-18T11:52:06Z</time>
      </trkpt>
      <trkpt lat="45.46606" lon="5.52836">
        <ele>671.62</ele>
        <time>2021-07-18T11:52:19Z</time>
      </trkpt>
      <trkpt lat="45.4663" lon="5.52866">
        <ele>673.06</ele>
        <time>2021-07-18T11:52:31Z</time>
      </trkpt>
      <trkpt lat="45.46659" lon="5.52885">
        <ele>674.5</ele>
        <time>2021-07-18T11:52:44Z</time>
      </trkpt>
      <trkpt lat="45.46665" lon="5.52888">
        <ele>674.5</ele>
        <time>2021-07-18T11:52:59Z</time>
      </trkpt>
      <trkpt lat="45.46665" lon="5.52889">
        <ele>674.5</ele>
        <time>2021-07-18T11:53:33Z</time>
      </trkpt>
      <trkpt lat="45.46664" lon="5.52888">
        <ele>674.5</ele>
        <time>2021-07-18T11:54:03Z</time>
      </trkpt>
      <trkpt lat="45.46662" lon="5.5289">
        <ele>674.5</ele>
        <time>2021-07-18T11:54:43Z</time>
      </trkpt>
      <trkpt lat="45.46673" lon="5.52896">
        <ele>674.5</ele>
        <time>2021-07-18T11:55:02Z</time>
      </trkpt>
      <trkpt lat="45.46684" lon="5.52904">
        <ele>673.54</ele>
        <time>2021-07-18T11:55:06Z</time>
      </trkpt>
      <trkpt lat="45.46707" lon="5.52934">
        <ele>670.18</ele>
        <time>2021-07-18T11:55:15Z</time>
      </trkpt>
      <trkpt lat="45.46725" lon="5.52965">
        <ele>667.77</ele>
        <time>2021-07-18T11:55:21Z</time>
      </trkpt>
      <trkpt lat="45.46729" lon="5.52969">
        <ele>667.29</ele>
        <time>2021-07-18T11:55:22Z</time>
      </trkpt>
      <trkpt lat="45.46779" lon="5.53022">
        <ele>663.93</ele>
        <time>2021-07-18T11:55:36Z</time>
      </trkpt>
      <trkpt lat="45.46827" lon="5.53053">
        <ele>662.01</ele>
        <time>2021-07-18T11:55:48Z</time>
      </trkpt>
      <trkpt lat="45.46882" lon="5.53084">
        <ele>660.08</ele>
        <time>2021-07-18T11:56:03Z</time>
      </trkpt>
      <trkpt lat="45.46928" lon="5.53119">
        <ele>658.64</ele>
        <time>2021-07-18T11:56:15Z</time>
      </trkpt>
      <trkpt lat="45.46928" lon="5.53124">
        <ele>658.64</ele>
        <time>2021-07-18T11:56:16Z</time>
      </trkpt>
      <trkpt lat="45.46928" lon="5.5313">
        <ele>657.68</ele>
        <time>2021-07-18T11:56:17Z</time>
      </trkpt>
      <trkpt lat="45.46927" lon="5.53135">
        <ele>657.2</ele>
        <time>2021-07-18T11:56:18Z</time>
      </trkpt>
      <trkpt lat="45.46926" lon="5.5314">
        <ele>656.72</ele>
        <time>2021-07-18T11:56:19Z</time>
      </trkpt>
      <trkpt lat="45.46923" lon="5.53145">
        <ele>656.24</ele>
        <time>2021-07-18T11:56:20Z</time>
      </trkpt>
      <trkpt lat="45.46921" lon="5.53149">
        <ele>655.28</ele>
        <time>2021-07-18T11:56:21Z</time>
      </trkpt>
      <trkpt lat="45.46917" lon="5.53152">
        <ele>654.8</ele>
        <time>2021-07-18T11:56:22Z</time>
      </trkpt>
      <trkpt lat="45.46913" lon="5.53155">
        <ele>654.31</ele>
        <time>2021-07-18T11:56:23Z</time>
      </trkpt>
      <trkpt lat="45.46909" lon="5.53157">
        <ele>653.83</ele>
        <time>2021-07-18T11:56:24Z</time>
      </trkpt>
      <trkpt lat="45.46905" lon="5.53159">
        <ele>653.35</ele>
        <time>2021-07-18T11:56:25Z</time>
      </trkpt>
      <trkpt lat="45.46901" lon="5.53161">
        <ele>652.87</ele>
        <time>2021-07-18T11:56:26Z</time>
      </trkpt>
      <trkpt lat="45.46884" lon="5.53166">
        <ele>650.47</ele>
        <time>2021-07-18T11:56:30Z</time>
      </trkpt>
      <trkpt lat="45.4685" lon="5.53176">
        <ele>646.62</ele>
        <time>2021-07-18T11:56:37Z</time>
      </trkpt>
      <trkpt lat="45.4682" lon="5.53186">
        <ele>643.74</ele>
        <time>2021-07-18T11:56:43Z</time>
      </trkpt>
      <trkpt lat="45.46815" lon="5.53188">
        <ele>642.78</ele>
        <time>2021-07-18T11:56:44Z</time>
      </trkpt>
      <trkpt lat="45.46795" lon="5.53192">
        <ele>641.34</ele>
        <time>2021-07-18T11:56:48Z</time>
      </trkpt>
      <trkpt lat="45.46767" lon="5.53202">
        <ele>638.45</ele>
        <time>2021-07-18T11:56:54Z</time>
      </trkpt>
      <trkpt lat="45.46764" lon="5.53204">
        <ele>638.45</ele>
        <time>2021-07-18T11:56:55Z</time>
      </trkpt>
      <trkpt lat="45.46761" lon="5.53204">
        <ele>638.45</ele>
        <time>2021-07-18T11:56:56Z</time>
      </trkpt>
      <trkpt lat="45.46759" lon="5.53202">
        <ele>638.45</ele>
        <time>2021-07-18T11:56:57Z</time>
      </trkpt>
      <trkpt lat="45.46756" lon="5.53201">
        <ele>638.45</ele>
        <time>2021-07-18T11:56:58Z</time>
      </trkpt>
      <trkpt lat="45.46755" lon="5.53198">
        <ele>637.97</ele>
        <time>2021-07-18T11:56:59Z</time>
      </trkpt>
      <trkpt lat="45.46753" lon="5.53196">
        <ele>637.97</ele>
        <time>2021-07-18T11:57:00Z</time>
      </trkpt>
      <trkpt lat="45.46753" lon="5.53193">
        <ele>638.45</ele>
        <time>2021-07-18T11:57:01Z</time>
      </trkpt>
      <trkpt lat="45.46753" lon="5.53191">
        <ele>637.97</ele>
        <time>2021-07-18T11:57:02Z</time>
      </trkpt>
      <trkpt lat="45.4675" lon="5.53178">
        <ele>638.45</ele>
        <time>2021-07-18T11:57:07Z</time>
      </trkpt>
      <trkpt lat="45.46749" lon="5.53177">
        <ele>639.41</ele>
        <time>2021-07-18T11:57:08Z</time>
      </trkpt>
      <trkpt lat="45.46748" lon="5.53175">
        <ele>639.41</ele>
        <time>2021-07-18T11:57:09Z</time>
      </trkpt>
      <trkpt lat="45.46748" lon="5.53173">
        <ele>639.89</ele>
        <time>2021-07-18T11:57:10Z</time>
      </trkpt>
      <trkpt lat="45.46747" lon="5.53171">
        <ele>640.38</ele>
        <time>2021-07-18T11:57:11Z</time>
      </trkpt>
      <trkpt lat="45.46746" lon="5.53169">
        <ele>640.38</ele>
        <time>2021-07-18T11:57:12Z</time>
      </trkpt>
      <trkpt lat="45.46744" lon="5.53167">
        <ele>640.86</ele>
        <time>2021-07-18T11:57:13Z</time>
      </trkpt>
      <trkpt lat="45.46743" lon="5.53166">
        <ele>640.86</ele>
        <time>2021-07-18T11:57:14Z</time>
      </trkpt>
      <trkpt lat="45.46742" lon="5.53165">
        <ele>641.34</ele>
        <time>2021-07-18T11:57:15Z</time>
      </trkpt>
      <trkpt lat="45.46741" lon="5.53163">
        <ele>641.82</ele>
        <time>2021-07-18T11:57:16Z</time>
      </trkpt>
      <trkpt lat="45.46739" lon="5.5316">
        <ele>641.82</ele>
        <time>2021-07-18T11:57:18Z</time>
      </trkpt>
      <trkpt lat="45.46738" lon="5.53158">
        <ele>642.3</ele>
        <time>2021-07-18T11:57:19Z</time>
      </trkpt>
      <trkpt lat="45.46737" lon="5.53156">
        <ele>642.3</ele>
        <time>2021-07-18T11:57:20Z</time>
      </trkpt>
      <trkpt lat="45.46735" lon="5.53154">
        <ele>642.3</ele>
        <time>2021-07-18T11:57:21Z</time>
      </trkpt>
      <trkpt lat="45.46733" lon="5.53153">
        <ele>642.3</ele>
        <time>2021-07-18T11:57:22Z</time>
      </trkpt>
      <trkpt lat="45.46732" lon="5.53151">
        <ele>642.78</ele>
        <time>2021-07-18T11:57:23Z</time>
      </trkpt>
      <trkpt lat="45.46708" lon="5.53136">
        <ele>643.74</ele>
        <time>2021-07-18T11:57:36Z</time>
      </trkpt>
      <trkpt lat="45.46665" lon="5.53116">
        <ele>643.74</ele>
        <time>2021-07-18T11:57:52Z</time>
      </trkpt>
      <trkpt lat="45.46614" lon="5.53102">
        <ele>644.7</ele>
        <time>2021-07-18T11:58:10Z</time>
      </trkpt>
      <trkpt lat="45.46606" lon="5.53101">
        <ele>644.7</ele>
        <time>2021-07-18T11:58:12Z</time>
      </trkpt>
      <trkpt lat="45.46559" lon="5.53102">
        <ele>643.26</ele>
        <time>2021-07-18T11:58:26Z</time>
      </trkpt>
      <trkpt lat="45.46523" lon="5.53085">
        <ele>642.3</ele>
        <time>2021-07-18T11:58:39Z</time>
      </trkpt>
      <trkpt lat="45.46493" lon="5.53065">
        <ele>639.41</ele>
        <time>2021-07-18T11:58:48Z</time>
      </trkpt>
      <trkpt lat="45.46442" lon="5.5304">
        <ele>636.05</ele>
        <time>2021-07-18T11:59:01Z</time>
      </trkpt>
      <trkpt lat="45.46412" lon="5.53038">
        <ele>632.68</ele>
        <time>2021-07-18T11:59:11Z</time>
      </trkpt>
      <trkpt lat="45.46389" lon="5.53041">
        <ele>629.32</ele>
        <time>2021-07-18T11:59:19Z</time>
      </trkpt>
      <trkpt lat="45.46352" lon="5.53056">
        <ele>626.44</ele>
        <time>2021-07-18T11:59:29Z</time>
      </trkpt>
      <trkpt lat="45.46325" lon="5.53058">
        <ele>625.96</ele>
        <time>2021-07-18T11:59:38Z</time>
      </trkpt>
      <trkpt lat="45.46297" lon="5.53053">
        <ele>625.47</ele>
        <time>2021-07-18T11:59:49Z</time>
      </trkpt>
      <trkpt lat="45.46295" lon="5.53054">
        <ele>625.47</ele>
        <time>2021-07-18T11:59:50Z</time>
      </trkpt>
      <trkpt lat="45.4628" lon="5.53066">
        <ele>626.92</ele>
        <time>2021-07-18T11:59:58Z</time>
      </trkpt>
      <trkpt lat="45.46254" lon="5.53095">
        <ele>627.4</ele>
        <time>2021-07-18T12:00:12Z</time>
      </trkpt>
      <trkpt lat="45.46246" lon="5.53105">
        <ele>627.4</ele>
        <time>2021-07-18T12:00:17Z</time>
      </trkpt>
      <trkpt lat="45.46244" lon="5.53106">
        <ele>627.4</ele>
        <time>2021-07-18T12:00:18Z</time>
      </trkpt>
      <trkpt lat="45.46242" lon="5.53107">
        <ele>627.4</ele>
        <time>2021-07-18T12:00:19Z</time>
      </trkpt>
      <trkpt lat="45.4624" lon="5.53109">
        <ele>627.4</ele>
        <time>2021-07-18T12:00:20Z</time>
      </trkpt>
      <trkpt lat="45.46238" lon="5.5311">
        <ele>627.4</ele>
        <time>2021-07-18T12:00:21Z</time>
      </trkpt>
      <trkpt lat="45.46231" lon="5.53114">
        <ele>625.96</ele>
        <time>2021-07-18T12:00:24Z</time>
      </trkpt>
      <trkpt lat="45.46214" lon="5.53119">
        <ele>623.07</ele>
        <time>2021-07-18T12:00:30Z</time>
      </trkpt>
      <trkpt lat="45.46211" lon="5.5312">
        <ele>623.07</ele>
        <time>2021-07-18T12:00:31Z</time>
      </trkpt>
      <trkpt lat="45.46174" lon="5.5313">
        <ele>621.63</ele>
        <time>2021-07-18T12:00:43Z</time>
      </trkpt>
      <trkpt lat="45.46154" lon="5.53124">
        <ele>622.11</ele>
        <time>2021-07-18T12:00:53Z</time>
      </trkpt>
      <trkpt lat="45.46152" lon="5.53123">
        <ele>622.11</ele>
        <time>2021-07-18T12:00:54Z</time>
      </trkpt>
      <trkpt lat="45.46149" lon="5.53121">
        <ele>622.11</ele>
        <time>2021-07-18T12:00:55Z</time>
      </trkpt>
      <trkpt lat="45.46148" lon="5.5312">
        <ele>622.11</ele>
        <time>2021-07-18T12:00:56Z</time>
      </trkpt>
      <trkpt lat="45.46145" lon="5.53118">
        <ele>622.11</ele>
        <time>2021-07-18T12:00:57Z</time>
      </trkpt>
      <trkpt lat="45.46127" lon="5.53102">
        <ele>622.11</ele>
        <time>2021-07-18T12:01:08Z</time>
      </trkpt>
      <trkpt lat="45.46126" lon="5.531">
        <ele>622.11</ele>
        <time>2021-07-18T12:01:09Z</time>
      </trkpt>
      <trkpt lat="45.46125" lon="5.53098">
        <ele>623.07</ele>
        <time>2021-07-18T12:01:10Z</time>
      </trkpt>
      <trkpt lat="45.46124" lon="5.53097">
        <ele>623.07</ele>
        <time>2021-07-18T12:01:11Z</time>
      </trkpt>
      <trkpt lat="45.46122" lon="5.53094">
        <ele>623.55</ele>
        <time>2021-07-18T12:01:12Z</time>
      </trkpt>
      <trkpt lat="45.46121" lon="5.53093">
        <ele>623.55</ele>
        <time>2021-07-18T12:01:13Z</time>
      </trkpt>
      <trkpt lat="45.46119" lon="5.53091">
        <ele>623.55</ele>
        <time>2021-07-18T12:01:14Z</time>
      </trkpt>
      <trkpt lat="45.46102" lon="5.5306">
        <ele>625.47</ele>
        <time>2021-07-18T12:01:26Z</time>
      </trkpt>
      <trkpt lat="45.46085" lon="5.53031">
        <ele>625.96</ele>
        <time>2021-07-18T12:01:35Z</time>
      </trkpt>
      <trkpt lat="45.46064" lon="5.53002">
        <ele>626.44</ele>
        <time>2021-07-18T12:01:46Z</time>
      </trkpt>
      <trkpt lat="45.4605" lon="5.52968">
        <ele>627.4</ele>
        <time>2021-07-18T12:01:58Z</time>
      </trkpt>
      <trkpt lat="45.46045" lon="5.52956">
        <ele>628.36</ele>
        <time>2021-07-18T12:02:03Z</time>
      </trkpt>
      <trkpt lat="45.46044" lon="5.52953">
        <ele>628.36</ele>
        <time>2021-07-18T12:02:04Z</time>
      </trkpt>
      <trkpt lat="45.46032" lon="5.52917">
        <ele>629.32</ele>
        <time>2021-07-18T12:02:18Z</time>
      </trkpt>
      <trkpt lat="45.46021" lon="5.52887">
        <ele>630.76</ele>
        <time>2021-07-18T12:02:29Z</time>
      </trkpt>
      <trkpt lat="45.46019" lon="5.52884">
        <ele>630.76</ele>
        <time>2021-07-18T12:02:30Z</time>
      </trkpt>
      <trkpt lat="45.46019" lon="5.52883">
        <ele>630.76</ele>
        <time>2021-07-18T12:02:31Z</time>
      </trkpt>
      <trkpt lat="45.4601" lon="5.52873">
        <ele>630.76</ele>
        <time>2021-07-18T12:02:34Z</time>
      </trkpt>
      <trkpt lat="45.46008" lon="5.5287">
        <ele>629.8</ele>
        <time>2021-07-18T12:02:35Z</time>
      </trkpt>
      <trkpt lat="45.46007" lon="5.52868">
        <ele>629.8</ele>
        <time>2021-07-18T12:02:36Z</time>
      </trkpt>
      <trkpt lat="45.45988" lon="5.52841">
        <ele>628.84</ele>
        <time>2021-07-18T12:02:44Z</time>
      </trkpt>
      <trkpt lat="45.45986" lon="5.52838">
        <ele>628.84</ele>
        <time>2021-07-18T12:02:45Z</time>
      </trkpt>
      <trkpt lat="45.45982" lon="5.52833">
        <ele>628.84</ele>
        <time>2021-07-18T12:02:46Z</time>
      </trkpt>
      <trkpt lat="45.45977" lon="5.52825">
        <ele>628.84</ele>
        <time>2021-07-18T12:02:49Z</time>
      </trkpt>
      <trkpt lat="45.45966" lon="5.5281">
        <ele>628.84</ele>
        <time>2021-07-18T12:02:56Z</time>
      </trkpt>
      <trkpt lat="45.45965" lon="5.52808">
        <ele>629.32</ele>
        <time>2021-07-18T12:02:57Z</time>
      </trkpt>
      <trkpt lat="45.45964" lon="5.52806">
        <ele>629.32</ele>
        <time>2021-07-18T12:02:58Z</time>
      </trkpt>
      <trkpt lat="45.45963" lon="5.52802">
        <ele>629.32</ele>
        <time>2021-07-18T12:03:00Z</time>
      </trkpt>
      <trkpt lat="45.45962" lon="5.52794">
        <ele>629.32</ele>
        <time>2021-07-18T12:03:03Z</time>
      </trkpt>
      <trkpt lat="45.45963" lon="5.5279">
        <ele>628.36</ele>
        <time>2021-07-18T12:03:04Z</time>
      </trkpt>
      <trkpt lat="45.45963" lon="5.52785">
        <ele>628.36</ele>
        <time>2021-07-18T12:03:05Z</time>
      </trkpt>
      <trkpt lat="45.45963" lon="5.5278">
        <ele>627.88</ele>
        <time>2021-07-18T12:03:06Z</time>
      </trkpt>
      <trkpt lat="45.45964" lon="5.52775">
        <ele>627.88</ele>
        <time>2021-07-18T12:03:07Z</time>
      </trkpt>
      <trkpt lat="45.45958" lon="5.52711">
        <ele>626.44</ele>
        <time>2021-07-18T12:03:19Z</time>
      </trkpt>
      <trkpt lat="45.45955" lon="5.52668">
        <ele>623.55</ele>
        <time>2021-07-18T12:03:28Z</time>
      </trkpt>
      <trkpt lat="45.45951" lon="5.52638">
        <ele>621.15</ele>
        <time>2021-07-18T12:03:36Z</time>
      </trkpt>
      <trkpt lat="45.45934" lon="5.52612">
        <ele>618.26</ele>
        <time>2021-07-18T12:03:43Z</time>
      </trkpt>
      <trkpt lat="45.45922" lon="5.52589">
        <ele>614.9</ele>
        <time>2021-07-18T12:03:49Z</time>
      </trkpt>
      <trkpt lat="45.45918" lon="5.52569">
        <ele>612.98</ele>
        <time>2021-07-18T12:03:53Z</time>
      </trkpt>
      <trkpt lat="45.45915" lon="5.52548">
        <ele>611.06</ele>
        <time>2021-07-18T12:03:57Z</time>
      </trkpt>
      <trkpt lat="45.45914" lon="5.52516">
        <ele>608.17</ele>
        <time>2021-07-18T12:04:04Z</time>
      </trkpt>
      <trkpt lat="45.45912" lon="5.52467">
        <ele>605.29</ele>
        <time>2021-07-18T12:04:15Z</time>
      </trkpt>
      <trkpt lat="45.45921" lon="5.52433">
        <ele>603.85</ele>
        <time>2021-07-18T12:04:22Z</time>
      </trkpt>
      <trkpt lat="45.45924" lon="5.52429">
        <ele>603.36</ele>
        <time>2021-07-18T12:04:23Z</time>
      </trkpt>
      <trkpt lat="45.45927" lon="5.52424">
        <ele>603.36</ele>
        <time>2021-07-18T12:04:24Z</time>
      </trkpt>
      <trkpt lat="45.4593" lon="5.5242">
        <ele>602.4</ele>
        <time>2021-07-18T12:04:25Z</time>
      </trkpt>
      <trkpt lat="45.45934" lon="5.52417">
        <ele>602.4</ele>
        <time>2021-07-18T12:04:26Z</time>
      </trkpt>
      <trkpt lat="45.45946" lon="5.52404">
        <ele>601.44</ele>
        <time>2021-07-18T12:04:30Z</time>
      </trkpt>
      <trkpt lat="45.45947" lon="5.52401">
        <ele>601.44</ele>
        <time>2021-07-18T12:04:31Z</time>
      </trkpt>
      <trkpt lat="45.45947" lon="5.52398">
        <ele>601.44</ele>
        <time>2021-07-18T12:04:32Z</time>
      </trkpt>
      <trkpt lat="45.45947" lon="5.52396">
        <ele>601.44</ele>
        <time>2021-07-18T12:04:33Z</time>
      </trkpt>
      <trkpt lat="45.45946" lon="5.52394">
        <ele>601.44</ele>
        <time>2021-07-18T12:04:34Z</time>
      </trkpt>
      <trkpt lat="45.45945" lon="5.52391">
        <ele>601.44</ele>
        <time>2021-07-18T12:04:35Z</time>
      </trkpt>
      <trkpt lat="45.45944" lon="5.52389">
        <ele>602.88</ele>
        <time>2021-07-18T12:04:36Z</time>
      </trkpt>
      <trkpt lat="45.45943" lon="5.52388">
        <ele>602.88</ele>
        <time>2021-07-18T12:04:37Z</time>
      </trkpt>
      <trkpt lat="45.45942" lon="5.52387">
        <ele>602.88</ele>
        <time>2021-07-18T12:04:38Z</time>
      </trkpt>
      <trkpt lat="45.45941" lon="5.52385">
        <ele>602.88</ele>
        <time>2021-07-18T12:04:39Z</time>
      </trkpt>
      <trkpt lat="45.4594" lon="5.52383">
        <ele>602.88</ele>
        <time>2021-07-18T12:04:40Z</time>
      </trkpt>
      <trkpt lat="45.45929" lon="5.52358">
        <ele>605.77</ele>
        <time>2021-07-18T12:04:52Z</time>
      </trkpt>
      <trkpt lat="45.45909" lon="5.52331">
        <ele>608.17</ele>
        <time>2021-07-18T12:05:07Z</time>
      </trkpt>
      <trkpt lat="45.45868" lon="5.52301">
        <ele>605.29</ele>
        <time>2021-07-18T12:05:21Z</time>
      </trkpt>
      <trkpt lat="45.45823" lon="5.52273">
        <ele>604.81</ele>
        <time>2021-07-18T12:05:36Z</time>
      </trkpt>
      <trkpt lat="45.45792" lon="5.52269">
        <ele>604.81</ele>
        <time>2021-07-18T12:05:50Z</time>
      </trkpt>
      <trkpt lat="45.45763" lon="5.52262">
        <ele>601.44</ele>
        <time>2021-07-18T12:06:01Z</time>
      </trkpt>
      <trkpt lat="45.45742" lon="5.52258">
        <ele>598.08</ele>
        <time>2021-07-18T12:06:08Z</time>
      </trkpt>
      <trkpt lat="45.45713" lon="5.52235">
        <ele>594.71</ele>
        <time>2021-07-18T12:06:18Z</time>
      </trkpt>
      <trkpt lat="45.45676" lon="5.52202">
        <ele>591.35</ele>
        <time>2021-07-18T12:06:32Z</time>
      </trkpt>
      <trkpt lat="45.45652" lon="5.52185">
        <ele>587.98</ele>
        <time>2021-07-18T12:06:40Z</time>
      </trkpt>
      <trkpt lat="45.45635" lon="5.52168">
        <ele>586.06</ele>
        <time>2021-07-18T12:06:46Z</time>
      </trkpt>
      <trkpt lat="45.45606" lon="5.52109">
        <ele>583.18</ele>
        <time>2021-07-18T12:07:01Z</time>
      </trkpt>
      <trkpt lat="45.45608" lon="5.52078">
        <ele>583.66</ele>
        <time>2021-07-18T12:07:10Z</time>
      </trkpt>
      <trkpt lat="45.45605" lon="5.52039">
        <ele>583.18</ele>
        <time>2021-07-18T12:07:22Z</time>
      </trkpt>
      <trkpt lat="45.456" lon="5.52023">
        <ele>583.18</ele>
        <time>2021-07-18T12:07:36Z</time>
      </trkpt>
      <trkpt lat="45.45597" lon="5.52024">
        <ele>583.18</ele>
        <time>2021-07-18T12:08:07Z</time>
      </trkpt>
      <trkpt lat="45.45596" lon="5.52016">
        <ele>583.18</ele>
        <time>2021-07-18T12:08:14Z</time>
      </trkpt>
      <trkpt lat="45.45597" lon="5.52013">
        <ele>583.18</ele>
        <time>2021-07-18T12:08:15Z</time>
      </trkpt>
      <trkpt lat="45.45597" lon="5.5201">
        <ele>583.18</ele>
        <time>2021-07-18T12:08:16Z</time>
      </trkpt>
      <trkpt lat="45.45597" lon="5.52007">
        <ele>583.18</ele>
        <time>2021-07-18T12:08:17Z</time>
      </trkpt>
      <trkpt lat="45.45597" lon="5.52004">
        <ele>583.18</ele>
        <time>2021-07-18T12:08:18Z</time>
      </trkpt>
      <trkpt lat="45.45597" lon="5.52">
        <ele>583.18</ele>
        <time>2021-07-18T12:08:19Z</time>
      </trkpt>
      <trkpt lat="45.45597" lon="5.51996">
        <ele>583.18</ele>
        <time>2021-07-18T12:08:20Z</time>
      </trkpt>
      <trkpt lat="45.45597" lon="5.51992">
        <ele>583.18</ele>
        <time>2021-07-18T12:08:21Z</time>
      </trkpt>
      <trkpt lat="45.45597" lon="5.51989">
        <ele>583.18</ele>
        <time>2021-07-18T12:08:34Z</time>
      </trkpt>
      <trkpt lat="45.45594" lon="5.51988">
        <ele>583.18</ele>
        <time>2021-07-18T12:08:56Z</time>
      </trkpt>
      <trkpt lat="45.45594" lon="5.5198">
        <ele>583.18</ele>
        <time>2021-07-18T12:09:13Z</time>
      </trkpt>
      <trkpt lat="45.45596" lon="5.51915">
        <ele>580.77</ele>
        <time>2021-07-18T12:09:27Z</time>
      </trkpt>
      <trkpt lat="45.45597" lon="5.5191">
        <ele>580.77</ele>
        <time>2021-07-18T12:09:28Z</time>
      </trkpt>
      <trkpt lat="45.45598" lon="5.51903">
        <ele>580.77</ele>
        <time>2021-07-18T12:09:29Z</time>
      </trkpt>
      <trkpt lat="45.45599" lon="5.51897">
        <ele>580.77</ele>
        <time>2021-07-18T12:09:30Z</time>
      </trkpt>
      <trkpt lat="45.456" lon="5.51892">
        <ele>580.77</ele>
        <time>2021-07-18T12:09:31Z</time>
      </trkpt>
      <trkpt lat="45.45608" lon="5.51834">
        <ele>580.29</ele>
        <time>2021-07-18T12:09:45Z</time>
      </trkpt>
      <trkpt lat="45.45605" lon="5.51801">
        <ele>581.73</ele>
        <time>2021-07-18T12:09:53Z</time>
      </trkpt>
      <trkpt lat="45.45608" lon="5.51751">
        <ele>580.77</ele>
        <time>2021-07-18T12:10:06Z</time>
      </trkpt>
      <trkpt lat="45.4562" lon="5.51696">
        <ele>579.33</ele>
        <time>2021-07-18T12:10:18Z</time>
      </trkpt>
      <trkpt lat="45.45632" lon="5.51677">
        <ele>576.45</ele>
        <time>2021-07-18T12:10:30Z</time>
      </trkpt>
      <trkpt lat="45.45644" lon="5.51665">
        <ele>573.08</ele>
        <time>2021-07-18T12:10:38Z</time>
      </trkpt>
      <trkpt lat="45.45658" lon="5.51646">
        <ele>569.72</ele>
        <time>2021-07-18T12:10:47Z</time>
      </trkpt>
      <trkpt lat="45.45676" lon="5.51613">
        <ele>566.35</ele>
        <time>2021-07-18T12:10:55Z</time>
      </trkpt>
      <trkpt lat="45.45701" lon="5.51588">
        <ele>565.39</ele>
        <time>2021-07-18T12:11:05Z</time>
      </trkpt>
      <trkpt lat="45.45721" lon="5.5158">
        <ele>566.83</ele>
        <time>2021-07-18T12:11:14Z</time>
      </trkpt>
      <trkpt lat="45.4576" lon="5.51565">
        <ele>568.28</ele>
        <time>2021-07-18T12:11:28Z</time>
      </trkpt>
      <trkpt lat="45.4579" lon="5.51552">
        <ele>568.76</ele>
        <time>2021-07-18T12:11:40Z</time>
      </trkpt>
      <trkpt lat="45.45824" lon="5.51529">
        <ele>567.32</ele>
        <time>2021-07-18T12:11:52Z</time>
      </trkpt>
      <trkpt lat="45.45838" lon="5.51517">
        <ele>563.95</ele>
        <time>2021-07-18T12:11:57Z</time>
      </trkpt>
      <trkpt lat="45.45851" lon="5.51498">
        <ele>560.59</ele>
        <time>2021-07-18T12:12:03Z</time>
      </trkpt>
      <trkpt lat="45.45851" lon="5.51493">
        <ele>560.59</ele>
        <time>2021-07-18T12:12:04Z</time>
      </trkpt>
      <trkpt lat="45.45851" lon="5.51488">
        <ele>559.62</ele>
        <time>2021-07-18T12:12:05Z</time>
      </trkpt>
      <trkpt lat="45.4585" lon="5.51484">
        <ele>559.14</ele>
        <time>2021-07-18T12:12:06Z</time>
      </trkpt>
      <trkpt lat="45.45848" lon="5.51479">
        <ele>558.18</ele>
        <time>2021-07-18T12:12:07Z</time>
      </trkpt>
      <trkpt lat="45.4584" lon="5.51456">
        <ele>554.34</ele>
        <time>2021-07-18T12:12:11Z</time>
      </trkpt>
      <trkpt lat="45.45832" lon="5.51431">
        <ele>550.49</ele>
        <time>2021-07-18T12:12:15Z</time>
      </trkpt>
      <trkpt lat="45.45823" lon="5.51406">
        <ele>547.13</ele>
        <time>2021-07-18T12:12:19Z</time>
      </trkpt>
      <trkpt lat="45.4582" lon="5.514">
        <ele>546.65</ele>
        <time>2021-07-18T12:12:20Z</time>
      </trkpt>
      <trkpt lat="45.45804" lon="5.5138">
        <ele>543.28</ele>
        <time>2021-07-18T12:12:26Z</time>
      </trkpt>
      <trkpt lat="45.45789" lon="5.51355">
        <ele>540.88</ele>
        <time>2021-07-18T12:12:32Z</time>
      </trkpt>
      <trkpt lat="45.45785" lon="5.51345">
        <ele>539.92</ele>
        <time>2021-07-18T12:12:34Z</time>
      </trkpt>
      <trkpt lat="45.45785" lon="5.51339">
        <ele>539.44</ele>
        <time>2021-07-18T12:12:35Z</time>
      </trkpt>
      <trkpt lat="45.45785" lon="5.51319">
        <ele>537.99</ele>
        <time>2021-07-18T12:12:38Z</time>
      </trkpt>
      <trkpt lat="45.45783" lon="5.51313">
        <ele>537.99</ele>
        <time>2021-07-18T12:12:39Z</time>
      </trkpt>
      <trkpt lat="45.45781" lon="5.51308">
        <ele>537.03</ele>
        <time>2021-07-18T12:12:40Z</time>
      </trkpt>
      <trkpt lat="45.45777" lon="5.51302">
        <ele>536.55</ele>
        <time>2021-07-18T12:12:41Z</time>
      </trkpt>
      <trkpt lat="45.45773" lon="5.51297">
        <ele>536.07</ele>
        <time>2021-07-18T12:12:42Z</time>
      </trkpt>
      <trkpt lat="45.45768" lon="5.51291">
        <ele>535.11</ele>
        <time>2021-07-18T12:12:43Z</time>
      </trkpt>
      <trkpt lat="45.4573" lon="5.51253">
        <ele>532.23</ele>
        <time>2021-07-18T12:12:49Z</time>
      </trkpt>
      <trkpt lat="45.45695" lon="5.51216">
        <ele>531.27</ele>
        <time>2021-07-18T12:12:55Z</time>
      </trkpt>
      <trkpt lat="45.45692" lon="5.51208">
        <ele>531.27</ele>
        <time>2021-07-18T12:12:56Z</time>
      </trkpt>
      <trkpt lat="45.4569" lon="5.512">
        <ele>530.79</ele>
        <time>2021-07-18T12:12:57Z</time>
      </trkpt>
      <trkpt lat="45.4569" lon="5.5119">
        <ele>530.3</ele>
        <time>2021-07-18T12:12:58Z</time>
      </trkpt>
      <trkpt lat="45.45692" lon="5.51181">
        <ele>530.3</ele>
        <time>2021-07-18T12:12:59Z</time>
      </trkpt>
      <trkpt lat="45.45695" lon="5.51173">
        <ele>530.3</ele>
        <time>2021-07-18T12:13:00Z</time>
      </trkpt>
      <trkpt lat="45.45699" lon="5.51166">
        <ele>529.82</ele>
        <time>2021-07-18T12:13:01Z</time>
      </trkpt>
      <trkpt lat="45.45761" lon="5.51054">
        <ele>528.86</ele>
        <time>2021-07-18T12:13:18Z</time>
      </trkpt>
      <trkpt lat="45.45806" lon="5.50968">
        <ele>528.86</ele>
        <time>2021-07-18T12:13:32Z</time>
      </trkpt>
      <trkpt lat="45.45811" lon="5.50955">
        <ele>527.9</ele>
        <time>2021-07-18T12:13:34Z</time>
      </trkpt>
      <trkpt lat="45.45812" lon="5.50949">
        <ele>527.9</ele>
        <time>2021-07-18T12:13:35Z</time>
      </trkpt>
      <trkpt lat="45.45812" lon="5.50943">
        <ele>527.9</ele>
        <time>2021-07-18T12:13:36Z</time>
      </trkpt>
      <trkpt lat="45.45812" lon="5.50939">
        <ele>527.42</ele>
        <time>2021-07-18T12:13:37Z</time>
      </trkpt>
      <trkpt lat="45.4581" lon="5.50934">
        <ele>527.42</ele>
        <time>2021-07-18T12:13:38Z</time>
      </trkpt>
      <trkpt lat="45.45807" lon="5.5093">
        <ele>527.42</ele>
        <time>2021-07-18T12:13:39Z</time>
      </trkpt>
      <trkpt lat="45.45803" lon="5.50928">
        <ele>527.42</ele>
        <time>2021-07-18T12:13:40Z</time>
      </trkpt>
      <trkpt lat="45.45799" lon="5.50927">
        <ele>527.42</ele>
        <time>2021-07-18T12:13:41Z</time>
      </trkpt>
      <trkpt lat="45.45795" lon="5.50926">
        <ele>527.42</ele>
        <time>2021-07-18T12:13:42Z</time>
      </trkpt>
      <trkpt lat="45.45786" lon="5.50922">
        <ele>526.94</ele>
        <time>2021-07-18T12:13:44Z</time>
      </trkpt>
      <trkpt lat="45.45782" lon="5.50919">
        <ele>526.94</ele>
        <time>2021-07-18T12:13:45Z</time>
      </trkpt>
      <trkpt lat="45.45777" lon="5.50916">
        <ele>526.94</ele>
        <time>2021-07-18T12:13:46Z</time>
      </trkpt>
      <trkpt lat="45.45774" lon="5.50912">
        <ele>526.94</ele>
        <time>2021-07-18T12:13:47Z</time>
      </trkpt>
      <trkpt lat="45.4577" lon="5.50908">
        <ele>526.46</ele>
        <time>2021-07-18T12:13:48Z</time>
      </trkpt>
      <trkpt lat="45.4572" lon="5.50835">
        <ele>526.46</ele>
        <time>2021-07-18T12:14:05Z</time>
      </trkpt>
      <trkpt lat="45.45703" lon="5.50807">
        <ele>527.42</ele>
        <time>2021-07-18T12:14:12Z</time>
      </trkpt>
      <trkpt lat="45.45694" lon="5.50764">
        <ele>529.34</ele>
        <time>2021-07-18T12:14:24Z</time>
      </trkpt>
      <trkpt lat="45.4569" lon="5.50705">
        <ele>532.23</ele>
        <time>2021-07-18T12:14:41Z</time>
      </trkpt>
      <trkpt lat="45.45683" lon="5.50652">
        <ele>533.67</ele>
        <time>2021-07-18T12:14:56Z</time>
      </trkpt>
      <trkpt lat="45.45678" lon="5.50611">
        <ele>535.11</ele>
        <time>2021-07-18T12:15:08Z</time>
      </trkpt>
      <trkpt lat="45.45669" lon="5.50558">
        <ele>535.59</ele>
        <time>2021-07-18T12:15:22Z</time>
      </trkpt>
      <trkpt lat="45.45663" lon="5.50527">
        <ele>536.55</ele>
        <time>2021-07-18T12:15:33Z</time>
      </trkpt>
      <trkpt lat="45.45661" lon="5.50525">
        <ele>536.55</ele>
        <time>2021-07-18T12:15:34Z</time>
      </trkpt>
      <trkpt lat="45.4566" lon="5.50524">
        <ele>536.55</ele>
        <time>2021-07-18T12:15:35Z</time>
      </trkpt>
      <trkpt lat="45.45658" lon="5.50524">
        <ele>536.55</ele>
        <time>2021-07-18T12:15:36Z</time>
      </trkpt>
      <trkpt lat="45.45657" lon="5.50525">
        <ele>536.55</ele>
        <time>2021-07-18T12:15:37Z</time>
      </trkpt>
      <trkpt lat="45.45655" lon="5.50525">
        <ele>536.55</ele>
        <time>2021-07-18T12:15:38Z</time>
      </trkpt>
      <trkpt lat="45.45653" lon="5.50526">
        <ele>536.55</ele>
        <time>2021-07-18T12:15:39Z</time>
      </trkpt>
      <trkpt lat="45.45651" lon="5.50528">
        <ele>536.55</ele>
        <time>2021-07-18T12:15:40Z</time>
      </trkpt>
      <trkpt lat="45.45649" lon="5.50529">
        <ele>536.55</ele>
        <time>2021-07-18T12:15:41Z</time>
      </trkpt>
      <trkpt lat="45.45613" lon="5.50568">
        <ele>536.55</ele>
        <time>2021-07-18T12:15:56Z</time>
      </trkpt>
      <trkpt lat="45.4559" lon="5.50581">
        <ele>535.11</ele>
        <time>2021-07-18T12:16:03Z</time>
      </trkpt>
      <trkpt lat="45.45528" lon="5.50628">
        <ele>534.15</ele>
        <time>2021-07-18T12:16:17Z</time>
      </trkpt>
      <trkpt lat="45.45487" lon="5.50662">
        <ele>533.67</ele>
        <time>2021-07-18T12:16:27Z</time>
      </trkpt>
      <trkpt lat="45.45483" lon="5.50664">
        <ele>533.67</ele>
        <time>2021-07-18T12:16:28Z</time>
      </trkpt>
      <trkpt lat="45.45421" lon="5.5072">
        <ele>534.63</ele>
        <time>2021-07-18T12:16:44Z</time>
      </trkpt>
      <trkpt lat="45.45382" lon="5.50751">
        <ele>536.55</ele>
        <time>2021-07-18T12:16:57Z</time>
      </trkpt>
      <trkpt lat="45.45366" lon="5.50748">
        <ele>538.48</ele>
        <time>2021-07-18T12:17:06Z</time>
      </trkpt>
      <trkpt lat="45.45365" lon="5.50745">
        <ele>538.48</ele>
        <time>2021-07-18T12:17:07Z</time>
      </trkpt>
      <trkpt lat="45.45365" lon="5.50742">
        <ele>538.48</ele>
        <time>2021-07-18T12:17:08Z</time>
      </trkpt>
      <trkpt lat="45.45365" lon="5.5074">
        <ele>538.48</ele>
        <time>2021-07-18T12:17:09Z</time>
      </trkpt>
      <trkpt lat="45.45365" lon="5.50737">
        <ele>538.48</ele>
        <time>2021-07-18T12:17:10Z</time>
      </trkpt>
      <trkpt lat="45.45365" lon="5.50735">
        <ele>538.48</ele>
        <time>2021-07-18T12:17:11Z</time>
      </trkpt>
      <trkpt lat="45.45364" lon="5.50738">
        <ele>538.48</ele>
        <time>2021-07-18T12:17:24Z</time>
      </trkpt>
      <trkpt lat="45.45364" lon="5.50745">
        <ele>538.48</ele>
        <time>2021-07-18T12:17:29Z</time>
      </trkpt>
      <trkpt lat="45.45363" lon="5.50751">
        <ele>538.48</ele>
        <time>2021-07-18T12:17:35Z</time>
      </trkpt>
      <trkpt lat="45.45356" lon="5.50752">
        <ele>539.44</ele>
        <time>2021-07-18T12:17:49Z</time>
      </trkpt>
      <trkpt lat="45.45355" lon="5.50752">
        <ele>539.44</ele>
        <time>2021-07-18T12:17:50Z</time>
      </trkpt>
      <trkpt lat="45.45323" lon="5.5076">
        <ele>541.84</ele>
        <time>2021-07-18T12:18:07Z</time>
      </trkpt>
      <trkpt lat="45.45292" lon="5.50802">
        <ele>544.24</ele>
        <time>2021-07-18T12:18:26Z</time>
      </trkpt>
      <trkpt lat="45.45249" lon="5.50839">
        <ele>545.2</ele>
        <time>2021-07-18T12:18:45Z</time>
      </trkpt>
      <trkpt lat="45.45188" lon="5.50859">
        <ele>546.17</ele>
        <time>2021-07-18T12:19:05Z</time>
      </trkpt>
      <trkpt lat="45.45151" lon="5.50864">
        <ele>548.09</ele>
        <time>2021-07-18T12:19:19Z</time>
      </trkpt>
      <trkpt lat="45.45102" lon="5.50868">
        <ele>548.09</ele>
        <time>2021-07-18T12:19:34Z</time>
      </trkpt>
      <trkpt lat="45.45055" lon="5.50869">
        <ele>547.61</ele>
        <time>2021-07-18T12:19:49Z</time>
      </trkpt>
      <trkpt lat="45.45051" lon="5.50871">
        <ele>546.17</ele>
        <time>2021-07-18T12:19:50Z</time>
      </trkpt>
      <trkpt lat="45.45047" lon="5.50873">
        <ele>545.69</ele>
        <time>2021-07-18T12:19:51Z</time>
      </trkpt>
      <trkpt lat="45.45043" lon="5.50876">
        <ele>545.69</ele>
        <time>2021-07-18T12:19:52Z</time>
      </trkpt>
      <trkpt lat="45.45039" lon="5.50879">
        <ele>545.2</ele>
        <time>2021-07-18T12:19:53Z</time>
      </trkpt>
      <trkpt lat="45.45027" lon="5.50889">
        <ele>543.28</ele>
        <time>2021-07-18T12:19:56Z</time>
      </trkpt>
      <trkpt lat="45.45017" lon="5.50895">
        <ele>542.8</ele>
        <time>2021-07-18T12:19:58Z</time>
      </trkpt>
      <trkpt lat="45.4496" lon="5.50918">
        <ele>539.92</ele>
        <time>2021-07-18T12:20:08Z</time>
      </trkpt>
      <trkpt lat="45.44895" lon="5.50961">
        <ele>540.88</ele>
        <time>2021-07-18T12:20:23Z</time>
      </trkpt>
      <trkpt lat="45.4489" lon="5.50964">
        <ele>540.88</ele>
        <time>2021-07-18T12:20:24Z</time>
      </trkpt>
      <trkpt lat="45.44886" lon="5.50966">
        <ele>540.88</ele>
        <time>2021-07-18T12:20:25Z</time>
      </trkpt>
      <trkpt lat="45.44878" lon="5.50968">
        <ele>540.88</ele>
        <time>2021-07-18T12:20:27Z</time>
      </trkpt>
      <trkpt lat="45.44874" lon="5.50968">
        <ele>540.88</ele>
        <time>2021-07-18T12:20:28Z</time>
      </trkpt>
      <trkpt lat="45.44854" lon="5.50964">
        <ele>540.88</ele>
        <time>2021-07-18T12:20:33Z</time>
      </trkpt>
      <trkpt lat="45.44847" lon="5.50959">
        <ele>540.88</ele>
        <time>2021-07-18T12:20:35Z</time>
      </trkpt>
      <trkpt lat="45.4484" lon="5.50953">
        <ele>539.92</ele>
        <time>2021-07-18T12:20:37Z</time>
      </trkpt>
      <trkpt lat="45.44801" lon="5.50905">
        <ele>536.55</ele>
        <time>2021-07-18T12:20:49Z</time>
      </trkpt>
      <trkpt lat="45.44791" lon="5.50894">
        <ele>535.59</ele>
        <time>2021-07-18T12:20:57Z</time>
      </trkpt>
      <trkpt lat="45.44772" lon="5.50884">
        <ele>535.11</ele>
        <time>2021-07-18T12:21:10Z</time>
      </trkpt>
      <trkpt lat="45.44751" lon="5.50877">
        <ele>533.67</ele>
        <time>2021-07-18T12:21:16Z</time>
      </trkpt>
      <trkpt lat="45.44746" lon="5.50876">
        <ele>533.67</ele>
        <time>2021-07-18T12:21:17Z</time>
      </trkpt>
      <trkpt lat="45.44742" lon="5.50876">
        <ele>532.71</ele>
        <time>2021-07-18T12:21:18Z</time>
      </trkpt>
      <trkpt lat="45.44738" lon="5.50876">
        <ele>532.71</ele>
        <time>2021-07-18T12:21:19Z</time>
      </trkpt>
      <trkpt lat="45.44734" lon="5.50877">
        <ele>532.23</ele>
        <time>2021-07-18T12:21:20Z</time>
      </trkpt>
      <trkpt lat="45.44729" lon="5.50878">
        <ele>532.23</ele>
        <time>2021-07-18T12:21:21Z</time>
      </trkpt>
      <trkpt lat="45.44716" lon="5.50882">
        <ele>531.27</ele>
        <time>2021-07-18T12:21:24Z</time>
      </trkpt>
      <trkpt lat="45.44711" lon="5.50885">
        <ele>531.27</ele>
        <time>2021-07-18T12:21:25Z</time>
      </trkpt>
      <trkpt lat="45.44707" lon="5.50888">
        <ele>530.79</ele>
        <time>2021-07-18T12:21:26Z</time>
      </trkpt>
      <trkpt lat="45.44703" lon="5.50891">
        <ele>530.79</ele>
        <time>2021-07-18T12:21:27Z</time>
      </trkpt>
      <trkpt lat="45.44699" lon="5.50895">
        <ele>530.79</ele>
        <time>2021-07-18T12:21:28Z</time>
      </trkpt>
      <trkpt lat="45.44695" lon="5.50899">
        <ele>530.3</ele>
        <time>2021-07-18T12:21:29Z</time>
      </trkpt>
      <trkpt lat="45.44655" lon="5.50946">
        <ele>530.3</ele>
        <time>2021-07-18T12:21:42Z</time>
      </trkpt>
      <trkpt lat="45.44611" lon="5.50989">
        <ele>530.3</ele>
        <time>2021-07-18T12:21:56Z</time>
      </trkpt>
      <trkpt lat="45.44603" lon="5.50994">
        <ele>531.75</ele>
        <time>2021-07-18T12:22:00Z</time>
      </trkpt>
      <trkpt lat="45.44592" lon="5.50999">
        <ele>533.19</ele>
        <time>2021-07-18T12:22:07Z</time>
      </trkpt>
      <trkpt lat="45.44591" lon="5.50999">
        <ele>533.19</ele>
        <time>2021-07-18T12:22:08Z</time>
      </trkpt>
      <trkpt lat="45.44589" lon="5.50999">
        <ele>533.67</ele>
        <time>2021-07-18T12:22:09Z</time>
      </trkpt>
      <trkpt lat="45.44588" lon="5.50999">
        <ele>533.67</ele>
        <time>2021-07-18T12:22:10Z</time>
      </trkpt>
      <trkpt lat="45.44587" lon="5.50998">
        <ele>533.67</ele>
        <time>2021-07-18T12:22:11Z</time>
      </trkpt>
      <trkpt lat="45.44586" lon="5.50998">
        <ele>534.15</ele>
        <time>2021-07-18T12:22:12Z</time>
      </trkpt>
      <trkpt lat="45.44584" lon="5.50997">
        <ele>534.15</ele>
        <time>2021-07-18T12:22:13Z</time>
      </trkpt>
      <trkpt lat="45.44583" lon="5.50997">
        <ele>534.15</ele>
        <time>2021-07-18T12:22:14Z</time>
      </trkpt>
      <trkpt lat="45.44582" lon="5.50997">
        <ele>534.63</ele>
        <time>2021-07-18T12:22:15Z</time>
      </trkpt>
      <trkpt lat="45.44581" lon="5.50996">
        <ele>534.63</ele>
        <time>2021-07-18T12:22:16Z</time>
      </trkpt>
      <trkpt lat="45.4458" lon="5.50996">
        <ele>534.63</ele>
        <time>2021-07-18T12:22:17Z</time>
      </trkpt>
      <trkpt lat="45.44579" lon="5.50996">
        <ele>535.11</ele>
        <time>2021-07-18T12:22:18Z</time>
      </trkpt>
      <trkpt lat="45.44577" lon="5.50996">
        <ele>535.11</ele>
        <time>2021-07-18T12:22:19Z</time>
      </trkpt>
      <trkpt lat="45.44576" lon="5.50995">
        <ele>535.11</ele>
        <time>2021-07-18T12:22:20Z</time>
      </trkpt>
      <trkpt lat="45.44556" lon="5.50991">
        <ele>537.51</ele>
        <time>2021-07-18T12:22:36Z</time>
      </trkpt>
      <trkpt lat="45.44531" lon="5.50985">
        <ele>540.4</ele>
        <time>2021-07-18T12:22:54Z</time>
      </trkpt>
      <trkpt lat="45.44512" lon="5.50983">
        <ele>542.32</ele>
        <time>2021-07-18T12:23:09Z</time>
      </trkpt>
      <trkpt lat="45.44485" lon="5.50983">
        <ele>542.8</ele>
        <time>2021-07-18T12:23:24Z</time>
      </trkpt>
      <trkpt lat="45.44453" lon="5.50977">
        <ele>545.2</ele>
        <time>2021-07-18T12:23:42Z</time>
      </trkpt>
      <trkpt lat="45.44444" lon="5.50976">
        <ele>545.69</ele>
        <time>2021-07-18T12:23:54Z</time>
      </trkpt>
      <trkpt lat="45.44435" lon="5.50978">
        <ele>546.17</ele>
        <time>2021-07-18T12:24:09Z</time>
      </trkpt>
      <trkpt lat="45.44434" lon="5.50981">
        <ele>546.17</ele>
        <time>2021-07-18T12:24:35Z</time>
      </trkpt>
      <trkpt lat="45.44434" lon="5.50981">
        <ele>546.17</ele>
        <time>2021-07-18T12:25:02Z</time>
      </trkpt>
      <trkpt lat="45.44435" lon="5.50981">
        <ele>546.17</ele>
        <time>2021-07-18T12:25:40Z</time>
      </trkpt>
      <trkpt lat="45.44436" lon="5.50982">
        <ele>546.17</ele>
        <time>2021-07-18T12:26:20Z</time>
      </trkpt>
      <trkpt lat="45.44436" lon="5.50983">
        <ele>546.17</ele>
        <time>2021-07-18T12:26:57Z</time>
      </trkpt>
      <trkpt lat="45.44434" lon="5.50981">
        <ele>546.65</ele>
        <time>2021-07-18T12:27:45Z</time>
      </trkpt>
      <trkpt lat="45.44428" lon="5.50977">
        <ele>547.13</ele>
        <time>2021-07-18T12:27:59Z</time>
      </trkpt>
      <trkpt lat="45.44403" lon="5.50971">
        <ele>548.09</ele>
        <time>2021-07-18T12:28:14Z</time>
      </trkpt>
      <trkpt lat="45.44362" lon="5.50967">
        <ele>548.57</ele>
        <time>2021-07-18T12:28:31Z</time>
      </trkpt>
      <trkpt lat="45.44328" lon="5.50963">
        <ele>547.61</ele>
        <time>2021-07-18T12:28:42Z</time>
      </trkpt>
      <trkpt lat="45.44279" lon="5.50961">
        <ele>547.61</ele>
        <time>2021-07-18T12:28:59Z</time>
      </trkpt>
      <trkpt lat="45.44237" lon="5.50968">
        <ele>547.61</ele>
        <time>2021-07-18T12:29:12Z</time>
      </trkpt>
      <trkpt lat="45.44197" lon="5.50977">
        <ele>549.05</ele>
        <time>2021-07-18T12:29:26Z</time>
      </trkpt>
      <trkpt lat="45.44178" lon="5.50981">
        <ele>547.61</ele>
        <time>2021-07-18T12:29:31Z</time>
      </trkpt>
      <trkpt lat="45.44143" lon="5.50988">
        <ele>546.65</ele>
        <time>2021-07-18T12:29:43Z</time>
      </trkpt>
      <trkpt lat="45.44098" lon="5.51001">
        <ele>543.76</ele>
        <time>2021-07-18T12:29:52Z</time>
      </trkpt>
      <trkpt lat="45.44027" lon="5.51021">
        <ele>541.84</ele>
        <time>2021-07-18T12:30:05Z</time>
      </trkpt>
      <trkpt lat="45.43996" lon="5.51024">
        <ele>541.36</ele>
        <time>2021-07-18T12:30:11Z</time>
      </trkpt>
      <trkpt lat="45.43992" lon="5.51023">
        <ele>541.36</ele>
        <time>2021-07-18T12:30:12Z</time>
      </trkpt>
      <trkpt lat="45.43988" lon="5.51023">
        <ele>541.36</ele>
        <time>2021-07-18T12:30:13Z</time>
      </trkpt>
      <trkpt lat="45.43958" lon="5.51014">
        <ele>542.8</ele>
        <time>2021-07-18T12:30:23Z</time>
      </trkpt>
      <trkpt lat="45.43939" lon="5.5101">
        <ele>544.24</ele>
        <time>2021-07-18T12:30:32Z</time>
      </trkpt>
      <trkpt lat="45.43911" lon="5.5101">
        <ele>545.69</ele>
        <time>2021-07-18T12:30:44Z</time>
      </trkpt>
      <trkpt lat="45.43876" lon="5.51016">
        <ele>548.09</ele>
        <time>2021-07-18T12:31:00Z</time>
      </trkpt>
      <trkpt lat="45.43842" lon="5.51025">
        <ele>549.05</ele>
        <time>2021-07-18T12:31:16Z</time>
      </trkpt>
      <trkpt lat="45.43815" lon="5.51039">
        <ele>550.97</ele>
        <time>2021-07-18T12:31:31Z</time>
      </trkpt>
      <trkpt lat="45.4379" lon="5.51056">
        <ele>552.9</ele>
        <time>2021-07-18T12:31:45Z</time>
      </trkpt>
      <trkpt lat="45.43763" lon="5.5107">
        <ele>553.86</ele>
        <time>2021-07-18T12:32:00Z</time>
      </trkpt>
      <trkpt lat="45.43741" lon="5.51092">
        <ele>552.41</ele>
        <time>2021-07-18T12:32:08Z</time>
      </trkpt>
      <trkpt lat="45.43736" lon="5.51102">
        <ele>551.45</ele>
        <time>2021-07-18T12:32:10Z</time>
      </trkpt>
      <trkpt lat="45.4373" lon="5.51114">
        <ele>550.49</ele>
        <time>2021-07-18T12:32:12Z</time>
      </trkpt>
      <trkpt lat="45.43712" lon="5.51167">
        <ele>547.61</ele>
        <time>2021-07-18T12:32:21Z</time>
      </trkpt>
      <trkpt lat="45.43705" lon="5.5118">
        <ele>546.17</ele>
        <time>2021-07-18T12:32:24Z</time>
      </trkpt>
      <trkpt lat="45.43683" lon="5.51203">
        <ele>543.28</ele>
        <time>2021-07-18T12:32:30Z</time>
      </trkpt>
      <trkpt lat="45.43635" lon="5.51231">
        <ele>539.92</ele>
        <time>2021-07-18T12:32:43Z</time>
      </trkpt>
      <trkpt lat="45.43597" lon="5.51246">
        <ele>536.55</ele>
        <time>2021-07-18T12:32:53Z</time>
      </trkpt>
      <trkpt lat="45.43585" lon="5.51249">
        <ele>536.07</ele>
        <time>2021-07-18T12:32:56Z</time>
      </trkpt>
      <trkpt lat="45.43571" lon="5.51251">
        <ele>534.15</ele>
        <time>2021-07-18T12:32:59Z</time>
      </trkpt>
      <trkpt lat="45.43544" lon="5.5125">
        <ele>531.27</ele>
        <time>2021-07-18T12:33:04Z</time>
      </trkpt>
      <trkpt lat="45.43511" lon="5.51251">
        <ele>527.9</ele>
        <time>2021-07-18T12:33:10Z</time>
      </trkpt>
      <trkpt lat="45.43472" lon="5.51252">
        <ele>524.06</ele>
        <time>2021-07-18T12:33:17Z</time>
      </trkpt>
      <trkpt lat="45.43466" lon="5.5125">
        <ele>523.09</ele>
        <time>2021-07-18T12:33:18Z</time>
      </trkpt>
      <trkpt lat="45.43438" lon="5.51239">
        <ele>520.21</ele>
        <time>2021-07-18T12:33:24Z</time>
      </trkpt>
      <trkpt lat="45.43417" lon="5.51229">
        <ele>517.33</ele>
        <time>2021-07-18T12:33:30Z</time>
      </trkpt>
      <trkpt lat="45.43413" lon="5.51225">
        <ele>517.33</ele>
        <time>2021-07-18T12:33:31Z</time>
      </trkpt>
      <trkpt lat="45.43406" lon="5.51217">
        <ele>517.33</ele>
        <time>2021-07-18T12:33:33Z</time>
      </trkpt>
      <trkpt lat="45.43403" lon="5.51213">
        <ele>517.33</ele>
        <time>2021-07-18T12:33:34Z</time>
      </trkpt>
      <trkpt lat="45.43399" lon="5.51209">
        <ele>517.33</ele>
        <time>2021-07-18T12:33:35Z</time>
      </trkpt>
      <trkpt lat="45.43395" lon="5.51207">
        <ele>517.33</ele>
        <time>2021-07-18T12:33:36Z</time>
      </trkpt>
      <trkpt lat="45.43391" lon="5.51206">
        <ele>516.85</ele>
        <time>2021-07-18T12:33:37Z</time>
      </trkpt>
      <trkpt lat="45.43387" lon="5.51206">
        <ele>516.85</ele>
        <time>2021-07-18T12:33:38Z</time>
      </trkpt>
      <trkpt lat="45.43384" lon="5.51206">
        <ele>516.85</ele>
        <time>2021-07-18T12:33:39Z</time>
      </trkpt>
      <trkpt lat="45.43381" lon="5.51207">
        <ele>516.37</ele>
        <time>2021-07-18T12:33:40Z</time>
      </trkpt>
      <trkpt lat="45.43353" lon="5.51209">
        <ele>518.29</ele>
        <time>2021-07-18T12:33:53Z</time>
      </trkpt>
      <trkpt lat="45.4335" lon="5.51211">
        <ele>518.29</ele>
        <time>2021-07-18T12:33:55Z</time>
      </trkpt>
      <trkpt lat="45.43348" lon="5.51212">
        <ele>518.29</ele>
        <time>2021-07-18T12:33:56Z</time>
      </trkpt>
      <trkpt lat="45.43347" lon="5.51214">
        <ele>518.29</ele>
        <time>2021-07-18T12:33:57Z</time>
      </trkpt>
      <trkpt lat="45.43345" lon="5.51215">
        <ele>518.29</ele>
        <time>2021-07-18T12:33:58Z</time>
      </trkpt>
      <trkpt lat="45.43342" lon="5.51217">
        <ele>518.29</ele>
        <time>2021-07-18T12:33:59Z</time>
      </trkpt>
      <trkpt lat="45.43336" lon="5.51223">
        <ele>518.29</ele>
        <time>2021-07-18T12:34:08Z</time>
      </trkpt>
      <trkpt lat="45.43328" lon="5.51234">
        <ele>518.29</ele>
        <time>2021-07-18T12:34:21Z</time>
      </trkpt>
      <trkpt lat="45.43331" lon="5.51247">
        <ele>516.37</ele>
        <time>2021-07-18T12:34:26Z</time>
      </trkpt>
      <trkpt lat="45.43331" lon="5.51283">
        <ele>513.48</ele>
        <time>2021-07-18T12:34:34Z</time>
      </trkpt>
      <trkpt lat="45.43326" lon="5.51331">
        <ele>511.08</ele>
        <time>2021-07-18T12:34:46Z</time>
      </trkpt>
      <trkpt lat="45.43324" lon="5.51338">
        <ele>511.08</ele>
        <time>2021-07-18T12:34:50Z</time>
      </trkpt>
      <trkpt lat="45.43325" lon="5.51341">
        <ele>511.08</ele>
        <time>2021-07-18T12:34:51Z</time>
      </trkpt>
      <trkpt lat="45.43324" lon="5.514">
        <ele>508.67</ele>
        <time>2021-07-18T12:35:04Z</time>
      </trkpt>
      <trkpt lat="45.4332" lon="5.51468">
        <ele>507.71</ele>
        <time>2021-07-18T12:35:18Z</time>
      </trkpt>
      <trkpt lat="45.43313" lon="5.51535">
        <ele>506.75</ele>
        <time>2021-07-18T12:35:34Z</time>
      </trkpt>
      <trkpt lat="45.43313" lon="5.51594">
        <ele>505.31</ele>
        <time>2021-07-18T12:35:47Z</time>
      </trkpt>
      <trkpt lat="45.43306" lon="5.5165">
        <ele>504.35</ele>
        <time>2021-07-18T12:36:01Z</time>
      </trkpt>
      <trkpt lat="45.43303" lon="5.51651">
        <ele>504.35</ele>
        <time>2021-07-18T12:36:02Z</time>
      </trkpt>
      <trkpt lat="45.43301" lon="5.51651">
        <ele>504.35</ele>
        <time>2021-07-18T12:36:03Z</time>
      </trkpt>
      <trkpt lat="45.43299" lon="5.51651">
        <ele>504.35</ele>
        <time>2021-07-18T12:36:04Z</time>
      </trkpt>
      <trkpt lat="45.4327" lon="5.51637">
        <ele>504.35</ele>
        <time>2021-07-18T12:36:18Z</time>
      </trkpt>
      <trkpt lat="45.43208" lon="5.51596">
        <ele>504.35</ele>
        <time>2021-07-18T12:36:36Z</time>
      </trkpt>
      <trkpt lat="45.43154" lon="5.5156">
        <ele>505.31</ele>
        <time>2021-07-18T12:36:52Z</time>
      </trkpt>
      <trkpt lat="45.43108" lon="5.51533">
        <ele>505.31</ele>
        <time>2021-07-18T12:37:07Z</time>
      </trkpt>
      <trkpt lat="45.43107" lon="5.51536">
        <ele>505.31</ele>
        <time>2021-07-18T12:37:08Z</time>
      </trkpt>
      <trkpt lat="45.43108" lon="5.51538">
        <ele>505.31</ele>
        <time>2021-07-18T12:37:09Z</time>
      </trkpt>
      <trkpt lat="45.43109" lon="5.51541">
        <ele>505.31</ele>
        <time>2021-07-18T12:37:10Z</time>
      </trkpt>
      <trkpt lat="45.43111" lon="5.51543">
        <ele>505.31</ele>
        <time>2021-07-18T12:37:11Z</time>
      </trkpt>
      <trkpt lat="45.43113" lon="5.51545">
        <ele>505.31</ele>
        <time>2021-07-18T12:37:12Z</time>
      </trkpt>
      <trkpt lat="45.43114" lon="5.5155">
        <ele>505.31</ele>
        <time>2021-07-18T12:37:13Z</time>
      </trkpt>
      <trkpt lat="45.43114" lon="5.51554">
        <ele>505.31</ele>
        <time>2021-07-18T12:37:14Z</time>
      </trkpt>
      <trkpt lat="45.43113" lon="5.51559">
        <ele>505.31</ele>
        <time>2021-07-18T12:37:15Z</time>
      </trkpt>
      <trkpt lat="45.43113" lon="5.51563">
        <ele>505.31</ele>
        <time>2021-07-18T12:37:16Z</time>
      </trkpt>
      <trkpt lat="45.43105" lon="5.51613">
        <ele>503.87</ele>
        <time>2021-07-18T12:37:25Z</time>
      </trkpt>
      <trkpt lat="45.43108" lon="5.51659">
        <ele>502.91</ele>
        <time>2021-07-18T12:37:35Z</time>
      </trkpt>
      <trkpt lat="45.4314" lon="5.51673">
        <ele>502.91</ele>
        <time>2021-07-18T12:37:47Z</time>
      </trkpt>
      <trkpt lat="45.43201" lon="5.51696">
        <ele>502.43</ele>
        <time>2021-07-18T12:38:03Z</time>
      </trkpt>
      <trkpt lat="45.43259" lon="5.51717">
        <ele>502.43</ele>
        <time>2021-07-18T12:38:19Z</time>
      </trkpt>
      <trkpt lat="45.43291" lon="5.5172">
        <ele>503.39</ele>
        <time>2021-07-18T12:38:33Z</time>
      </trkpt>
      <trkpt lat="45.43311" lon="5.51721">
        <ele>503.87</ele>
        <time>2021-07-18T12:38:44Z</time>
      </trkpt>
      <trkpt lat="45.4331" lon="5.51731">
        <ele>503.87</ele>
        <time>2021-07-18T12:38:48Z</time>
      </trkpt>
      <trkpt lat="45.43306" lon="5.51743">
        <ele>503.87</ele>
        <time>2021-07-18T12:39:02Z</time>
      </trkpt>
      <trkpt lat="45.43306" lon="5.51745">
        <ele>504.35</ele>
        <time>2021-07-18T12:39:29Z</time>
      </trkpt>
      <trkpt lat="45.43307" lon="5.51745">
        <ele>504.35</ele>
        <time>2021-07-18T12:39:32Z</time>
      </trkpt>
      <trkpt lat="45.43308" lon="5.51737">
        <ele>504.35</ele>
        <time>2021-07-18T12:39:36Z</time>
      </trkpt>
      <trkpt lat="45.4331" lon="5.51727">
        <ele>504.35</ele>
        <time>2021-07-18T12:39:39Z</time>
      </trkpt>
      <trkpt lat="45.43307" lon="5.5172">
        <ele>504.35</ele>
        <time>2021-07-18T12:39:42Z</time>
      </trkpt>
      <trkpt lat="45.43305" lon="5.51719">
        <ele>504.35</ele>
        <time>2021-07-18T12:39:43Z</time>
      </trkpt>
      <trkpt lat="45.43303" lon="5.51719">
        <ele>504.35</ele>
        <time>2021-07-18T12:39:44Z</time>
      </trkpt>
      <trkpt lat="45.433" lon="5.51719">
        <ele>504.35</ele>
        <time>2021-07-18T12:39:45Z</time>
      </trkpt>
      <trkpt lat="45.43297" lon="5.51719">
        <ele>504.35</ele>
        <time>2021-07-18T12:39:46Z</time>
      </trkpt>
      <trkpt lat="45.43294" lon="5.51719">
        <ele>504.35</ele>
        <time>2021-07-18T12:39:47Z</time>
      </trkpt>
      <trkpt lat="45.43277" lon="5.51718">
        <ele>502.91</ele>
        <time>2021-07-18T12:39:52Z</time>
      </trkpt>
      <trkpt lat="45.4323" lon="5.51705">
        <ele>502.91</ele>
        <time>2021-07-18T12:40:07Z</time>
      </trkpt>
      <trkpt lat="45.43191" lon="5.51691">
        <ele>502.91</ele>
        <time>2021-07-18T12:40:21Z</time>
      </trkpt>
      <trkpt lat="45.43131" lon="5.51668">
        <ele>502.43</ele>
        <time>2021-07-18T12:40:36Z</time>
      </trkpt>
      <trkpt lat="45.43049" lon="5.51639">
        <ele>501.95</ele>
        <time>2021-07-18T12:40:55Z</time>
      </trkpt>
      <trkpt lat="45.42979" lon="5.51622">
        <ele>501.46</ele>
        <time>2021-07-18T12:41:12Z</time>
      </trkpt>
      <trkpt lat="45.42916" lon="5.51637">
        <ele>501.46</ele>
        <time>2021-07-18T12:41:27Z</time>
      </trkpt>
      <trkpt lat="45.42897" lon="5.51649">
        <ele>502.91</ele>
        <time>2021-07-18T12:41:35Z</time>
      </trkpt>
      <trkpt lat="45.42894" lon="5.51649">
        <ele>502.91</ele>
        <time>2021-07-18T12:41:36Z</time>
      </trkpt>
      <trkpt lat="45.42891" lon="5.51647">
        <ele>502.91</ele>
        <time>2021-07-18T12:41:37Z</time>
      </trkpt>
      <trkpt lat="45.42886" lon="5.5164">
        <ele>502.91</ele>
        <time>2021-07-18T12:41:39Z</time>
      </trkpt>
      <trkpt lat="45.42881" lon="5.5163">
        <ele>502.91</ele>
        <time>2021-07-18T12:41:49Z</time>
      </trkpt>
      <trkpt lat="45.42882" lon="5.51627">
        <ele>502.91</ele>
        <time>2021-07-18T12:41:55Z</time>
      </trkpt>
    </trkseg>
  </trk>
</gpx>